Wetterdaten: Sonntag, 25.12.2016
Datum Zeit Temp. A. Feuchte A. Luftdruck Regen Wind Richtung Richtung Sonnenschein ET UV Solar Taupunkt Windchill Windben Empfang
25.12.2016 00:00 5,7 C 89 % 1028,6 hPa 0,0 l/m 16,4 km/h (3 Bft) SW 234 0 min 0,000 mm 0,0 UV-I 0 W/m 4,0 C -0,7 C 29,0 km/h (5 Bft) 97,87 %
25.12.2016 00:02 5,7 C 89 % 1028,6 hPa 0,0 l/m 19,0 km/h (3 Bft) W-SW 245 0 min 0,000 mm 0,0 UV-I 0 W/m 4,0 C -1,9 C 27,4 km/h (4 Bft) 97,83 %
25.12.2016 00:04 5,8 C 89 % 1028,7 hPa 0,0 l/m 18,3 km/h (3 Bft) W-SW 238 0 min 0,000 mm 0,0 UV-I 0 W/m 4,1 C -1,5 C 25,7 km/h (4 Bft) 95,74 %
25.12.2016 00:06 5,8 C 89 % 1028,8 hPa 0,0 l/m 16,8 km/h (3 Bft) W-SW 248 0 min 0,000 mm 0,0 UV-I 0 W/m 4,1 C -0,8 C 25,7 km/h (4 Bft) 97,87 %
25.12.2016 00:08 5,8 C 89 % 1028,7 hPa 0,0 l/m 15,3 km/h (3 Bft) W-SW 250 0 min 0,000 mm 0,0 UV-I 0 W/m 4,1 C -0,1 C 22,5 km/h (4 Bft) 97,87 %
25.12.2016 00:10 5,8 C 89 % 1028,8 hPa 0,0 l/m 15,4 km/h (3 Bft) SW 216 0 min 0,000 mm 0,0 UV-I 0 W/m 4,1 C -0,2 C 22,5 km/h (4 Bft) 95,74 %
25.12.2016 00:12 5,8 C 89 % 1028,8 hPa 0,0 l/m 15,9 km/h (3 Bft) SW 233 0 min 0,000 mm 0,0 UV-I 0 W/m 4,1 C -0,4 C 27,4 km/h (4 Bft) 97,37 %
25.12.2016 00:14 5,8 C 89 % 1028,8 hPa 0,0 l/m 12,3 km/h (3 Bft) SW 232 0 min 0,000 mm 0,0 UV-I 0 W/m 4,1 C 1,5 C 17,7 km/h (3 Bft) 97,87 %
25.12.2016 00:16 5,8 C 88 % 1028,8 hPa 0,0 l/m 12,5 km/h (3 Bft) SW 232 0 min 0,000 mm 0,0 UV-I 0 W/m 4,0 C 1,4 C 17,7 km/h (3 Bft) 97,87 %
25.12.2016 00:18 5,8 C 88 % 1028,9 hPa 0,0 l/m 11,5 km/h (2 Bft) W-SW 252 0 min 0,000 mm 0,0 UV-I 0 W/m 4,0 C 2,0 C 17,7 km/h (3 Bft) 97,87 %
25.12.2016 00:20 5,8 C 88 % 1028,9 hPa 0,0 l/m 10,9 km/h (2 Bft) SW 217 0 min 0,000 mm 0,0 UV-I 0 W/m 4,0 C 2,4 C 14,5 km/h (3 Bft) 97,87 %
25.12.2016 00:22 5,8 C 88 % 1028,9 hPa 0,0 l/m 10,9 km/h (2 Bft) W-SW 243 0 min 0,000 mm 0,0 UV-I 0 W/m 4,0 C 2,4 C 19,3 km/h (3 Bft) 95,74 %
25.12.2016 00:24 5,8 C 88 % 1028,8 hPa 0,0 l/m 12,3 km/h (3 Bft) W-SW 257 0 min 0,000 mm 0,0 UV-I 0 W/m 4,0 C 1,5 C 17,7 km/h (3 Bft) 95,74 %
25.12.2016 00:26 5,8 C 88 % 1028,8 hPa 0,0 l/m 13,8 km/h (3 Bft) SW 221 0 min 0,000 mm 0,0 UV-I 0 W/m 4,0 C 0,7 C 19,3 km/h (3 Bft) 97,87 %
25.12.2016 00:28 5,7 C 88 % 1028,6 hPa 0,0 l/m 13,3 km/h (3 Bft) W-SW 244 0 min 0,000 mm 0,0 UV-I 0 W/m 3,9 C 0,8 C 19,3 km/h (3 Bft) 95,74 %
25.12.2016 00:30 5,7 C 89 % 1028,6 hPa 0,0 l/m 15,1 km/h (3 Bft) SW 229 0 min 0,000 mm 0,0 UV-I 0 W/m 4,0 C -0,1 C 20,9 km/h (4 Bft) 98,00 %
25.12.2016 00:32 5,7 C 89 % 1028,6 hPa 0,0 l/m 13,6 km/h (3 Bft) S-SW 210 0 min 0,000 mm 0,0 UV-I 0 W/m 4,0 C 0,7 C 22,5 km/h (4 Bft) 95,83 %
25.12.2016 00:34 5,7 C 89 % 1028,6 hPa 0,0 l/m 16,0 km/h (3 Bft) SW 219 0 min 0,000 mm 0,0 UV-I 0 W/m 4,0 C -0,6 C 25,7 km/h (4 Bft) 95,74 %
25.12.2016 00:36 5,7 C 89 % 1028,5 hPa 0,0 l/m 14,9 km/h (3 Bft) SW 227 0 min 0,000 mm 0,0 UV-I 0 W/m 4,0 C -0,0 C 20,9 km/h (4 Bft) 97,87 %
25.12.2016 00:38 5,7 C 89 % 1028,5 hPa 0,0 l/m 15,4 km/h (3 Bft) W-SW 255 0 min 0,000 mm 0,0 UV-I 0 W/m 4,0 C -0,3 C 22,5 km/h (4 Bft) 97,87 %
25.12.2016 00:40 5,7 C 89 % 1028,4 hPa 0,0 l/m 14,0 km/h (3 Bft) W-SW 248 0 min 0,000 mm 0,0 UV-I 0 W/m 4,0 C 0,4 C 22,5 km/h (4 Bft) 95,74 %
25.12.2016 00:42 5,7 C 89 % 1028,3 hPa 0,0 l/m 15,9 km/h (3 Bft) W-SW 241 0 min 0,000 mm 0,0 UV-I 0 W/m 4,0 C -0,5 C 20,9 km/h (4 Bft) 100,00 %
25.12.2016 00:44 5,6 C 89 % 1028,3 hPa 0,0 l/m 15,5 km/h (3 Bft) SW 233 0 min 0,000 mm 0,0 UV-I 0 W/m 3,9 C -0,4 C 19,3 km/h (3 Bft) 100,00 %
25.12.2016 00:46 5,6 C 89 % 1028,3 hPa 0,0 l/m 14,9 km/h (3 Bft) S-SW 192 0 min 0,000 mm 0,0 UV-I 0 W/m 3,9 C -0,1 C 24,1 km/h (4 Bft) 97,87 %
25.12.2016 00:48 5,6 C 89 % 1028,3 hPa 0,0 l/m 16,3 km/h (3 Bft) SW 236 0 min 0,000 mm 0,0 UV-I 0 W/m 3,9 C -0,8 C 24,1 km/h (4 Bft) 100,00 %
25.12.2016 00:50 5,7 C 89 % 1028,3 hPa 0,0 l/m 19,9 km/h (4 Bft) W 261 0 min 0,000 mm 0,0 UV-I 0 W/m 4,0 C -2,2 C 29,0 km/h (5 Bft) 100,00 %
25.12.2016 00:52 5,7 C 88 % 1028,3 hPa 0,0 l/m 19,8 km/h (3 Bft) W-SW 244 0 min 0,000 mm 0,0 UV-I 0 W/m 3,9 C -2,2 C 27,4 km/h (4 Bft) 100,00 %
25.12.2016 00:54 5,8 C 88 % 1028,3 hPa 0,0 l/m 17,2 km/h (3 Bft) W-SW 254 0 min 0,000 mm 0,0 UV-I 0 W/m 4,0 C -1,0 C 25,7 km/h (4 Bft) 97,87 %
25.12.2016 00:56 5,8 C 87 % 1028,3 hPa 0,0 l/m 19,3 km/h (3 Bft) W-SW 256 0 min 0,000 mm 0,0 UV-I 0 W/m 3,8 C -1,9 C 29,0 km/h (5 Bft) 100,00 %
25.12.2016 00:58 5,8 C 87 % 1028,3 hPa 0,0 l/m 18,0 km/h (3 Bft) W-SW 240 0 min 0,000 mm 0,0 UV-I 0 W/m 3,8 C -1,3 C 27,4 km/h (4 Bft) 100,00 %
25.12.2016 01:00 5,9 C 86 % 1028,3 hPa 0,0 l/m 18,6 km/h (3 Bft) W-SW 256 0 min 0,000 mm 0,0 UV-I 0 W/m 3,7 C -1,5 C 29,0 km/h (5 Bft) 94,74 %
25.12.2016 01:01 5,9 C 86 % 1028,3 hPa 0,0 l/m 17,9 km/h (3 Bft) W 277 0 min 0,025 mm 0,0 UV-I 0 W/m 3,7 C -1,2 C 24,1 km/h (4 Bft) 98,00 %
25.12.2016 01:04 6,0 C 85 % 1028,5 hPa 0,0 l/m 18,8 km/h (3 Bft) W-SW 246 0 min 0,000 mm 0,0 UV-I 0 W/m 3,7 C -1,4 C 27,4 km/h (4 Bft) 95,74 %
25.12.2016 01:06 6,1 C 85 % 1028,5 hPa 0,0 l/m 19,2 km/h (3 Bft) W-SW 242 0 min 0,000 mm 0,0 UV-I 0 W/m 3,8 C -1,4 C 25,7 km/h (4 Bft) 100,00 %
25.12.2016 01:08 6,1 C 84 % 1028,5 hPa 0,0 l/m 22,8 km/h (4 Bft) W-SW 252 0 min 0,000 mm 0,0 UV-I 0 W/m 3,6 C -2,8 C 32,2 km/h (5 Bft) 100,00 %
25.12.2016 01:10 6,2 C 84 % 1028,4 hPa 0,0 l/m 21,1 km/h (4 Bft) W-SW 240 0 min 0,000 mm 0,0 UV-I 0 W/m 3,7 C -2,0 C 29,0 km/h (5 Bft) 100,00 %
25.12.2016 01:12 6,2 C 84 % 1028,4 hPa 0,0 l/m 16,8 km/h (3 Bft) W-SW 249 0 min 0,000 mm 0,0 UV-I 0 W/m 3,7 C -0,3 C 25,7 km/h (4 Bft) 100,00 %
25.12.2016 01:14 6,3 C 84 % 1028,6 hPa 0,0 l/m 15,6 km/h (3 Bft) W-SW 257 0 min 0,000 mm 0,0 UV-I 0 W/m 3,8 C 0,4 C 24,1 km/h (4 Bft) 100,00 %
25.12.2016 01:16 6,3 C 83 % 1028,5 hPa 0,0 l/m 22,7 km/h (4 Bft) W-SW 239 0 min 0,000 mm 0,0 UV-I 0 W/m 3,6 C -2,5 C 35,4 km/h (5 Bft) 100,00 %
25.12.2016 01:18 6,3 C 83 % 1028,5 hPa 0,0 l/m 21,1 km/h (4 Bft) W-SW 238 0 min 0,000 mm 0,0 UV-I 0 W/m 3,6 C -1,9 C 35,4 km/h (5 Bft) 97,87 %
25.12.2016 01:20 6,4 C 82 % 1028,5 hPa 0,0 l/m 24,5 km/h (4 Bft) W-SW 251 0 min 0,000 mm 0,0 UV-I 0 W/m 3,6 C -2,9 C 40,2 km/h (6 Bft) 100,00 %
25.12.2016 01:22 6,5 C 82 % 1028,5 hPa 0,0 l/m 23,5 km/h (4 Bft) W-SW 249 0 min 0,000 mm 0,0 UV-I 0 W/m 3,7 C -2,4 C 32,2 km/h (5 Bft) 100,00 %
25.12.2016 01:24 6,6 C 81 % 1028,5 hPa 0,0 l/m 21,8 km/h (4 Bft) W-SW 247 0 min 0,000 mm 0,0 UV-I 0 W/m 3,6 C -1,7 C 33,8 km/h (5 Bft) 100,00 %
25.12.2016 01:26 6,6 C 81 % 1028,5 hPa 0,0 l/m 23,5 km/h (4 Bft) W 259 0 min 0,000 mm 0,0 UV-I 0 W/m 3,6 C -2,3 C 33,8 km/h (5 Bft) 96,00 %
25.12.2016 01:28 6,7 C 81 % 1028,5 hPa 0,0 l/m 22,2 km/h (4 Bft) W-SW 254 0 min 0,000 mm 0,0 UV-I 0 W/m 3,7 C -1,8 C 40,2 km/h (6 Bft) 95,74 %
25.12.2016 01:30 6,7 C 80 % 1028,5 hPa 0,0 l/m 27,2 km/h (4 Bft) W-SW 257 0 min 0,000 mm 0,0 UV-I 0 W/m 3,5 C -3,3 C 41,8 km/h (6 Bft) 100,00 %
25.12.2016 01:32 6,7 C 81 % 1028,6 hPa 0,0 l/m 17,5 km/h (3 Bft) W-NW 297 0 min 0,000 mm 0,0 UV-I 0 W/m 3,7 C 0,0 C 27,4 km/h (4 Bft) 100,00 %
25.12.2016 01:34 6,7 C 81 % 1028,5 hPa 0,0 l/m 15,7 km/h (3 Bft) W 267 0 min 0,000 mm 0,0 UV-I 0 W/m 3,7 C 0,8 C 27,4 km/h (4 Bft) 97,87 %
25.12.2016 01:36 6,7 C 81 % 1028,4 hPa 0,0 l/m 19,6 km/h (3 Bft) W 264 0 min 0,000 mm 0,0 UV-I 0 W/m 3,7 C -0,8 C 30,6 km/h (5 Bft) 100,00 %
25.12.2016 01:38 6,6 C 80 % 1028,5 hPa 0,0 l/m 20,3 km/h (4 Bft) W-SW 246 0 min 0,000 mm 0,0 UV-I 0 W/m 3,4 C -1,2 C 27,4 km/h (4 Bft) 97,87 %
25.12.2016 01:40 6,6 C 80 % 1028,5 hPa 0,0 l/m 22,1 km/h (4 Bft) W-SW 246 0 min 0,000 mm 0,0 UV-I 0 W/m 3,4 C -1,9 C 32,2 km/h (5 Bft) 97,14 %
25.12.2016 01:42 6,6 C 80 % 1028,5 hPa 0,0 l/m 16,4 km/h (3 Bft) W-SW 250 0 min 0,000 mm 0,0 UV-I 0 W/m 3,4 C 0,4 C 24,1 km/h (4 Bft) 97,87 %
25.12.2016 01:44 6,6 C 80 % 1028,5 hPa 0,0 l/m 20,5 km/h (4 Bft) W 263 0 min 0,000 mm 0,0 UV-I 0 W/m 3,4 C -1,3 C 30,6 km/h (5 Bft) 97,87 %
25.12.2016 01:46 6,6 C 80 % 1028,4 hPa 0,0 l/m 20,4 km/h (4 Bft) W-SW 244 0 min 0,000 mm 0,0 UV-I 0 W/m 3,4 C -1,3 C 29,0 km/h (5 Bft) 97,87 %
25.12.2016 01:48 6,6 C 80 % 1028,4 hPa 0,0 l/m 22,3 km/h (4 Bft) W 266 0 min 0,000 mm 0,0 UV-I 0 W/m 3,4 C -1,9 C 35,4 km/h (5 Bft) 97,92 %
25.12.2016 01:50 6,6 C 79 % 1028,4 hPa 0,0 l/m 16,5 km/h (3 Bft) W-SW 257 0 min 0,000 mm 0,0 UV-I 0 W/m 3,2 C 0,3 C 29,0 km/h (5 Bft) 100,00 %
25.12.2016 01:52 6,6 C 80 % 1028,4 hPa 0,0 l/m 15,0 km/h (3 Bft) W 265 0 min 0,000 mm 0,0 UV-I 0 W/m 3,4 C 1,0 C 22,5 km/h (4 Bft) 100,00 %
25.12.2016 01:54 6,5 C 80 % 1028,4 hPa 0,0 l/m 18,6 km/h (3 Bft) W-SW 250 0 min 0,000 mm 0,0 UV-I 0 W/m 3,3 C -0,7 C 25,7 km/h (4 Bft) 93,75 %
25.12.2016 01:56 6,5 C 80 % 1028,6 hPa 0,0 l/m 22,8 km/h (4 Bft) W 271 0 min 0,000 mm 0,0 UV-I 0 W/m 3,3 C -2,2 C 32,2 km/h (5 Bft) 100,00 %
25.12.2016 01:58 6,5 C 79 % 1028,5 hPa 0,0 l/m 21,5 km/h (4 Bft) SW 236 0 min 0,000 mm 0,0 UV-I 0 W/m 3,1 C -1,8 C 32,2 km/h (5 Bft) 100,00 %
25.12.2016 02:00 6,5 C 80 % 1028,5 hPa 0,0 l/m 21,3 km/h (4 Bft) SW 221 0 min 0,026 mm 0,0 UV-I 0 W/m 3,3 C -1,7 C 32,2 km/h (5 Bft) 97,87 %
25.12.2016 02:02 6,5 C 80 % 1028,6 hPa 0,0 l/m 19,6 km/h (3 Bft) W 260 0 min 0,000 mm 0,0 UV-I 0 W/m 3,3 C -1,1 C 30,6 km/h (5 Bft) 100,00 %
25.12.2016 02:04 6,5 C 79 % 1028,5 hPa 0,0 l/m 22,2 km/h (4 Bft) W 261 0 min 0,000 mm 0,0 UV-I 0 W/m 3,1 C -2,0 C 30,6 km/h (5 Bft) 100,00 %
25.12.2016 02:06 6,5 C 79 % 1028,4 hPa 0,0 l/m 21,1 km/h (4 Bft) W 272 0 min 0,000 mm 0,0 UV-I 0 W/m 3,1 C -1,6 C 35,4 km/h (5 Bft) 98,00 %
25.12.2016 02:08 6,5 C 79 % 1028,4 hPa 0,0 l/m 17,4 km/h (3 Bft) W-SW 252 0 min 0,000 mm 0,0 UV-I 0 W/m 3,1 C -0,2 C 27,4 km/h (4 Bft) 97,87 %
25.12.2016 02:10 6,5 C 79 % 1028,3 hPa 0,0 l/m 18,5 km/h (3 Bft) W-SW 255 0 min 0,000 mm 0,0 UV-I 0 W/m 3,1 C -0,7 C 29,0 km/h (5 Bft) 97,87 %
25.12.2016 02:12 6,4 C 80 % 1028,3 hPa 0,0 l/m 21,6 km/h (4 Bft) W-SW 245 0 min 0,000 mm 0,0 UV-I 0 W/m 3,2 C -1,9 C 32,2 km/h (5 Bft) 100,00 %
25.12.2016 02:14 6,4 C 80 % 1028,3 hPa 0,0 l/m 18,5 km/h (3 Bft) W-SW 246 0 min 0,000 mm 0,0 UV-I 0 W/m 3,2 C -0,8 C 29,0 km/h (5 Bft) 97,87 %
25.12.2016 02:16 6,4 C 81 % 1028,3 hPa 0,0 l/m 19,7 km/h (3 Bft) W 280 0 min 0,000 mm 0,0 UV-I 0 W/m 3,4 C -1,2 C 27,4 km/h (4 Bft) 97,87 %
25.12.2016 02:18 6,4 C 81 % 1028,2 hPa 0,0 l/m 22,8 km/h (4 Bft) W 259 0 min 0,000 mm 0,0 UV-I 0 W/m 3,4 C -2,4 C 33,8 km/h (5 Bft) 95,74 %
25.12.2016 02:20 6,4 C 81 % 1028,2 hPa 0,0 l/m 21,2 km/h (4 Bft) W-SW 257 0 min 0,000 mm 0,0 UV-I 0 W/m 3,4 C -1,8 C 32,2 km/h (5 Bft) 97,37 %
25.12.2016 02:22 6,4 C 81 % 1028,3 hPa 0,0 l/m 18,5 km/h (3 Bft) W-SW 254 0 min 0,000 mm 0,0 UV-I 0 W/m 3,4 C -0,8 C 27,4 km/h (4 Bft) 95,74 %
25.12.2016 02:24 6,4 C 82 % 1028,1 hPa 0,0 l/m 18,3 km/h (3 Bft) W-SW 250 0 min 0,000 mm 0,0 UV-I 0 W/m 3,6 C -0,7 C 30,6 km/h (5 Bft) 97,87 %
25.12.2016 02:26 6,4 C 82 % 1028,0 hPa 0,0 l/m 20,5 km/h (4 Bft) W-SW 244 0 min 0,000 mm 0,0 UV-I 0 W/m 3,6 C -1,5 C 33,8 km/h (5 Bft) 95,74 %
25.12.2016 02:28 6,4 C 82 % 1028,0 hPa 0,0 l/m 19,0 km/h (3 Bft) W-SW 251 0 min 0,000 mm 0,0 UV-I 0 W/m 3,6 C -1,0 C 30,6 km/h (5 Bft) 97,92 %
25.12.2016 02:30 6,4 C 82 % 1027,9 hPa 0,0 l/m 22,6 km/h (4 Bft) W-SW 252 0 min 0,000 mm 0,0 UV-I 0 W/m 3,6 C -2,3 C 30,6 km/h (5 Bft) 97,87 %
25.12.2016 02:32 6,4 C 82 % 1028,0 hPa 0,0 l/m 19,0 km/h (3 Bft) W 274 0 min 0,000 mm 0,0 UV-I 0 W/m 3,6 C -1,0 C 32,2 km/h (5 Bft) 97,87 %
25.12.2016 02:34 6,4 C 82 % 1028,1 hPa 0,0 l/m 19,8 km/h (3 Bft) W-NW 284 0 min 0,000 mm 0,0 UV-I 0 W/m 3,6 C -1,3 C 30,6 km/h (5 Bft) 93,62 %
25.12.2016 02:36 6,4 C 82 % 1028,2 hPa 0,0 l/m 22,2 km/h (4 Bft) W-SW 256 0 min 0,000 mm 0,0 UV-I 0 W/m 3,6 C -2,2 C 32,2 km/h (5 Bft) 95,74 %
25.12.2016 02:38 6,5 C 82 % 1028,2 hPa 0,0 l/m 22,1 km/h (4 Bft) W-SW 242 0 min 0,000 mm 0,0 UV-I 0 W/m 3,7 C -2,0 C 27,4 km/h (4 Bft) 96,00 %
25.12.2016 02:40 6,5 C 82 % 1028,2 hPa 0,0 l/m 18,5 km/h (3 Bft) W-SW 248 0 min 0,000 mm 0,0 UV-I 0 W/m 3,7 C -0,7 C 29,0 km/h (5 Bft) 97,56 %
25.12.2016 02:42 6,4 C 82 % 1028,2 hPa 0,0 l/m 19,4 km/h (3 Bft) NW 307 0 min 0,000 mm 0,0 UV-I 0 W/m 3,6 C -1,1 C 27,4 km/h (4 Bft) 94,00 %
25.12.2016 02:44 6,4 C 81 % 1028,2 hPa 0,0 l/m 20,4 km/h (4 Bft) W 261 0 min 0,000 mm 0,0 UV-I 0 W/m 3,4 C -1,5 C 35,4 km/h (5 Bft) 97,87 %
25.12.2016 02:46 6,4 C 81 % 1028,3 hPa 0,0 l/m 23,7 km/h (4 Bft) W-SW 247 0 min 0,000 mm 0,0 UV-I 0 W/m 3,4 C -2,6 C 43,5 km/h (6 Bft) 97,87 %
25.12.2016 02:48 6,4 C 81 % 1028,2 hPa 0,0 l/m 26,2 km/h (4 Bft) NW 324 0 min 0,000 mm 0,0 UV-I 0 W/m 3,4 C -3,4 C 35,4 km/h (5 Bft) 97,87 %
25.12.2016 02:50 6,5 C 81 % 1028,2 hPa 0,0 l/m 24,0 km/h (4 Bft) W-SW 258 0 min 0,000 mm 0,0 UV-I 0 W/m 3,5 C -2,6 C 38,6 km/h (5 Bft) 100,00 %
25.12.2016 02:52 6,5 C 81 % 1028,2 hPa 0,0 l/m 25,6 km/h (4 Bft) W 278 0 min 0,000 mm 0,0 UV-I 0 W/m 3,5 C -3,1 C 40,2 km/h (6 Bft) 100,00 %
25.12.2016 02:54 6,5 C 81 % 1028,2 hPa 0,0 l/m 20,8 km/h (4 Bft) W 269 0 min 0,000 mm 0,0 UV-I 0 W/m 3,5 C -1,5 C 41,8 km/h (6 Bft) 100,00 %
25.12.2016 02:56 6,5 C 81 % 1028,2 hPa 0,0 l/m 18,1 km/h (3 Bft) W 270 0 min 0,000 mm 0,0 UV-I 0 W/m 3,5 C -0,5 C 25,7 km/h (4 Bft) 100,00 %
25.12.2016 02:58 6,4 C 81 % 1028,2 hPa 0,0 l/m 26,0 km/h (4 Bft) W 261 0 min 0,000 mm 0,0 UV-I 0 W/m 3,4 C -3,3 C 43,5 km/h (6 Bft) 100,00 %
25.12.2016 03:00 6,4 C 81 % 1028,1 hPa 0,0 l/m 23,4 km/h (4 Bft) W 269 0 min 0,051 mm 0,0 UV-I 0 W/m 3,4 C -2,5 C 37,0 km/h (5 Bft) 95,83 %
25.12.2016 03:02 6,4 C 80 % 1028,1 hPa 0,0 l/m 27,6 km/h (4 Bft) W-SW 246 0 min 0,000 mm 0,0 UV-I 0 W/m 3,2 C -3,8 C 37,0 km/h (5 Bft) 97,87 %
25.12.2016 03:04 6,4 C 80 % 1028,1 hPa 0,0 l/m 20,4 km/h (4 Bft) W 261 0 min 0,000 mm 0,0 UV-I 0 W/m 3,2 C -1,5 C 37,0 km/h (5 Bft) 100,00 %
25.12.2016 03:06 6,4 C 80 % 1028,1 hPa 0,0 l/m 24,3 km/h (4 Bft) W-SW 250 0 min 0,000 mm 0,0 UV-I 0 W/m 3,2 C -2,8 C 43,5 km/h (6 Bft) 97,87 %
25.12.2016 03:08 6,4 C 80 % 1028,1 hPa 0,0 l/m 24,1 km/h (4 Bft) W 262 0 min 0,000 mm 0,0 UV-I 0 W/m 3,2 C -2,8 C 41,8 km/h (6 Bft) 100,00 %
25.12.2016 03:10 6,4 C 80 % 1028,1 hPa 0,0 l/m 23,2 km/h (4 Bft) W 261 0 min 0,000 mm 0,0 UV-I 0 W/m 3,2 C -2,5 C 43,5 km/h (6 Bft) 98,04 %
25.12.2016 03:12 6,4 C 80 % 1028,1 hPa 0,0 l/m 21,1 km/h (4 Bft) W-SW 240 0 min 0,000 mm 0,0 UV-I 0 W/m 3,2 C -1,8 C 33,8 km/h (5 Bft) 100,00 %
25.12.2016 03:14 6,4 C 80 % 1028,1 hPa 0,2 l/m 32,8 km/h (5 Bft) W 267 0 min 0,000 mm 0,0 UV-I 0 W/m 3,2 C -5,1 C 53,1 km/h (7 Bft) 100,00 %
25.12.2016 03:16 6,4 C 80 % 1028,1 hPa 0,0 l/m 26,9 km/h (4 Bft) W-SW 244 0 min 0,000 mm 0,0 UV-I 0 W/m 3,2 C -3,6 C 40,2 km/h (6 Bft) 94,29 %
25.12.2016 03:18 6,4 C 80 % 1028,0 hPa 0,0 l/m 23,8 km/h (4 Bft) SW 235 0 min 0,000 mm 0,0 UV-I 0 W/m 3,2 C -2,7 C 43,5 km/h (6 Bft) 97,87 %
25.12.2016 03:20 6,4 C 81 % 1028,0 hPa 0,0 l/m 22,3 km/h (4 Bft) W 275 0 min 0,000 mm 0,0 UV-I 0 W/m 3,4 C -2,2 C 37,0 km/h (5 Bft) 97,92 %
25.12.2016 03:22 6,3 C 81 % 1028,0 hPa 0,0 l/m 15,5 km/h (3 Bft) W-SW 256 0 min 0,000 mm 0,0 UV-I 0 W/m 3,3 C 0,4 C 25,7 km/h (4 Bft) 100,00 %
25.12.2016 03:24 6,3 C 81 % 1028,1 hPa 0,0 l/m 19,3 km/h (3 Bft) W 262 0 min 0,000 mm 0,0 UV-I 0 W/m 3,3 C -1,2 C 27,4 km/h (4 Bft) 97,87 %
25.12.2016 03:26 6,3 C 81 % 1028,0 hPa 0,0 l/m 19,7 km/h (3 Bft) W-SW 257 0 min 0,000 mm 0,0 UV-I 0 W/m 3,3 C -1,4 C 27,4 km/h (4 Bft) 100,00 %
25.12.2016 03:28 6,2 C 81 % 1028,0 hPa 0,0 l/m 23,0 km/h (4 Bft) W 268 0 min 0,000 mm 0,0 UV-I 0 W/m 3,2 C -2,7 C 32,2 km/h (5 Bft) 100,00 %
25.12.2016 03:30 6,2 C 82 % 1028,0 hPa 0,0 l/m 21,6 km/h (4 Bft) W-SW 257 0 min 0,000 mm 0,0 UV-I 0 W/m 3,4 C -2,2 C 32,2 km/h (5 Bft) 100,00 %
25.12.2016 03:32 6,2 C 82 % 1027,9 hPa 0,0 l/m 21,8 km/h (4 Bft) W 269 0 min 0,000 mm 0,0 UV-I 0 W/m 3,4 C -2,3 C 32,2 km/h (5 Bft) 100,00 %
25.12.2016 03:34 6,2 C 82 % 1027,9 hPa 0,0 l/m 21,7 km/h (4 Bft) W-SW 248 0 min 0,000 mm 0,0 UV-I 0 W/m 3,4 C -2,2 C 30,6 km/h (5 Bft) 100,00 %
25.12.2016 03:36 6,2 C 82 % 1027,9 hPa 0,0 l/m 20,6 km/h (4 Bft) W 272 0 min 0,000 mm 0,0 UV-I 0 W/m 3,4 C -1,8 C 33,8 km/h (5 Bft) 100,00 %
25.12.2016 03:38 6,1 C 82 % 1027,9 hPa 0,0 l/m 17,2 km/h (3 Bft) W-SW 245 0 min 0,000 mm 0,0 UV-I 0 W/m 3,3 C -0,6 C 25,7 km/h (4 Bft) 100,00 %
25.12.2016 03:40 6,1 C 83 % 1027,9 hPa 0,0 l/m 19,0 km/h (3 Bft) W 265 0 min 0,000 mm 0,0 UV-I 0 W/m 3,4 C -1,4 C 29,0 km/h (5 Bft) 100,00 %
25.12.2016 03:42 6,1 C 83 % 1027,8 hPa 0,0 l/m 20,8 km/h (4 Bft) W 259 0 min 0,000 mm 0,0 UV-I 0 W/m 3,4 C -2,0 C 32,2 km/h (5 Bft) 100,00 %
25.12.2016 03:44 6,1 C 83 % 1027,7 hPa 0,0 l/m 18,3 km/h (3 Bft) W-SW 256 0 min 0,000 mm 0,0 UV-I 0 W/m 3,4 C -1,1 C 29,0 km/h (5 Bft) 100,00 %
25.12.2016 03:46 6,0 C 83 % 1027,8 hPa 0,0 l/m 19,9 km/h (4 Bft) W-SW 247 0 min 0,000 mm 0,0 UV-I 0 W/m 3,3 C -1,8 C 33,8 km/h (5 Bft) 97,87 %
25.12.2016 03:48 6,0 C 83 % 1027,7 hPa 0,0 l/m 13,8 km/h (3 Bft) W 266 0 min 0,000 mm 0,0 UV-I 0 W/m 3,3 C 0,9 C 27,4 km/h (4 Bft) 95,74 %
25.12.2016 03:50 6,0 C 83 % 1027,7 hPa 0,0 l/m 23,1 km/h (4 Bft) W-SW 249 0 min 0,000 mm 0,0 UV-I 0 W/m 3,3 C -3,0 C 45,1 km/h (6 Bft) 100,00 %
25.12.2016 03:52 5,9 C 84 % 1027,6 hPa 0,0 l/m 14,1 km/h (3 Bft) W-NW 283 0 min 0,000 mm 0,0 UV-I 0 W/m 3,4 C 0,6 C 20,9 km/h (4 Bft) 100,00 %
25.12.2016 03:54 5,9 C 84 % 1027,5 hPa 0,0 l/m 16,8 km/h (3 Bft) W-SW 254 0 min 0,000 mm 0,0 UV-I 0 W/m 3,4 C -0,7 C 27,4 km/h (4 Bft) 98,00 %
25.12.2016 03:56 5,9 C 83 % 1027,5 hPa 0,0 l/m 18,4 km/h (3 Bft) W-SW 245 0 min 0,000 mm 0,0 UV-I 0 W/m 3,2 C -1,4 C 24,1 km/h (4 Bft) 97,37 %
25.12.2016 03:58 5,9 C 84 % 1027,6 hPa 0,0 l/m 20,2 km/h (4 Bft) W 261 0 min 0,000 mm 0,0 UV-I 0 W/m 3,4 C -2,1 C 33,8 km/h (5 Bft) 100,00 %
25.12.2016 04:00 5,9 C 84 % 1027,6 hPa 0,0 l/m 17,8 km/h (3 Bft) W-SW 250 0 min 0,025 mm 0,0 UV-I 0 W/m 3,4 C -1,1 C 30,6 km/h (5 Bft) 100,00 %
25.12.2016 04:02 5,8 C 84 % 1027,6 hPa 0,0 l/m 20,2 km/h (4 Bft) W 261 0 min 0,000 mm 0,0 UV-I 0 W/m 3,3 C -2,2 C 29,0 km/h (5 Bft) 100,00 %
25.12.2016 04:04 5,8 C 84 % 1027,5 hPa 0,0 l/m 15,2 km/h (3 Bft) W 261 0 min 0,000 mm 0,0 UV-I 0 W/m 3,3 C -0,1 C 20,9 km/h (4 Bft) 100,00 %
25.12.2016 04:06 5,8 C 83 % 1027,3 hPa 0,0 l/m 20,4 km/h (4 Bft) SW 220 0 min 0,000 mm 0,0 UV-I 0 W/m 3,1 C -2,3 C 33,8 km/h (5 Bft) 95,74 %
25.12.2016 04:08 5,9 C 83 % 1027,4 hPa 0,0 l/m 18,6 km/h (3 Bft) W 260 0 min 0,000 mm 0,0 UV-I 0 W/m 3,2 C -1,5 C 27,4 km/h (4 Bft) 100,00 %
25.12.2016 04:10 5,9 C 83 % 1027,5 hPa 0,0 l/m 19,4 km/h (3 Bft) W 272 0 min 0,000 mm 0,0 UV-I 0 W/m 3,2 C -1,8 C 33,8 km/h (5 Bft) 100,00 %
25.12.2016 04:12 5,9 C 83 % 1027,6 hPa 0,0 l/m 19,0 km/h (3 Bft) W-SW 254 0 min 0,000 mm 0,0 UV-I 0 W/m 3,2 C -1,6 C 32,2 km/h (5 Bft) 100,00 %
25.12.2016 04:14 5,9 C 82 % 1027,5 hPa 0,0 l/m 21,6 km/h (4 Bft) W 259 0 min 0,000 mm 0,0 UV-I 0 W/m 3,1 C -2,6 C 32,2 km/h (5 Bft) 100,00 %
25.12.2016 04:16 5,9 C 82 % 1027,5 hPa 0,0 l/m 23,1 km/h (4 Bft) W-SW 250 0 min 0,000 mm 0,0 UV-I 0 W/m 3,1 C -3,1 C 35,4 km/h (5 Bft) 100,00 %
25.12.2016 04:18 6,0 C 82 % 1027,4 hPa 0,0 l/m 19,1 km/h (3 Bft) W 272 0 min 0,000 mm 0,0 UV-I 0 W/m 3,2 C -1,5 C 30,6 km/h (5 Bft) 100,00 %
25.12.2016 04:20 6,0 C 82 % 1027,5 hPa 0,0 l/m 16,5 km/h (3 Bft) W-NW 282 0 min 0,000 mm 0,0 UV-I 0 W/m 3,2 C -0,4 C 24,1 km/h (4 Bft) 95,74 %
25.12.2016 04:22 6,0 C 81 % 1027,5 hPa 0,0 l/m 21,9 km/h (4 Bft) W-SW 251 0 min 0,000 mm 0,0 UV-I 0 W/m 3,0 C -2,6 C 37,0 km/h (5 Bft) 97,87 %
25.12.2016 04:24 6,0 C 81 % 1027,6 hPa 0,0 l/m 24,0 km/h (4 Bft) W 263 0 min 0,000 mm 0,0 UV-I 0 W/m 3,0 C -3,3 C 40,2 km/h (6 Bft) 91,49 %
25.12.2016 04:26 6,0 C 81 % 1027,5 hPa 0,0 l/m 24,8 km/h (4 Bft) W 271 0 min 0,000 mm 0,0 UV-I 0 W/m 3,0 C -3,5 C 35,4 km/h (5 Bft) 97,87 %
25.12.2016 04:28 6,0 C 81 % 1027,5 hPa 0,0 l/m 23,8 km/h (4 Bft) W 273 0 min 0,000 mm 0,0 UV-I 0 W/m 3,0 C -3,2 C 35,4 km/h (5 Bft) 97,87 %
25.12.2016 04:30 6,0 C 81 % 1027,4 hPa 0,0 l/m 23,6 km/h (4 Bft) W 266 0 min 0,000 mm 0,0 UV-I 0 W/m 3,0 C -3,1 C 41,8 km/h (6 Bft) 97,87 %
25.12.2016 04:32 6,0 C 80 % 1027,5 hPa 0,0 l/m 23,7 km/h (4 Bft) W 263 0 min 0,000 mm 0,0 UV-I 0 W/m 2,8 C -3,2 C 35,4 km/h (5 Bft) 97,92 %
25.12.2016 04:34 6,0 C 80 % 1027,5 hPa 0,0 l/m 26,4 km/h (4 Bft) W-SW 251 0 min 0,000 mm 0,0 UV-I 0 W/m 2,8 C -4,0 C 46,7 km/h (6 Bft) 97,87 %
25.12.2016 04:36 6,0 C 80 % 1027,6 hPa 0,0 l/m 23,5 km/h (4 Bft) SW 235 0 min 0,000 mm 0,0 UV-I 0 W/m 2,8 C -3,1 C 37,0 km/h (5 Bft) 97,87 %
25.12.2016 04:38 5,9 C 81 % 1027,6 hPa 0,0 l/m 21,3 km/h (4 Bft) W-SW 244 0 min 0,000 mm 0,0 UV-I 0 W/m 2,9 C -2,5 C 30,6 km/h (5 Bft) 97,37 %
25.12.2016 04:40 5,9 C 82 % 1027,6 hPa 0,0 l/m 19,3 km/h (3 Bft) W 263 0 min 0,000 mm 0,0 UV-I 0 W/m 3,1 C -1,7 C 30,6 km/h (5 Bft) 97,87 %
25.12.2016 04:42 5,9 C 82 % 1027,5 hPa 0,0 l/m 30,3 km/h (5 Bft) W-SW 253 0 min 0,000 mm 0,0 UV-I 0 W/m 3,1 C -5,2 C 56,3 km/h (7 Bft) 95,74 %
25.12.2016 04:44 5,9 C 82 % 1027,4 hPa 0,0 l/m 34,7 km/h (5 Bft) W 259 0 min 0,000 mm 0,0 UV-I 0 W/m 3,1 C -6,2 C 53,1 km/h (7 Bft) 95,74 %
25.12.2016 04:46 5,8 C 82 % 1027,4 hPa 0,0 l/m 24,8 km/h (4 Bft) W-SW 248 0 min 0,000 mm 0,0 UV-I 0 W/m 3,0 C -3,8 C 37,0 km/h (5 Bft) 91,49 %
25.12.2016 04:48 5,8 C 82 % 1027,4 hPa 0,0 l/m 24,4 km/h (4 Bft) SW 230 0 min 0,000 mm 0,0 UV-I 0 W/m 3,0 C -3,7 C 37,0 km/h (5 Bft) 98,00 %
25.12.2016 04:50 5,7 C 82 % 1027,4 hPa 0,0 l/m 23,9 km/h (4 Bft) W-SW 244 0 min 0,000 mm 0,0 UV-I 0 W/m 2,9 C -3,6 C 33,8 km/h (5 Bft) 97,87 %
25.12.2016 04:52 5,7 C 83 % 1027,3 hPa 0,0 l/m 23,3 km/h (4 Bft) NW 312 0 min 0,000 mm 0,0 UV-I 0 W/m 3,0 C -3,4 C 41,8 km/h (6 Bft) 97,87 %
25.12.2016 04:54 5,7 C 83 % 1027,4 hPa 0,0 l/m 21,0 km/h (4 Bft) W 268 0 min 0,000 mm 0,0 UV-I 0 W/m 3,0 C -2,6 C 32,2 km/h (5 Bft) 97,87 %
25.12.2016 04:56 5,6 C 83 % 1027,4 hPa 0,0 l/m 27,1 km/h (4 Bft) SW 235 0 min 0,000 mm 0,0 UV-I 0 W/m 2,9 C -4,8 C 38,6 km/h (5 Bft) 97,87 %
25.12.2016 04:58 5,6 C 83 % 1027,4 hPa 0,0 l/m 22,4 km/h (4 Bft) W-SW 252 0 min 0,000 mm 0,0 UV-I 0 W/m 2,9 C -3,3 C 32,2 km/h (5 Bft) 98,00 %
25.12.2016 05:00 5,6 C 83 % 1027,3 hPa 0,0 l/m 29,5 km/h (5 Bft) W-SW 238 0 min 0,051 mm 0,0 UV-I 0 W/m 2,9 C -5,4 C 43,5 km/h (6 Bft) 95,74 %
25.12.2016 05:02 5,5 C 83 % 1027,4 hPa 0,0 l/m 23,1 km/h (4 Bft) W 263 0 min 0,000 mm 0,0 UV-I 0 W/m 2,8 C -3,6 C 30,6 km/h (5 Bft) 97,87 %
25.12.2016 05:04 5,5 C 83 % 1027,4 hPa 0,0 l/m 28,5 km/h (4 Bft) W-SW 257 0 min 0,000 mm 0,0 UV-I 0 W/m 2,8 C -5,3 C 41,8 km/h (6 Bft) 100,00 %
25.12.2016 05:06 5,6 C 83 % 1027,5 hPa 0,0 l/m 28,2 km/h (4 Bft) W-SW 252 0 min 0,000 mm 0,0 UV-I 0 W/m 2,9 C -5,1 C 43,5 km/h (6 Bft) 100,00 %
25.12.2016 05:08 5,6 C 83 % 1027,5 hPa 0,0 l/m 27,2 km/h (4 Bft) W 267 0 min 0,000 mm 0,0 UV-I 0 W/m 2,9 C -4,8 C 37,0 km/h (5 Bft) 100,00 %
25.12.2016 05:10 5,5 C 83 % 1027,6 hPa 0,0 l/m 23,8 km/h (4 Bft) W-SW 255 0 min 0,000 mm 0,0 UV-I 0 W/m 2,8 C -3,9 C 33,8 km/h (5 Bft) 100,00 %
25.12.2016 05:12 5,5 C 83 % 1027,6 hPa 0,0 l/m 24,5 km/h (4 Bft) W 259 0 min 0,000 mm 0,0 UV-I 0 W/m 2,8 C -4,1 C 40,2 km/h (6 Bft) 100,00 %
25.12.2016 05:14 5,5 C 84 % 1027,6 hPa 0,0 l/m 25,6 km/h (4 Bft) W 276 0 min 0,000 mm 0,0 UV-I 0 W/m 3,0 C -4,5 C 43,5 km/h (6 Bft) 97,87 %
25.12.2016 05:16 5,4 C 84 % 1027,5 hPa 0,0 l/m 23,5 km/h (4 Bft) W 266 0 min 0,000 mm 0,0 UV-I 0 W/m 2,9 C -3,9 C 40,2 km/h (6 Bft) 97,87 %
25.12.2016 05:18 5,4 C 84 % 1027,6 hPa 0,0 l/m 28,5 km/h (4 Bft) W-SW 251 0 min 0,000 mm 0,0 UV-I 0 W/m 2,9 C -5,4 C 46,7 km/h (6 Bft) 98,00 %
25.12.2016 05:20 5,4 C 84 % 1027,6 hPa 0,0 l/m 25,9 km/h (4 Bft) W 267 0 min 0,000 mm 0,0 UV-I 0 W/m 2,9 C -4,7 C 53,1 km/h (7 Bft) 100,00 %
25.12.2016 05:22 5,3 C 85 % 1027,6 hPa 0,0 l/m 27,8 km/h (4 Bft) W-SW 247 0 min 0,000 mm 0,0 UV-I 0 W/m 3,0 C -5,4 C 41,8 km/h (6 Bft) 100,00 %
25.12.2016 05:24 5,3 C 85 % 1027,8 hPa 0,0 l/m 30,2 km/h (5 Bft) W-SW 240 0 min 0,000 mm 0,0 UV-I 0 W/m 3,0 C -6,0 C 41,8 km/h (6 Bft) 100,00 %
25.12.2016 05:26 5,3 C 86 % 1027,8 hPa 0,2 l/m 20,6 km/h (4 Bft) W-SW 238 0 min 0,000 mm 0,0 UV-I 0 W/m 3,2 C -3,0 C 25,7 km/h (4 Bft) 95,74 %
25.12.2016 05:28 5,2 C 86 % 1027,7 hPa 0,0 l/m 28,9 km/h (5 Bft) W 265 0 min 0,000 mm 0,0 UV-I 0 W/m 3,1 C -5,8 C 45,1 km/h (6 Bft) 100,00 %
25.12.2016 05:30 5,2 C 87 % 1027,7 hPa 0,0 l/m 22,2 km/h (4 Bft) W-SW 237 0 min 0,000 mm 0,0 UV-I 0 W/m 3,2 C -3,7 C 33,8 km/h (5 Bft) 100,00 %
25.12.2016 05:32 5,1 C 87 % 1027,7 hPa 0,0 l/m 23,8 km/h (4 Bft) W-SW 250 0 min 0,000 mm 0,0 UV-I 0 W/m 3,1 C -4,4 C 30,6 km/h (5 Bft) 100,00 %
25.12.2016 05:34 5,1 C 87 % 1027,8 hPa 0,0 l/m 27,2 km/h (4 Bft) SW 234 0 min 0,000 mm 0,0 UV-I 0 W/m 3,1 C -5,5 C 37,0 km/h (5 Bft) 100,00 %
25.12.2016 05:36 5,0 C 87 % 1027,7 hPa 0,0 l/m 22,5 km/h (4 Bft) W 275 0 min 0,000 mm 0,0 UV-I 0 W/m 3,0 C -4,1 C 37,0 km/h (5 Bft) 100,00 %
25.12.2016 05:38 5,0 C 88 % 1027,7 hPa 0,2 l/m 20,1 km/h (4 Bft) W-SW 244 0 min 0,000 mm 0,0 UV-I 0 W/m 3,2 C -3,2 C 30,6 km/h (5 Bft) 100,00 %
25.12.2016 05:40 4,9 C 88 % 1027,7 hPa 0,0 l/m 26,1 km/h (4 Bft) W-SW 254 0 min 0,000 mm 0,0 UV-I 0 W/m 3,1 C -5,4 C 37,0 km/h (5 Bft) 100,00 %
25.12.2016 05:42 4,9 C 88 % 1027,6 hPa 0,0 l/m 23,1 km/h (4 Bft) W-SW 248 0 min 0,000 mm 0,0 UV-I 0 W/m 3,1 C -4,4 C 35,4 km/h (5 Bft) 100,00 %
25.12.2016 05:44 4,9 C 88 % 1027,5 hPa 0,0 l/m 20,3 km/h (4 Bft) W-SW 258 0 min 0,000 mm 0,0 UV-I 0 W/m 3,1 C -3,4 C 30,6 km/h (5 Bft) 97,87 %
25.12.2016 05:46 4,8 C 88 % 1027,4 hPa 0,0 l/m 21,9 km/h (4 Bft) W-SW 238 0 min 0,000 mm 0,0 UV-I 0 W/m 3,0 C -4,2 C 32,2 km/h (5 Bft) 97,87 %
25.12.2016 05:48 4,8 C 88 % 1027,4 hPa 0,0 l/m 22,5 km/h (4 Bft) W-SW 244 0 min 0,000 mm 0,0 UV-I 0 W/m 3,0 C -4,4 C 35,4 km/h (5 Bft) 100,00 %
25.12.2016 05:50 4,8 C 88 % 1027,4 hPa 0,0 l/m 21,0 km/h (4 Bft) W-SW 248 0 min 0,000 mm 0,0 UV-I 0 W/m 3,0 C -3,8 C 29,0 km/h (5 Bft) 97,87 %
25.12.2016 05:52 4,8 C 89 % 1027,4 hPa 0,0 l/m 23,4 km/h (4 Bft) W-SW 254 0 min 0,000 mm 0,0 UV-I 0 W/m 3,1 C -4,7 C 38,6 km/h (5 Bft) 97,87 %
25.12.2016 05:54 4,8 C 89 % 1027,4 hPa 0,0 l/m 23,2 km/h (4 Bft) W 262 0 min 0,000 mm 0,0 UV-I 0 W/m 3,1 C -4,6 C 38,6 km/h (5 Bft) 100,00 %
25.12.2016 05:56 4,8 C 89 % 1027,4 hPa 0,0 l/m 24,5 km/h (4 Bft) W-SW 258 0 min 0,000 mm 0,0 UV-I 0 W/m 3,1 C -5,1 C 33,8 km/h (5 Bft) 100,00 %
25.12.2016 05:58 4,8 C 89 % 1027,3 hPa 0,0 l/m 26,1 km/h (4 Bft) W-SW 252 0 min 0,000 mm 0,0 UV-I 0 W/m 3,1 C -5,6 C 38,6 km/h (5 Bft) 100,00 %
25.12.2016 06:00 4,8 C 89 % 1027,4 hPa 0,0 l/m 27,0 km/h (4 Bft) W 275 0 min 0,025 mm 0,0 UV-I 0 W/m 3,1 C -5,8 C 40,2 km/h (6 Bft) 100,00 %
25.12.2016 06:02 4,8 C 89 % 1027,4 hPa 0,0 l/m 27,1 km/h (4 Bft) W-SW 240 0 min 0,000 mm 0,0 UV-I 0 W/m 3,1 C -5,9 C 40,2 km/h (6 Bft) 94,74 %
25.12.2016 06:04 4,8 C 89 % 1027,4 hPa 0,0 l/m 22,3 km/h (4 Bft) W-SW 254 0 min 0,000 mm 0,0 UV-I 0 W/m 3,1 C -4,3 C 33,8 km/h (5 Bft) 100,00 %
25.12.2016 06:06 4,8 C 89 % 1027,5 hPa 0,0 l/m 27,4 km/h (4 Bft) W-SW 240 0 min 0,000 mm 0,0 UV-I 0 W/m 3,1 C -5,9 C 37,0 km/h (5 Bft) 97,87 %
25.12.2016 06:08 4,8 C 89 % 1027,4 hPa 0,0 l/m 25,5 km/h (4 Bft) W 271 0 min 0,000 mm 0,0 UV-I 0 W/m 3,1 C -5,4 C 37,0 km/h (5 Bft) 100,00 %
25.12.2016 06:10 4,8 C 89 % 1027,4 hPa 0,0 l/m 23,4 km/h (4 Bft) W 264 0 min 0,000 mm 0,0 UV-I 0 W/m 3,1 C -4,7 C 33,8 km/h (5 Bft) 100,00 %
25.12.2016 06:12 4,8 C 89 % 1027,5 hPa 0,2 l/m 25,0 km/h (4 Bft) W 261 0 min 0,000 mm 0,0 UV-I 0 W/m 3,1 C -5,2 C 33,8 km/h (5 Bft) 100,00 %
25.12.2016 06:14 4,8 C 89 % 1027,5 hPa 0,0 l/m 22,1 km/h (4 Bft) W-SW 241 0 min 0,000 mm 0,0 UV-I 0 W/m 3,1 C -4,2 C 33,8 km/h (5 Bft) 97,87 %
25.12.2016 06:16 4,7 C 90 % 1027,4 hPa 0,0 l/m 21,1 km/h (4 Bft) W 273 0 min 0,000 mm 0,0 UV-I 0 W/m 3,2 C -4,0 C 33,8 km/h (5 Bft) 100,00 %
25.12.2016 06:18 4,7 C 90 % 1027,3 hPa 0,0 l/m 19,3 km/h (3 Bft) W-SW 239 0 min 0,000 mm 0,0 UV-I 0 W/m 3,2 C -3,3 C 29,0 km/h (5 Bft) 97,87 %
25.12.2016 06:20 4,7 C 90 % 1027,4 hPa 0,2 l/m 21,9 km/h (4 Bft) W 263 0 min 0,000 mm 0,0 UV-I 0 W/m 3,2 C -4,3 C 38,6 km/h (5 Bft) 100,00 %
25.12.2016 06:22 4,7 C 90 % 1027,3 hPa 0,0 l/m 22,0 km/h (4 Bft) W 259 0 min 0,000 mm 0,0 UV-I 0 W/m 3,2 C -4,3 C 33,8 km/h (5 Bft) 100,00 %
25.12.2016 06:24 4,6 C 90 % 1027,4 hPa 0,0 l/m 22,9 km/h (4 Bft) SW 225 0 min 0,000 mm 0,0 UV-I 0 W/m 3,1 C -4,8 C 35,4 km/h (5 Bft) 93,62 %
25.12.2016 06:26 4,6 C 90 % 1027,4 hPa 0,0 l/m 20,4 km/h (4 Bft) W-SW 254 0 min 0,000 mm 0,0 UV-I 0 W/m 3,1 C -3,8 C 32,2 km/h (5 Bft) 100,00 %
25.12.2016 06:28 4,6 C 90 % 1027,4 hPa 0,0 l/m 25,6 km/h (4 Bft) W-SW 254 0 min 0,000 mm 0,0 UV-I 0 W/m 3,1 C -5,7 C 41,8 km/h (6 Bft) 100,00 %
25.12.2016 06:30 4,6 C 90 % 1027,4 hPa 0,0 l/m 23,1 km/h (4 Bft) W-SW 246 0 min 0,000 mm 0,0 UV-I 0 W/m 3,1 C -4,8 C 32,2 km/h (5 Bft) 95,83 %
25.12.2016 06:32 4,6 C 90 % 1027,5 hPa 0,0 l/m 21,0 km/h (4 Bft) W-SW 257 0 min 0,000 mm 0,0 UV-I 0 W/m 3,1 C -4,1 C 29,0 km/h (5 Bft) 97,87 %
25.12.2016 06:34 4,6 C 91 % 1027,4 hPa 0,0 l/m 19,6 km/h (3 Bft) W 268 0 min 0,000 mm 0,0 UV-I 0 W/m 3,3 C -3,5 C 24,1 km/h (4 Bft) 97,14 %
25.12.2016 06:36 4,6 C 91 % 1027,5 hPa 0,0 l/m 20,8 km/h (4 Bft) SW 216 0 min 0,000 mm 0,0 UV-I 0 W/m 3,3 C -4,0 C 29,0 km/h (5 Bft) 98,04 %
25.12.2016 06:38 4,6 C 91 % 1027,6 hPa 0,0 l/m 20,5 km/h (4 Bft) W-SW 245 0 min 0,000 mm 0,0 UV-I 0 W/m 3,3 C -3,9 C 29,0 km/h (5 Bft) 96,23 %
25.12.2016 06:40 4,6 C 90 % 1027,4 hPa 0,0 l/m 21,6 km/h (4 Bft) W 260 0 min 0,000 mm 0,0 UV-I 0 W/m 3,1 C -4,3 C 33,8 km/h (5 Bft) 97,37 %
25.12.2016 06:42 4,6 C 90 % 1027,3 hPa 0,0 l/m 24,8 km/h (4 Bft) SW 224 0 min 0,000 mm 0,0 UV-I 0 W/m 3,1 C -5,4 C 45,1 km/h (6 Bft) 95,74 %
25.12.2016 06:44 4,6 C 90 % 1027,3 hPa 0,0 l/m 26,8 km/h (4 Bft) W-SW 240 0 min 0,000 mm 0,0 UV-I 0 W/m 3,1 C -6,0 C 41,8 km/h (6 Bft) 93,62 %
25.12.2016 06:46 4,6 C 90 % 1027,3 hPa 0,2 l/m 22,5 km/h (4 Bft) W 263 0 min 0,000 mm 0,0 UV-I 0 W/m 3,1 C -4,6 C 38,6 km/h (5 Bft) 95,74 %
25.12.2016 06:48 4,7 C 90 % 1027,4 hPa 0,0 l/m 22,2 km/h (4 Bft) W-SW 238 0 min 0,000 mm 0,0 UV-I 0 W/m 3,2 C -4,4 C 32,2 km/h (5 Bft) 95,74 %
25.12.2016 06:50 4,7 C 90 % 1027,4 hPa 0,0 l/m 24,5 km/h (4 Bft) W-SW 238 0 min 0,000 mm 0,0 UV-I 0 W/m 3,2 C -5,2 C 37,0 km/h (5 Bft) 97,87 %
25.12.2016 06:52 4,7 C 89 % 1027,3 hPa 0,0 l/m 24,6 km/h (4 Bft) SW 228 0 min 0,000 mm 0,0 UV-I 0 W/m 3,0 C -5,2 C 37,0 km/h (5 Bft) 96,23 %
25.12.2016 06:54 4,7 C 89 % 1027,3 hPa 0,0 l/m 23,4 km/h (4 Bft) W 262 0 min 0,000 mm 0,0 UV-I 0 W/m 3,0 C -4,8 C 32,2 km/h (5 Bft) 97,96 %
25.12.2016 06:56 4,7 C 89 % 1027,3 hPa 0,0 l/m 24,8 km/h (4 Bft) W 260 0 min 0,000 mm 0,0 UV-I 0 W/m 3,0 C -5,3 C 38,6 km/h (5 Bft) 97,87 %
25.12.2016 06:58 4,7 C 89 % 1027,4 hPa 0,0 l/m 24,1 km/h (4 Bft) W-SW 248 0 min 0,000 mm 0,0 UV-I 0 W/m 3,0 C -5,1 C 33,8 km/h (5 Bft) 93,62 %
25.12.2016 07:00 4,7 C 89 % 1027,4 hPa 0,0 l/m 19,4 km/h (3 Bft) S-SW 209 0 min 0,026 mm 0,0 UV-I 0 W/m 3,0 C -3,3 C 27,4 km/h (4 Bft) 93,62 %
25.12.2016 07:02 4,7 C 89 % 1027,5 hPa 0,0 l/m 24,0 km/h (4 Bft) SW 221 0 min 0,000 mm 0,0 UV-I 0 W/m 3,0 C -5,0 C 35,4 km/h (5 Bft) 97,87 %
25.12.2016 07:04 4,7 C 89 % 1027,5 hPa 0,0 l/m 22,9 km/h (4 Bft) SW 235 0 min 0,000 mm 0,0 UV-I 0 W/m 3,0 C -4,6 C 33,8 km/h (5 Bft) 91,67 %
25.12.2016 07:06 4,8 C 89 % 1027,5 hPa 0,0 l/m 25,3 km/h (4 Bft) W-SW 245 0 min 0,000 mm 0,0 UV-I 0 W/m 3,1 C -5,3 C 40,2 km/h (6 Bft) 98,00 %
25.12.2016 07:08 4,8 C 89 % 1027,5 hPa 0,0 l/m 18,8 km/h (3 Bft) SW 227 0 min 0,000 mm 0,0 UV-I 0 W/m 3,1 C -2,9 C 27,4 km/h (4 Bft) 100,00 %
25.12.2016 07:10 4,8 C 89 % 1027,5 hPa 0,0 l/m 23,7 km/h (4 Bft) SW 225 0 min 0,000 mm 0,0 UV-I 0 W/m 3,1 C -4,8 C 38,6 km/h (5 Bft) 97,87 %
25.12.2016 07:12 4,8 C 89 % 1027,5 hPa 0,0 l/m 27,4 km/h (4 Bft) W-SW 240 0 min 0,000 mm 0,0 UV-I 0 W/m 3,1 C -5,9 C 46,7 km/h (6 Bft) 97,87 %
25.12.2016 07:14 4,8 C 89 % 1027,5 hPa 0,0 l/m 20,8 km/h (4 Bft) W 271 0 min 0,000 mm 0,0 UV-I 0 W/m 3,1 C -3,7 C 30,6 km/h (5 Bft) 97,96 %
25.12.2016 07:16 4,8 C 89 % 1027,5 hPa 0,2 l/m 28,8 km/h (4 Bft) W-SW 257 0 min 0,000 mm 0,0 UV-I 0 W/m 3,1 C -6,3 C 43,5 km/h (6 Bft) 97,87 %
25.12.2016 07:18 4,8 C 89 % 1027,6 hPa 0,0 l/m 20,7 km/h (4 Bft) W-SW 238 0 min 0,000 mm 0,0 UV-I 0 W/m 3,1 C -3,7 C 30,6 km/h (5 Bft) 100,00 %
25.12.2016 07:20 4,8 C 89 % 1027,6 hPa 0,0 l/m 23,0 km/h (4 Bft) SW 236 0 min 0,000 mm 0,0 UV-I 0 W/m 3,1 C -4,5 C 35,4 km/h (5 Bft) 100,00 %
25.12.2016 07:22 4,8 C 89 % 1027,7 hPa 0,0 l/m 20,4 km/h (4 Bft) SW 232 0 min 0,000 mm 0,0 UV-I 0 W/m 3,1 C -3,6 C 29,0 km/h (5 Bft) 97,87 %
25.12.2016 07:24 4,8 C 89 % 1027,7 hPa 0,0 l/m 19,8 km/h (3 Bft) SW 235 0 min 0,000 mm 0,0 UV-I 0 W/m 3,1 C -3,4 C 38,6 km/h (5 Bft) 100,00 %
25.12.2016 07:26 4,8 C 89 % 1027,7 hPa 0,0 l/m 20,8 km/h (4 Bft) SW 233 0 min 0,000 mm 0,0 UV-I 0 W/m 3,1 C -3,7 C 33,8 km/h (5 Bft) 100,00 %
25.12.2016 07:28 4,8 C 89 % 1027,7 hPa 0,0 l/m 20,0 km/h (4 Bft) W-SW 248 0 min 0,000 mm 0,0 UV-I 0 W/m 3,1 C -3,4 C 37,0 km/h (5 Bft) 97,87 %
25.12.2016 07:30 4,7 C 90 % 1027,6 hPa 0,0 l/m 21,6 km/h (4 Bft) W-SW 251 0 min 0,000 mm 0,0 UV-I 0 W/m 3,2 C -4,2 C 27,4 km/h (4 Bft) 100,00 %
25.12.2016 07:32 4,7 C 90 % 1027,6 hPa 0,0 l/m 22,4 km/h (4 Bft) W-SW 240 0 min 0,000 mm 0,0 UV-I 0 W/m 3,2 C -4,5 C 41,8 km/h (6 Bft) 100,00 %
25.12.2016 07:34 4,7 C 90 % 1027,7 hPa 0,0 l/m 20,3 km/h (4 Bft) S-SW 211 0 min 0,000 mm 0,0 UV-I 0 W/m 3,2 C -3,7 C 35,4 km/h (5 Bft) 100,00 %
25.12.2016 07:36 4,7 C 90 % 1027,7 hPa 0,0 l/m 22,0 km/h (4 Bft) W-SW 252 0 min 0,000 mm 0,0 UV-I 0 W/m 3,2 C -4,3 C 35,4 km/h (5 Bft) 97,56 %
25.12.2016 07:38 4,7 C 90 % 1027,7 hPa 0,0 l/m 18,8 km/h (3 Bft) SW 225 0 min 0,000 mm 0,0 UV-I 0 W/m 3,2 C -3,1 C 27,4 km/h (4 Bft) 100,00 %
25.12.2016 07:40 4,7 C 90 % 1027,7 hPa 0,0 l/m 24,2 km/h (4 Bft) SW 225 0 min 0,000 mm 0,0 UV-I 0 W/m 3,2 C -5,1 C 33,8 km/h (5 Bft) 100,00 %
25.12.2016 07:42 4,7 C 90 % 1027,8 hPa 0,0 l/m 20,8 km/h (4 Bft) W 265 0 min 0,000 mm 0,0 UV-I 0 W/m 3,2 C -3,9 C 32,2 km/h (5 Bft) 100,00 %
25.12.2016 07:44 4,7 C 90 % 1027,8 hPa 0,0 l/m 17,2 km/h (3 Bft) W-SW 242 0 min 0,000 mm 0,0 UV-I 0 W/m 3,2 C -2,4 C 32,2 km/h (5 Bft) 100,00 %
25.12.2016 07:46 4,7 C 90 % 1027,8 hPa 0,0 l/m 19,6 km/h (3 Bft) W 259 0 min 0,000 mm 0,0 UV-I 0 W/m 3,2 C -3,4 C 29,0 km/h (5 Bft) 100,00 %
25.12.2016 07:48 4,7 C 90 % 1027,8 hPa 0,0 l/m 20,5 km/h (4 Bft) SW 224 0 min 0,000 mm 0,0 UV-I 0 W/m 3,2 C -3,8 C 32,2 km/h (5 Bft) 97,87 %
25.12.2016 07:50 4,7 C 90 % 1027,8 hPa 0,2 l/m 21,2 km/h (4 Bft) W-SW 252 0 min 0,000 mm 0,0 UV-I 0 W/m 3,2 C -4,0 C 33,8 km/h (5 Bft) 100,00 %
25.12.2016 07:52 4,7 C 90 % 1027,7 hPa 0,0 l/m 21,6 km/h (4 Bft) W-SW 237 0 min 0,000 mm 0,0 UV-I 0 W/m 3,2 C -4,2 C 32,2 km/h (5 Bft) 100,00 %
25.12.2016 07:54 4,7 C 90 % 1027,7 hPa 0,0 l/m 24,8 km/h (4 Bft) W-SW 244 0 min 0,000 mm 0,0 UV-I 0 W/m 3,2 C -5,3 C 35,4 km/h (5 Bft) 95,74 %
25.12.2016 07:56 4,7 C 90 % 1027,6 hPa 0,0 l/m 23,0 km/h (4 Bft) SW 229 0 min 0,000 mm 0,0 UV-I 0 W/m 3,2 C -4,7 C 37,0 km/h (5 Bft) 100,00 %
25.12.2016 07:58 4,7 C 90 % 1027,7 hPa 0,0 l/m 22,1 km/h (4 Bft) W-SW 248 0 min 0,000 mm 0,0 UV-I 4 W/m 3,2 C -4,4 C 35,4 km/h (5 Bft) 97,87 %
25.12.2016 08:00 4,8 C 89 % 1027,5 hPa 0,0 l/m 26,3 km/h (4 Bft) W-SW 245 0 min 0,025 mm 0,0 UV-I 5 W/m 3,1 C -5,6 C 40,2 km/h (6 Bft) 100,00 %
25.12.2016 08:02 4,8 C 89 % 1027,7 hPa 0,0 l/m 22,0 km/h (4 Bft) SW 229 0 min 0,000 mm 0,0 UV-I 5 W/m 3,1 C -4,2 C 38,6 km/h (5 Bft) 100,00 %
25.12.2016 08:04 4,8 C 89 % 1027,7 hPa 0,0 l/m 27,1 km/h (4 Bft) W-SW 242 0 min 0,000 mm 0,0 UV-I 5 W/m 3,1 C -5,9 C 45,1 km/h (6 Bft) 100,00 %
25.12.2016 08:06 4,8 C 89 % 1027,6 hPa 0,0 l/m 27,2 km/h (4 Bft) W-SW 248 0 min 0,000 mm 0,0 UV-I 5 W/m 3,1 C -5,9 C 38,6 km/h (5 Bft) 97,87 %
25.12.2016 08:08 4,9 C 88 % 1027,6 hPa 0,0 l/m 27,0 km/h (4 Bft) W-SW 238 0 min 0,000 mm 0,0 UV-I 5 W/m 3,1 C -5,7 C 41,8 km/h (6 Bft) 100,00 %
25.12.2016 08:10 4,9 C 88 % 1027,5 hPa 0,0 l/m 25,1 km/h (4 Bft) W 264 0 min 0,000 mm 0,0 UV-I 7 W/m 3,1 C -5,1 C 35,4 km/h (5 Bft) 100,00 %
25.12.2016 08:12 4,9 C 88 % 1027,6 hPa 0,0 l/m 23,3 km/h (4 Bft) S-SW 209 0 min 0,000 mm 0,0 UV-I 7 W/m 3,1 C -4,5 C 33,8 km/h (5 Bft) 100,00 %
25.12.2016 08:14 4,9 C 88 % 1027,6 hPa 0,0 l/m 21,4 km/h (4 Bft) W-SW 254 0 min 0,000 mm 0,0 UV-I 7 W/m 3,1 C -3,8 C 32,2 km/h (5 Bft) 98,00 %
25.12.2016 08:16 5,0 C 87 % 1027,7 hPa 0,0 l/m 21,5 km/h (4 Bft) W-SW 237 0 min 0,000 mm 0,0 UV-I 7 W/m 3,0 C -3,7 C 29,0 km/h (5 Bft) 100,00 %
25.12.2016 08:18 4,9 C 87 % 1027,6 hPa 0,0 l/m 16,8 km/h (3 Bft) SW 231 0 min 0,000 mm 0,0 UV-I 7 W/m 2,9 C -1,9 C 27,4 km/h (4 Bft) 100,00 %
25.12.2016 08:20 5,0 C 87 % 1027,6 hPa 0,0 l/m 21,3 km/h (4 Bft) W-SW 251 0 min 0,000 mm 0,0 UV-I 7 W/m 3,0 C -3,7 C 30,6 km/h (5 Bft) 97,87 %
25.12.2016 08:22 5,0 C 87 % 1027,6 hPa 0,0 l/m 21,7 km/h (4 Bft) W 263 0 min 0,000 mm 0,0 UV-I 7 W/m 3,0 C -3,8 C 37,0 km/h (5 Bft) 98,11 %
25.12.2016 08:24 5,0 C 87 % 1027,5 hPa 0,0 l/m 18,5 km/h (3 Bft) W-SW 257 0 min 0,000 mm 0,0 UV-I 7 W/m 3,0 C -2,6 C 27,4 km/h (4 Bft) 100,00 %
25.12.2016 08:26 5,0 C 87 % 1027,5 hPa 0,0 l/m 21,5 km/h (4 Bft) W 264 0 min 0,000 mm 0,0 UV-I 9 W/m 3,0 C -3,7 C 32,2 km/h (5 Bft) 100,00 %
25.12.2016 08:28 5,0 C 87 % 1027,5 hPa 0,0 l/m 21,9 km/h (4 Bft) W 262 0 min 0,000 mm 0,0 UV-I 9 W/m 3,0 C -3,9 C 33,8 km/h (5 Bft) 97,87 %
25.12.2016 08:30 5,1 C 87 % 1027,5 hPa 0,0 l/m 21,0 km/h (4 Bft) W 265 0 min 0,000 mm 0,0 UV-I 11 W/m 3,1 C -3,4 C 32,2 km/h (5 Bft) 97,87 %
25.12.2016 08:32 5,1 C 87 % 1027,6 hPa 0,0 l/m 16,9 km/h (3 Bft) W-SW 247 0 min 0,000 mm 0,0 UV-I 11 W/m 3,1 C -1,7 C 24,1 km/h (4 Bft) 100,00 %
25.12.2016 08:34 5,1 C 87 % 1027,6 hPa 0,0 l/m 18,4 km/h (3 Bft) W-SW 241 0 min 0,000 mm 0,0 UV-I 11 W/m 3,1 C -2,4 C 32,2 km/h (5 Bft) 100,00 %
25.12.2016 08:36 5,1 C 87 % 1027,7 hPa 0,0 l/m 18,4 km/h (3 Bft) SW 221 0 min 0,000 mm 0,0 UV-I 11 W/m 3,1 C -2,4 C 27,4 km/h (4 Bft) 98,00 %
25.12.2016 08:38 5,1 C 88 % 1027,8 hPa 0,0 l/m 20,0 km/h (4 Bft) SW 227 0 min 0,000 mm 0,0 UV-I 11 W/m 3,3 C -3,0 C 33,8 km/h (5 Bft) 100,00 %
25.12.2016 08:40 5,1 C 87 % 1027,8 hPa 0,0 l/m 19,2 km/h (3 Bft) SW 226 0 min 0,000 mm 0,0 UV-I 11 W/m 3,1 C -2,7 C 37,0 km/h (5 Bft) 100,00 %
25.12.2016 08:42 5,1 C 87 % 1027,9 hPa 0,0 l/m 19,2 km/h (3 Bft) SW 225 0 min 0,000 mm 0,0 UV-I 12 W/m 3,1 C -2,7 C 32,2 km/h (5 Bft) 97,87 %
25.12.2016 08:44 5,1 C 88 % 1027,8 hPa 0,0 l/m 21,5 km/h (4 Bft) W-SW 247 0 min 0,000 mm 0,0 UV-I 12 W/m 3,3 C -3,6 C 30,6 km/h (5 Bft) 98,00 %
25.12.2016 08:46 5,1 C 87 % 1027,9 hPa 0,0 l/m 18,6 km/h (3 Bft) SW 219 0 min 0,000 mm 0,0 UV-I 12 W/m 3,1 C -2,5 C 27,4 km/h (4 Bft) 97,87 %
25.12.2016 08:48 5,1 C 88 % 1027,8 hPa 0,0 l/m 16,7 km/h (3 Bft) W-SW 244 0 min 0,000 mm 0,0 UV-I 12 W/m 3,3 C -1,6 C 24,1 km/h (4 Bft) 97,87 %
25.12.2016 08:50 5,1 C 88 % 1027,9 hPa 0,0 l/m 21,7 km/h (4 Bft) W-SW 244 0 min 0,000 mm 0,0 UV-I 14 W/m 3,3 C -3,7 C 33,8 km/h (5 Bft) 95,45 %
25.12.2016 08:52 5,1 C 88 % 1027,8 hPa 0,0 l/m 16,1 km/h (3 Bft) SW 236 0 min 0,000 mm 0,0 UV-I 14 W/m 3,3 C -1,3 C 25,7 km/h (4 Bft) 97,87 %
25.12.2016 08:54 5,1 C 88 % 1027,9 hPa 0,0 l/m 17,3 km/h (3 Bft) W-SW 249 0 min 0,000 mm 0,0 UV-I 14 W/m 3,3 C -1,9 C 25,7 km/h (4 Bft) 97,87 %
25.12.2016 08:56 5,1 C 88 % 1027,9 hPa 0,0 l/m 14,9 km/h (3 Bft) SW 234 0 min 0,000 mm 0,0 UV-I 16 W/m 3,3 C -0,8 C 22,5 km/h (4 Bft) 95,74 %
25.12.2016 08:58 5,1 C 88 % 1028,0 hPa 0,0 l/m 16,0 km/h (3 Bft) SW 231 0 min 0,000 mm 0,0 UV-I 16 W/m 3,3 C -1,3 C 22,5 km/h (4 Bft) 97,87 %
25.12.2016 09:00 5,1 C 88 % 1028,0 hPa 0,0 l/m 14,6 km/h (3 Bft) W-SW 247 0 min 0,025 mm 0,0 UV-I 15 W/m 3,3 C -0,6 C 24,1 km/h (4 Bft) 95,74 %
25.12.2016 09:02 5,1 C 88 % 1028,0 hPa 0,0 l/m 18,0 km/h (3 Bft) W-SW 257 0 min 0,000 mm 0,0 UV-I 14 W/m 3,3 C -2,2 C 27,4 km/h (4 Bft) 93,62 %
25.12.2016 09:04 5,2 C 87 % 1028,0 hPa 0,0 l/m 17,3 km/h (3 Bft) SW 235 0 min 0,000 mm 0,0 UV-I 16 W/m 3,2 C -1,8 C 24,1 km/h (4 Bft) 100,00 %
25.12.2016 09:06 5,2 C 87 % 1028,0 hPa 0,0 l/m 14,7 km/h (3 Bft) W-SW 240 0 min 0,000 mm 0,0 UV-I 18 W/m 3,2 C -0,5 C 19,3 km/h (3 Bft) 95,74 %
25.12.2016 09:08 5,2 C 87 % 1028,0 hPa 0,0 l/m 18,0 km/h (3 Bft) W-SW 248 0 min 0,000 mm 0,0 UV-I 18 W/m 3,2 C -2,1 C 24,1 km/h (4 Bft) 95,74 %
25.12.2016 09:10 5,2 C 87 % 1027,9 hPa 0,0 l/m 19,4 km/h (3 Bft) SW 222 0 min 0,000 mm 0,0 UV-I 18 W/m 3,2 C -2,7 C 27,4 km/h (4 Bft) 97,87 %
25.12.2016 09:12 5,3 C 87 % 1028,0 hPa 0,0 l/m 20,5 km/h (4 Bft) SW 229 0 min 0,000 mm 0,0 UV-I 18 W/m 3,3 C -3,0 C 27,4 km/h (4 Bft) 97,87 %
25.12.2016 09:14 5,3 C 87 % 1028,0 hPa 0,0 l/m 16,6 km/h (3 Bft) SW 236 0 min 0,000 mm 0,0 UV-I 18 W/m 3,3 C -1,3 C 25,7 km/h (4 Bft) 95,74 %
25.12.2016 09:16 5,3 C 87 % 1027,9 hPa 0,0 l/m 20,3 km/h (4 Bft) SW 219 0 min 0,000 mm 0,0 UV-I 19 W/m 3,3 C -2,9 C 29,0 km/h (5 Bft) 93,62 %
25.12.2016 09:18 5,3 C 87 % 1027,8 hPa 0,0 l/m 19,0 km/h (3 Bft) SW 234 0 min 0,000 mm 0,0 UV-I 19 W/m 3,3 C -2,4 C 24,1 km/h (4 Bft) 98,11 %
25.12.2016 09:20 5,3 C 87 % 1027,8 hPa 0,0 l/m 16,4 km/h (3 Bft) S-SW 199 0 min 0,000 mm 0,0 UV-I 18 W/m 3,3 C -1,2 C 24,1 km/h (4 Bft) 95,74 %
25.12.2016 09:22 5,3 C 87 % 1027,8 hPa 0,0 l/m 16,0 km/h (3 Bft) SW 232 0 min 0,000 mm 0,0 UV-I 18 W/m 3,3 C -1,1 C 24,1 km/h (4 Bft) 97,87 %
25.12.2016 09:24 5,3 C 88 % 1027,8 hPa 0,0 l/m 17,5 km/h (3 Bft) SW 221 0 min 0,000 mm 0,0 UV-I 19 W/m 3,5 C -1,7 C 32,2 km/h (5 Bft) 98,00 %
25.12.2016 09:26 5,3 C 88 % 1027,9 hPa 0,0 l/m 18,2 km/h (3 Bft) SW 223 0 min 0,000 mm 0,0 UV-I 19 W/m 3,5 C -2,0 C 24,1 km/h (4 Bft) 95,74 %
25.12.2016 09:28 5,3 C 88 % 1027,8 hPa 0,0 l/m 16,4 km/h (3 Bft) SW 223 0 min 0,000 mm 0,0 UV-I 21 W/m 3,5 C -1,2 C 22,5 km/h (4 Bft) 100,00 %
25.12.2016 09:30 5,3 C 88 % 1027,8 hPa 0,0 l/m 15,8 km/h (3 Bft) SW 215 0 min 0,000 mm 0,0 UV-I 24 W/m 3,5 C -1,0 C 25,7 km/h (4 Bft) 100,00 %
25.12.2016 09:32 5,3 C 88 % 1027,7 hPa 0,0 l/m 17,3 km/h (3 Bft) SW 226 0 min 0,000 mm 0,0 UV-I 26 W/m 3,5 C -1,7 C 29,0 km/h (5 Bft) 100,00 %
25.12.2016 09:34 5,3 C 88 % 1027,7 hPa 0,0 l/m 18,7 km/h (3 Bft) W-SW 246 0 min 0,000 mm 0,0 UV-I 26 W/m 3,5 C -2,3 C 30,6 km/h (5 Bft) 98,00 %
25.12.2016 09:36 5,3 C 88 % 1027,7 hPa 0,0 l/m 15,9 km/h (3 Bft) W-SW 237 0 min 0,000 mm 0,0 UV-I 27 W/m 3,5 C -1,0 C 24,1 km/h (4 Bft) 100,00 %
25.12.2016 09:38 5,3 C 88 % 1027,7 hPa 0,0 l/m 19,0 km/h (3 Bft) SW 223 0 min 0,000 mm 0,0 UV-I 28 W/m 3,5 C -2,4 C 27,4 km/h (4 Bft) 100,00 %
25.12.2016 09:40 5,3 C 88 % 1027,6 hPa 0,0 l/m 17,9 km/h (3 Bft) SW 218 0 min 0,000 mm 0,0 UV-I 28 W/m 3,5 C -1,9 C 24,1 km/h (4 Bft) 100,00 %
25.12.2016 09:42 5,3 C 88 % 1027,7 hPa 0,0 l/m 23,5 km/h (4 Bft) W-SW 246 0 min 0,000 mm 0,0 UV-I 28 W/m 3,5 C -4,1 C 35,4 km/h (5 Bft) 100,00 %
25.12.2016 09:44 5,4 C 88 % 1027,8 hPa 0,0 l/m 19,7 km/h (3 Bft) SW 232 0 min 0,000 mm 0,0 UV-I 27 W/m 3,6 C -2,5 C 32,2 km/h (5 Bft) 100,00 %
25.12.2016 09:46 5,4 C 88 % 1027,8 hPa 0,0 l/m 19,6 km/h (3 Bft) SW 225 0 min 0,000 mm 0,0 UV-I 26 W/m 3,6 C -2,5 C 29,0 km/h (5 Bft) 97,87 %
25.12.2016 09:48 5,5 C 88 % 1027,8 hPa 0,0 l/m 20,3 km/h (4 Bft) SW 231 0 min 0,000 mm 0,0 UV-I 28 W/m 3,7 C -2,6 C 30,6 km/h (5 Bft) 97,92 %
25.12.2016 09:50 5,5 C 88 % 1027,8 hPa 0,0 l/m 17,4 km/h (3 Bft) SW 236 0 min 0,000 mm 0,0 UV-I 28 W/m 3,7 C -1,4 C 30,6 km/h (5 Bft) 97,87 %
25.12.2016 09:52 5,6 C 87 % 1027,8 hPa 0,0 l/m 18,4 km/h (3 Bft) SW 234 0 min 0,000 mm 0,0 UV-I 28 W/m 3,6 C -1,8 C 24,1 km/h (4 Bft) 100,00 %
25.12.2016 09:54 5,6 C 87 % 1027,8 hPa 0,0 l/m 21,2 km/h (4 Bft) SW 220 0 min 0,000 mm 0,0 UV-I 29 W/m 3,6 C -2,8 C 29,0 km/h (5 Bft) 100,00 %
25.12.2016 09:56 5,6 C 87 % 1027,8 hPa 0,0 l/m 21,3 km/h (4 Bft) SW 234 0 min 0,000 mm 0,0 UV-I 28 W/m 3,6 C -2,9 C 35,4 km/h (5 Bft) 94,74 %
25.12.2016 09:58 5,6 C 87 % 1027,8 hPa 0,0 l/m 19,6 km/h (3 Bft) S-SW 212 0 min 0,000 mm 0,0 UV-I 26 W/m 3,6 C -2,2 C 33,8 km/h (5 Bft) 100,00 %
25.12.2016 10:00 5,7 C 87 % 1027,9 hPa 0,0 l/m 21,7 km/h (4 Bft) W-SW 245 0 min 0,026 mm 0,0 UV-I 25 W/m 3,7 C -2,9 C 29,0 km/h (5 Bft) 100,00 %
25.12.2016 10:02 5,7 C 87 % 1027,9 hPa 0,0 l/m 22,7 km/h (4 Bft) SW 233 0 min 0,000 mm 0,0 UV-I 24 W/m 3,7 C -3,2 C 32,2 km/h (5 Bft) 96,00 %
25.12.2016 10:04 5,7 C 87 % 1027,9 hPa 0,0 l/m 16,8 km/h (3 Bft) S-SW 196 0 min 0,000 mm 0,0 UV-I 23 W/m 3,7 C -0,9 C 25,7 km/h (4 Bft) 100,00 %
25.12.2016 10:06 5,7 C 87 % 1027,9 hPa 0,0 l/m 19,4 km/h (3 Bft) SW 216 0 min 0,000 mm 0,0 UV-I 23 W/m 3,7 C -2,0 C 30,6 km/h (5 Bft) 100,00 %
25.12.2016 10:08 5,8 C 87 % 1028,0 hPa 0,0 l/m 15,7 km/h (3 Bft) W 259 0 min 0,000 mm 0,0 UV-I 25 W/m 3,8 C -0,3 C 24,1 km/h (4 Bft) 95,74 %
25.12.2016 10:10 5,8 C 87 % 1028,0 hPa 0,0 l/m 18,4 km/h (3 Bft) W-SW 241 0 min 0,000 mm 0,0 UV-I 25 W/m 3,8 C -1,5 C 25,7 km/h (4 Bft) 100,00 %
25.12.2016 10:12 5,8 C 87 % 1028,1 hPa 0,0 l/m 16,5 km/h (3 Bft) W-SW 253 0 min 0,000 mm 0,0 UV-I 25 W/m 3,8 C -0,7 C 22,5 km/h (4 Bft) 100,00 %
25.12.2016 10:14 5,8 C 87 % 1028,1 hPa 0,0 l/m 14,6 km/h (3 Bft) W-SW 252 0 min 0,000 mm 0,0 UV-I 26 W/m 3,8 C 0,2 C 25,7 km/h (4 Bft) 100,00 %
25.12.2016 10:16 5,8 C 87 % 1028,0 hPa 0,0 l/m 18,0 km/h (3 Bft) SW 217 0 min 0,000 mm 0,0 UV-I 28 W/m 3,8 C -1,3 C 29,0 km/h (5 Bft) 100,00 %
25.12.2016 10:18 5,8 C 87 % 1028,0 hPa 0,0 l/m 16,5 km/h (3 Bft) S-SW 213 0 min 0,000 mm 0,0 UV-I 30 W/m 3,8 C -0,7 C 24,1 km/h (4 Bft) 100,00 %
25.12.2016 10:20 5,9 C 86 % 1028,0 hPa 0,0 l/m 15,5 km/h (3 Bft) W-SW 248 0 min 0,000 mm 0,0 UV-I 30 W/m 3,7 C -0,1 C 24,1 km/h (4 Bft) 97,92 %
25.12.2016 10:22 5,9 C 86 % 1028,0 hPa 0,0 l/m 18,8 km/h (3 Bft) W-SW 248 0 min 0,000 mm 0,0 UV-I 30 W/m 3,7 C -1,5 C 24,1 km/h (4 Bft) 100,00 %
25.12.2016 10:24 5,9 C 87 % 1027,9 hPa 0,0 l/m 15,7 km/h (3 Bft) W-SW 256 0 min 0,000 mm 0,0 UV-I 33 W/m 3,9 C -0,2 C 25,7 km/h (4 Bft) 100,00 %
25.12.2016 10:26 5,9 C 86 % 1027,9 hPa 0,0 l/m 16,6 km/h (3 Bft) SW 232 0 min 0,000 mm 0,0 UV-I 35 W/m 3,7 C -0,6 C 27,4 km/h (4 Bft) 100,00 %
25.12.2016 10:28 5,9 C 87 % 1027,9 hPa 0,0 l/m 18,2 km/h (3 Bft) W-SW 257 0 min 0,000 mm 0,0 UV-I 36 W/m 3,9 C -1,3 C 30,6 km/h (5 Bft) 97,96 %
25.12.2016 10:30 5,9 C 86 % 1027,8 hPa 0,0 l/m 18,7 km/h (3 Bft) W-SW 246 0 min 0,000 mm 0,0 UV-I 39 W/m 3,7 C -1,5 C 30,6 km/h (5 Bft) 97,92 %
25.12.2016 10:32 6,0 C 86 % 1027,8 hPa 0,0 l/m 19,9 km/h (4 Bft) W-SW 241 0 min 0,000 mm 0,0 UV-I 39 W/m 3,8 C -1,8 C 29,0 km/h (5 Bft) 97,87 %
25.12.2016 10:34 6,1 C 86 % 1027,8 hPa 0,0 l/m 19,1 km/h (3 Bft) W 259 0 min 0,000 mm 0,0 UV-I 38 W/m 3,9 C -1,4 C 27,4 km/h (4 Bft) 100,00 %
25.12.2016 10:36 6,1 C 86 % 1027,7 hPa 0,0 l/m 16,0 km/h (3 Bft) W 271 0 min 0,000 mm 0,0 UV-I 37 W/m 3,9 C -0,1 C 22,5 km/h (4 Bft) 97,87 %
25.12.2016 10:38 6,1 C 86 % 1027,7 hPa 0,0 l/m 15,0 km/h (3 Bft) SW 233 0 min 0,000 mm 0,0 UV-I 39 W/m 3,9 C 0,4 C 19,3 km/h (3 Bft) 100,00 %
25.12.2016 10:40 6,1 C 86 % 1027,6 hPa 0,0 l/m 16,1 km/h (3 Bft) W 261 0 min 0,000 mm 0,0 UV-I 40 W/m 3,9 C -0,1 C 22,5 km/h (4 Bft) 95,83 %
25.12.2016 10:42 6,1 C 86 % 1027,5 hPa 0,0 l/m 16,4 km/h (3 Bft) SW 221 0 min 0,000 mm 0,0 UV-I 42 W/m 3,9 C -0,3 C 25,7 km/h (4 Bft) 100,00 %
25.12.2016 10:44 6,1 C 86 % 1027,5 hPa 0,0 l/m 14,9 km/h (3 Bft) W-SW 238 0 min 0,000 mm 0,0 UV-I 42 W/m 3,9 C 0,5 C 22,5 km/h (4 Bft) 100,00 %
25.12.2016 10:46 6,2 C 86 % 1027,6 hPa 0,0 l/m 16,1 km/h (3 Bft) W-SW 246 0 min 0,000 mm 0,0 UV-I 44 W/m 4,0 C 0,0 C 24,1 km/h (4 Bft) 97,87 %
25.12.2016 10:48 6,1 C 86 % 1027,6 hPa 0,0 l/m 15,7 km/h (3 Bft) SW 227 0 min 0,000 mm 0,0 UV-I 48 W/m 3,9 C 0,1 C 22,5 km/h (4 Bft) 97,96 %
25.12.2016 10:50 6,2 C 86 % 1027,5 hPa 0,0 l/m 19,0 km/h (3 Bft) SW 234 0 min 0,000 mm 0,0 UV-I 52 W/m 4,0 C -1,2 C 25,7 km/h (4 Bft) 100,00 %
25.12.2016 10:52 6,2 C 86 % 1027,5 hPa 0,0 l/m 17,9 km/h (3 Bft) SW 222 0 min 0,000 mm 0,0 UV-I 54 W/m 4,0 C -0,8 C 25,7 km/h (4 Bft) 100,00 %
25.12.2016 10:54 6,2 C 86 % 1027,6 hPa 0,0 l/m 16,3 km/h (3 Bft) SW 221 0 min 0,000 mm 0,0 UV-I 56 W/m 4,0 C -0,1 C 29,0 km/h (5 Bft) 97,87 %
25.12.2016 10:56 6,3 C 86 % 1027,5 hPa 0,0 l/m 14,5 km/h (3 Bft) W-SW 240 0 min 0,000 mm 0,0 UV-I 54 W/m 4,1 C 0,9 C 24,1 km/h (4 Bft) 100,00 %
25.12.2016 10:58 6,3 C 86 % 1027,5 hPa 0,0 l/m 15,0 km/h (3 Bft) SW 234 0 min 0,000 mm 0,0 UV-I 56 W/m 4,1 C 0,7 C 25,7 km/h (4 Bft) 94,59 %
25.12.2016 11:00 6,3 C 86 % 1027,5 hPa 0,0 l/m 16,5 km/h (3 Bft) W-SW 257 0 min 0,025 mm 0,0 UV-I 55 W/m 4,1 C -0,1 C 27,4 km/h (4 Bft) 93,62 %
25.12.2016 11:02 6,3 C 85 % 1027,6 hPa 0,0 l/m 17,7 km/h (3 Bft) SW 223 0 min 0,000 mm 0,0 UV-I 53 W/m 4,0 C -0,6 C 29,0 km/h (5 Bft) 95,83 %
25.12.2016 11:04 6,4 C 85 % 1027,5 hPa 0,0 l/m 18,4 km/h (3 Bft) W-SW 253 0 min 0,000 mm 0,0 UV-I 53 W/m 4,1 C -0,7 C 30,6 km/h (5 Bft) 97,87 %
25.12.2016 11:06 6,4 C 85 % 1027,6 hPa 0,0 l/m 19,1 km/h (3 Bft) W-SW 255 0 min 0,000 mm 0,0 UV-I 54 W/m 4,1 C -1,0 C 30,6 km/h (5 Bft) 93,62 %
25.12.2016 11:08 6,5 C 85 % 1027,5 hPa 0,0 l/m 20,2 km/h (4 Bft) W 266 0 min 0,000 mm 0,0 UV-I 54 W/m 4,2 C -1,3 C 30,6 km/h (5 Bft) 97,96 %
25.12.2016 11:10 6,5 C 85 % 1027,6 hPa 0,0 l/m 16,4 km/h (3 Bft) SW 231 0 min 0,000 mm 0,0 UV-I 55 W/m 4,2 C 0,2 C 22,5 km/h (4 Bft) 97,87 %
25.12.2016 11:12 6,6 C 84 % 1027,5 hPa 0,0 l/m 20,5 km/h (4 Bft) W-SW 247 0 min 0,000 mm 0,0 UV-I 54 W/m 4,1 C -1,3 C 29,0 km/h (5 Bft) 97,87 %
25.12.2016 11:14 6,6 C 84 % 1027,5 hPa 0,0 l/m 18,6 km/h (3 Bft) SW 229 0 min 0,000 mm 0,0 UV-I 54 W/m 4,1 C -0,6 C 24,1 km/h (4 Bft) 95,74 %
25.12.2016 11:16 6,6 C 84 % 1027,4 hPa 0,0 l/m 17,1 km/h (3 Bft) W-SW 247 0 min 0,000 mm 0,0 UV-I 56 W/m 4,1 C 0,1 C 24,1 km/h (4 Bft) 98,00 %
25.12.2016 11:18 6,7 C 84 % 1027,3 hPa 0,0 l/m 18,5 km/h (3 Bft) W-SW 239 0 min 0,000 mm 0,0 UV-I 55 W/m 4,2 C -0,4 C 29,0 km/h (5 Bft) 93,62 %
25.12.2016 11:20 6,7 C 84 % 1027,4 hPa 0,0 l/m 21,3 km/h (4 Bft) SW 232 0 min 0,000 mm 0,0 UV-I 54 W/m 4,2 C -1,4 C 27,4 km/h (4 Bft) 95,74 %
25.12.2016 11:22 6,7 C 84 % 1027,3 hPa 0,0 l/m 16,7 km/h (3 Bft) SW 215 0 min 0,000 mm 0,0 UV-I 54 W/m 4,2 C 0,4 C 27,4 km/h (4 Bft) 93,62 %
25.12.2016 11:24 6,7 C 83 % 1027,2 hPa 0,0 l/m 17,4 km/h (3 Bft) SW 222 0 min 0,000 mm 0,0 UV-I 57 W/m 4,0 C 0,1 C 22,5 km/h (4 Bft) 97,87 %
25.12.2016 11:26 6,8 C 83 % 1027,2 hPa 0,0 l/m 18,3 km/h (3 Bft) S-SW 201 0 min 0,000 mm 0,0 UV-I 60 W/m 4,1 C -0,2 C 25,7 km/h (4 Bft) 97,87 %
25.12.2016 11:28 6,8 C 83 % 1027,1 hPa 0,0 l/m 18,4 km/h (3 Bft) W-SW 237 0 min 0,000 mm 0,0 UV-I 58 W/m 4,1 C -0,2 C 30,6 km/h (5 Bft) 97,87 %
25.12.2016 11:30 6,8 C 83 % 1027,1 hPa 0,0 l/m 19,2 km/h (3 Bft) S-SW 207 0 min 0,000 mm 0,0 UV-I 59 W/m 4,1 C -0,5 C 30,6 km/h (5 Bft) 95,74 %
25.12.2016 11:32 6,8 C 83 % 1027,2 hPa 0,0 l/m 21,2 km/h (4 Bft) W-SW 241 0 min 0,000 mm 0,0 UV-I 58 W/m 4,1 C -1,3 C 33,8 km/h (5 Bft) 94,74 %
25.12.2016 11:34 6,9 C 83 % 1027,1 hPa 0,0 l/m 22,5 km/h (4 Bft) W 264 0 min 0,000 mm 0,0 UV-I 56 W/m 4,2 C -1,6 C 37,0 km/h (5 Bft) 100,00 %
25.12.2016 11:36 6,9 C 82 % 1027,1 hPa 0,0 l/m 19,9 km/h (4 Bft) W-SW 242 0 min 0,000 mm 0,0 UV-I 56 W/m 4,0 C -0,7 C 27,4 km/h (4 Bft) 100,00 %
25.12.2016 11:38 6,9 C 82 % 1027,1 hPa 0,0 l/m 18,2 km/h (3 Bft) W-SW 246 0 min 0,000 mm 0,0 UV-I 56 W/m 4,0 C -0,0 C 27,4 km/h (4 Bft) 97,87 %
25.12.2016 11:40 6,9 C 82 % 1027,0 hPa 0,0 l/m 17,8 km/h (3 Bft) W-SW 255 0 min 0,000 mm 0,0 UV-I 57 W/m 4,0 C 0,1 C 29,0 km/h (5 Bft) 97,92 %
25.12.2016 11:42 7,0 C 82 % 1027,1 hPa 0,0 l/m 18,5 km/h (3 Bft) SW 222 0 min 0,000 mm 0,0 UV-I 57 W/m 4,1 C -0,0 C 27,4 km/h (4 Bft) 95,74 %
25.12.2016 11:44 7,0 C 82 % 1027,0 hPa 0,0 l/m 20,2 km/h (4 Bft) SW 232 0 min 0,000 mm 0,0 UV-I 50 W/m 4,1 C -0,7 C 27,4 km/h (4 Bft) 100,00 %
25.12.2016 11:46 7,1 C 81 % 1027,1 hPa 0,0 l/m 15,7 km/h (3 Bft) W-SW 255 0 min 0,000 mm 0,0 UV-I 42 W/m 4,1 C 1,3 C 22,5 km/h (4 Bft) 100,00 %
25.12.2016 11:48 7,1 C 81 % 1027,1 hPa 0,0 l/m 17,6 km/h (3 Bft) W-SW 252 0 min 0,000 mm 0,0 UV-I 47 W/m 4,1 C 0,5 C 22,5 km/h (4 Bft) 97,87 %
25.12.2016 11:50 7,1 C 81 % 1027,0 hPa 0,0 l/m 19,2 km/h (3 Bft) W 264 0 min 0,000 mm 0,0 UV-I 46 W/m 4,1 C -0,2 C 33,8 km/h (5 Bft) 97,87 %
25.12.2016 11:52 7,1 C 81 % 1027,0 hPa 0,0 l/m 20,4 km/h (4 Bft) W-SW 246 0 min 0,000 mm 0,0 UV-I 42 W/m 4,1 C -0,6 C 33,8 km/h (5 Bft) 97,87 %
25.12.2016 11:54 7,1 C 81 % 1026,9 hPa 0,0 l/m 20,7 km/h (4 Bft) W 269 0 min 0,000 mm 0,0 UV-I 40 W/m 4,1 C -0,7 C 30,6 km/h (5 Bft) 100,00 %
25.12.2016 11:56 7,1 C 81 % 1026,9 hPa 0,0 l/m 19,3 km/h (3 Bft) SW 235 0 min 0,000 mm 0,0 UV-I 41 W/m 4,1 C -0,2 C 27,4 km/h (4 Bft) 100,00 %
25.12.2016 11:58 7,1 C 80 % 1027,0 hPa 0,0 l/m 15,6 km/h (3 Bft) W 260 0 min 0,000 mm 0,0 UV-I 40 W/m 3,9 C 1,3 C 22,5 km/h (4 Bft) 100,00 %
25.12.2016 12:00 7,1 C 80 % 1027,0 hPa 0,0 l/m 18,6 km/h (3 Bft) W-SW 248 0 min 0,000 mm 0,0 UV-I 40 W/m 3,9 C 0,1 C 25,7 km/h (4 Bft) 100,00 %
25.12.2016 12:02 7,2 C 80 % 1027,0 hPa 0,0 l/m 23,3 km/h (4 Bft) SW 229 0 min 0,051 mm 0,0 UV-I 43 W/m 4,0 C -1,4 C 33,8 km/h (5 Bft) 98,00 %
25.12.2016 12:04 7,2 C 80 % 1026,9 hPa 0,0 l/m 16,4 km/h (3 Bft) S-SW 202 0 min 0,000 mm 0,0 UV-I 47 W/m 4,0 C 1,1 C 25,7 km/h (4 Bft) 95,74 %
25.12.2016 12:06 7,2 C 80 % 1026,9 hPa 0,0 l/m 17,5 km/h (3 Bft) W 268 0 min 0,000 mm 0,0 UV-I 42 W/m 4,0 C 0,6 C 25,7 km/h (4 Bft) 100,00 %
25.12.2016 12:08 7,2 C 80 % 1026,9 hPa 0,0 l/m 17,1 km/h (3 Bft) W 263 0 min 0,000 mm 0,0 UV-I 41 W/m 4,0 C 0,8 C 25,7 km/h (4 Bft) 97,87 %
25.12.2016 12:10 7,2 C 80 % 1026,9 hPa 0,0 l/m 15,9 km/h (3 Bft) W-SW 249 0 min 0,000 mm 0,0 UV-I 43 W/m 4,0 C 1,3 C 27,4 km/h (4 Bft) 100,00 %
25.12.2016 12:12 7,2 C 80 % 1026,9 hPa 0,0 l/m 21,2 km/h (4 Bft) W-SW 257 0 min 0,000 mm 0,0 UV-I 45 W/m 4,0 C -0,8 C 37,0 km/h (5 Bft) 100,00 %
25.12.2016 12:14 7,2 C 79 % 1026,9 hPa 0,0 l/m 21,7 km/h (4 Bft) W-SW 240 0 min 0,000 mm 0,0 UV-I 47 W/m 3,8 C -0,9 C 29,0 km/h (5 Bft) 100,00 %
25.12.2016 12:16 7,2 C 79 % 1026,8 hPa 0,0 l/m 22,1 km/h (4 Bft) SW 225 0 min 0,000 mm 0,0 UV-I 47 W/m 3,8 C -1,1 C 33,8 km/h (5 Bft) 97,87 %
25.12.2016 12:18 7,2 C 79 % 1026,8 hPa 0,0 l/m 15,1 km/h (3 Bft) SW 214 0 min 0,000 mm 0,0 UV-I 43 W/m 3,8 C 1,7 C 22,5 km/h (4 Bft) 100,00 %
25.12.2016 12:20 7,2 C 79 % 1026,8 hPa 0,0 l/m 20,7 km/h (4 Bft) W-SW 244 0 min 0,000 mm 0,0 UV-I 39 W/m 3,8 C -0,6 C 37,0 km/h (5 Bft) 97,87 %
25.12.2016 12:22 7,2 C 79 % 1026,7 hPa 0,0 l/m 18,2 km/h (3 Bft) W-SW 258 0 min 0,000 mm 0,0 UV-I 39 W/m 3,8 C 0,4 C 30,6 km/h (5 Bft) 100,00 %
25.12.2016 12:24 7,2 C 79 % 1026,7 hPa 0,0 l/m 19,6 km/h (3 Bft) SW 215 0 min 0,000 mm 0,0 UV-I 41 W/m 3,8 C -0,2 C 27,4 km/h (4 Bft) 97,87 %
25.12.2016 12:26 7,3 C 79 % 1026,7 hPa 0,0 l/m 19,5 km/h (3 Bft) W-SW 245 0 min 0,000 mm 0,0 UV-I 36 W/m 3,9 C -0,0 C 32,2 km/h (5 Bft) 100,00 %
25.12.2016 12:28 7,3 C 79 % 1026,7 hPa 0,0 l/m 23,4 km/h (4 Bft) W-SW 244 0 min 0,000 mm 0,0 UV-I 34 W/m 3,9 C -1,3 C 40,2 km/h (6 Bft) 100,00 %
25.12.2016 12:30 7,3 C 79 % 1026,5 hPa 0,0 l/m 21,8 km/h (4 Bft) W-SW 256 0 min 0,000 mm 0,0 UV-I 38 W/m 3,9 C -0,8 C 32,2 km/h (5 Bft) 100,00 %
25.12.2016 12:32 7,3 C 79 % 1026,5 hPa 0,0 l/m 17,1 km/h (3 Bft) W-SW 238 0 min 0,000 mm 0,0 UV-I 43 W/m 3,9 C 0,9 C 24,1 km/h (4 Bft) 100,00 %
25.12.2016 12:34 7,3 C 78 % 1026,4 hPa 0,0 l/m 24,3 km/h (4 Bft) W-SW 252 0 min 0,000 mm 0,0 UV-I 52 W/m 3,7 C -1,6 C 41,8 km/h (6 Bft) 100,00 %
25.12.2016 12:36 7,3 C 78 % 1026,5 hPa 0,0 l/m 23,6 km/h (4 Bft) W-SW 256 0 min 0,000 mm 0,0 UV-I 56 W/m 3,7 C -1,4 C 35,4 km/h (5 Bft) 100,00 %
25.12.2016 12:38 7,3 C 78 % 1026,4 hPa 0,0 l/m 21,4 km/h (4 Bft) W 265 0 min 0,000 mm 0,0 UV-I 57 W/m 3,7 C -0,7 C 29,0 km/h (5 Bft) 100,00 %
25.12.2016 12:40 7,4 C 78 % 1026,4 hPa 0,0 l/m 26,2 km/h (4 Bft) W-SW 246 0 min 0,000 mm 0,0 UV-I 51 W/m 3,8 C -2,0 C 38,6 km/h (5 Bft) 98,00 %
25.12.2016 12:42 7,4 C 78 % 1026,3 hPa 0,0 l/m 27,7 km/h (4 Bft) SW 219 0 min 0,000 mm 0,0 UV-I 46 W/m 3,8 C -2,4 C 38,6 km/h (5 Bft) 97,87 %
25.12.2016 12:44 7,4 C 78 % 1026,4 hPa 0,0 l/m 23,4 km/h (4 Bft) W-SW 243 0 min 0,000 mm 0,0 UV-I 46 W/m 3,8 C -1,2 C 38,6 km/h (5 Bft) 97,37 %
25.12.2016 12:46 7,4 C 78 % 1026,3 hPa 0,0 l/m 19,2 km/h (3 Bft) W 259 0 min 0,000 mm 0,0 UV-I 48 W/m 3,8 C 0,2 C 29,0 km/h (5 Bft) 100,00 %
25.12.2016 12:48 7,4 C 78 % 1026,3 hPa 0,0 l/m 21,5 km/h (4 Bft) W 272 0 min 0,000 mm 0,0 UV-I 46 W/m 3,8 C -0,6 C 32,2 km/h (5 Bft) 100,00 %
25.12.2016 12:50 7,4 C 78 % 1026,4 hPa 0,0 l/m 21,6 km/h (4 Bft) W-SW 254 0 min 0,000 mm 0,0 UV-I 40 W/m 3,8 C -0,6 C 32,2 km/h (5 Bft) 97,87 %
25.12.2016 12:52 7,4 C 78 % 1026,6 hPa 0,0 l/m 29,8 km/h (5 Bft) W-SW 250 0 min 0,000 mm 0,0 UV-I 34 W/m 3,8 C -3,0 C 43,5 km/h (6 Bft) 100,00 %
25.12.2016 12:54 7,4 C 78 % 1026,6 hPa 0,0 l/m 20,3 km/h (4 Bft) W-SW 240 0 min 0,000 mm 0,0 UV-I 35 W/m 3,8 C -0,2 C 32,2 km/h (5 Bft) 97,87 %
25.12.2016 12:56 7,4 C 78 % 1026,6 hPa 0,0 l/m 18,6 km/h (3 Bft) W-SW 258 0 min 0,000 mm 0,0 UV-I 40 W/m 3,8 C 0,5 C 33,8 km/h (5 Bft) 100,00 %
25.12.2016 12:58 7,4 C 78 % 1026,6 hPa 0,0 l/m 20,1 km/h (4 Bft) W-SW 240 0 min 0,000 mm 0,0 UV-I 41 W/m 3,8 C -0,1 C 25,7 km/h (4 Bft) 100,00 %
25.12.2016 13:00 7,3 C 78 % 1026,6 hPa 0,0 l/m 19,2 km/h (3 Bft) W-SW 246 0 min 0,051 mm 0,0 UV-I 41 W/m 3,7 C 0,1 C 27,4 km/h (4 Bft) 95,74 %
25.12.2016 13:02 7,3 C 78 % 1026,4 hPa 0,0 l/m 24,5 km/h (4 Bft) W 275 0 min 0,000 mm 0,0 UV-I 47 W/m 3,7 C -1,7 C 37,0 km/h (5 Bft) 100,00 %
25.12.2016 13:04 7,3 C 79 % 1026,3 hPa 0,0 l/m 21,0 km/h (4 Bft) W-SW 252 0 min 0,000 mm 0,0 UV-I 57 W/m 3,9 C -0,6 C 30,6 km/h (5 Bft) 100,00 %
25.12.2016 13:06 7,3 C 79 % 1026,3 hPa 0,0 l/m 19,6 km/h (3 Bft) W-SW 257 0 min 0,000 mm 0,0 UV-I 62 W/m 3,9 C -0,1 C 29,0 km/h (5 Bft) 96,00 %
25.12.2016 13:08 7,3 C 79 % 1026,4 hPa 0,0 l/m 22,4 km/h (4 Bft) SW 236 0 min 0,000 mm 0,0 UV-I 64 W/m 3,9 C -1,0 C 41,8 km/h (6 Bft) 97,87 %
25.12.2016 13:10 7,3 C 79 % 1026,4 hPa 0,0 l/m 21,3 km/h (4 Bft) SW 223 0 min 0,000 mm 0,0 UV-I 61 W/m 3,9 C -0,7 C 29,0 km/h (5 Bft) 97,87 %
25.12.2016 13:12 7,3 C 79 % 1026,4 hPa 0,0 l/m 21,6 km/h (4 Bft) W-SW 251 0 min 0,000 mm 0,0 UV-I 54 W/m 3,9 C -0,8 C 33,8 km/h (5 Bft) 97,14 %
25.12.2016 13:14 7,3 C 79 % 1026,4 hPa 0,0 l/m 22,4 km/h (4 Bft) W 267 0 min 0,000 mm 0,0 UV-I 54 W/m 3,9 C -1,0 C 32,2 km/h (5 Bft) 94,74 %
25.12.2016 13:16 7,2 C 80 % 1026,4 hPa 0,0 l/m 19,9 km/h (4 Bft) W-SW 246 0 min 0,000 mm 0,0 UV-I 56 W/m 4,0 C -0,3 C 29,0 km/h (5 Bft) 96,77 %
25.12.2016 13:18 7,2 C 80 % 1026,3 hPa 0,0 l/m 24,2 km/h (4 Bft) W-SW 254 0 min 0,000 mm 0,0 UV-I 70 W/m 4,0 C -1,7 C 35,4 km/h (5 Bft) 97,87 %
25.12.2016 13:20 7,2 C 80 % 1026,2 hPa 0,0 l/m 22,1 km/h (4 Bft) W-SW 254 0 min 0,000 mm 0,0 UV-I 78 W/m 4,0 C -1,1 C 35,4 km/h (5 Bft) 98,00 %
25.12.2016 13:22 7,2 C 80 % 1026,2 hPa 0,0 l/m 18,6 km/h (3 Bft) SW 230 0 min 0,000 mm 0,0 UV-I 76 W/m 4,0 C 0,2 C 24,1 km/h (4 Bft) 96,00 %
25.12.2016 13:24 7,2 C 80 % 1026,1 hPa 0,0 l/m 18,2 km/h (3 Bft) W-SW 248 0 min 0,000 mm 0,0 UV-I 75 W/m 4,0 C 0,4 C 33,8 km/h (5 Bft) 95,74 %
25.12.2016 13:26 7,2 C 80 % 1026,1 hPa 0,0 l/m 23,4 km/h (4 Bft) W-SW 240 0 min 0,000 mm 0,0 UV-I 67 W/m 4,0 C -1,5 C 35,4 km/h (5 Bft) 97,87 %
25.12.2016 13:28 7,2 C 80 % 1026,0 hPa 0,0 l/m 18,0 km/h (3 Bft) W-SW 239 0 min 0,000 mm 0,0 UV-I 55 W/m 4,0 C 0,4 C 25,7 km/h (4 Bft) 97,87 %
25.12.2016 13:30 7,2 C 81 % 1026,0 hPa 0,0 l/m 15,5 km/h (3 Bft) SW 229 0 min 0,000 mm 0,0 UV-I 46 W/m 4,2 C 1,5 C 27,4 km/h (4 Bft) 94,74 %
25.12.2016 13:32 7,2 C 81 % 1026,0 hPa 0,0 l/m 17,1 km/h (3 Bft) W-SW 254 0 min 0,000 mm 0,0 UV-I 44 W/m 4,2 C 0,8 C 25,7 km/h (4 Bft) 97,87 %
25.12.2016 13:34 7,2 C 81 % 1025,9 hPa 0,0 l/m 12,2 km/h (2 Bft) W-SW 252 0 min 0,000 mm 0,0 UV-I 43 W/m 4,2 C 3,2 C 20,9 km/h (4 Bft) 95,74 %
25.12.2016 13:36 7,1 C 82 % 1026,0 hPa 0,0 l/m 13,9 km/h (3 Bft) W-SW 248 0 min 0,000 mm 0,0 UV-I 37 W/m 4,2 C 2,2 C 22,5 km/h (4 Bft) 97,87 %
25.12.2016 13:38 7,1 C 82 % 1026,0 hPa 0,0 l/m 16,0 km/h (3 Bft) S-SW 211 0 min 0,000 mm 0,0 UV-I 32 W/m 4,2 C 1,2 C 25,7 km/h (4 Bft) 97,87 %
25.12.2016 13:40 7,0 C 82 % 1025,9 hPa 0,0 l/m 15,5 km/h (3 Bft) W 260 0 min 0,000 mm 0,0 UV-I 29 W/m 4,1 C 1,3 C 22,5 km/h (4 Bft) 97,92 %
25.12.2016 13:42 6,9 C 83 % 1025,9 hPa 0,0 l/m 15,1 km/h (3 Bft) W-SW 237 0 min 0,000 mm 0,0 UV-I 29 W/m 4,2 C 1,3 C 20,9 km/h (4 Bft) 100,00 %
25.12.2016 13:44 6,9 C 83 % 1025,9 hPa 0,0 l/m 17,9 km/h (3 Bft) W-SW 245 0 min 0,000 mm 0,0 UV-I 31 W/m 4,2 C 0,1 C 30,6 km/h (5 Bft) 97,87 %
25.12.2016 13:46 6,9 C 83 % 1025,8 hPa 0,0 l/m 17,6 km/h (3 Bft) SW 220 0 min 0,000 mm 0,0 UV-I 34 W/m 4,2 C 0,2 C 25,7 km/h (4 Bft) 100,00 %
25.12.2016 13:48 6,9 C 83 % 1025,8 hPa 0,0 l/m 17,2 km/h (3 Bft) W-SW 255 0 min 0,000 mm 0,0 UV-I 35 W/m 4,2 C 0,4 C 25,7 km/h (4 Bft) 100,00 %
25.12.2016 13:50 6,9 C 83 % 1025,8 hPa 0,0 l/m 16,3 km/h (3 Bft) W-SW 248 0 min 0,000 mm 0,0 UV-I 34 W/m 4,2 C 0,8 C 22,5 km/h (4 Bft) 97,87 %
25.12.2016 13:52 6,9 C 83 % 1025,8 hPa 0,0 l/m 17,5 km/h (3 Bft) W-SW 247 0 min 0,000 mm 0,0 UV-I 34 W/m 4,2 C 0,3 C 27,4 km/h (4 Bft) 94,74 %
25.12.2016 13:54 6,9 C 83 % 1025,8 hPa 0,0 l/m 15,2 km/h (3 Bft) W-SW 248 0 min 0,000 mm 0,0 UV-I 35 W/m 4,2 C 1,3 C 25,7 km/h (4 Bft) 100,00 %
25.12.2016 13:56 6,9 C 82 % 1025,9 hPa 0,0 l/m 17,7 km/h (3 Bft) W-SW 246 0 min 0,000 mm 0,0 UV-I 32 W/m 4,0 C 0,2 C 29,0 km/h (5 Bft) 100,00 %
25.12.2016 13:58 7,0 C 82 % 1025,9 hPa 0,0 l/m 20,7 km/h (4 Bft) SW 236 0 min 0,000 mm 0,0 UV-I 30 W/m 4,1 C -0,8 C 30,6 km/h (5 Bft) 100,00 %
25.12.2016 14:00 7,1 C 81 % 1025,8 hPa 0,0 l/m 20,8 km/h (4 Bft) W-SW 245 0 min 0,051 mm 0,0 UV-I 32 W/m 4,1 C -0,7 C 35,4 km/h (5 Bft) 100,00 %
25.12.2016 14:02 7,1 C 82 % 1025,8 hPa 0,0 l/m 18,8 km/h (3 Bft) W-SW 242 0 min 0,000 mm 0,0 UV-I 33 W/m 4,2 C -0,0 C 27,4 km/h (4 Bft) 100,00 %
25.12.2016 14:04 7,1 C 82 % 1025,8 hPa 0,0 l/m 16,8 km/h (3 Bft) SW 226 0 min 0,000 mm 0,0 UV-I 30 W/m 4,2 C 0,8 C 29,0 km/h (5 Bft) 100,00 %
25.12.2016 14:06 7,1 C 82 % 1025,8 hPa 0,0 l/m 16,9 km/h (3 Bft) SW 229 0 min 0,000 mm 0,0 UV-I 28 W/m 4,2 C 0,8 C 24,1 km/h (4 Bft) 97,87 %
25.12.2016 14:08 7,1 C 82 % 1025,8 hPa 0,0 l/m 16,4 km/h (3 Bft) W-SW 246 0 min 0,000 mm 0,0 UV-I 28 W/m 4,2 C 1,0 C 24,1 km/h (4 Bft) 97,87 %
25.12.2016 14:10 7,1 C 82 % 1025,7 hPa 0,0 l/m 18,0 km/h (3 Bft) W-SW 245 0 min 0,000 mm 0,0 UV-I 26 W/m 4,2 C 0,3 C 27,4 km/h (4 Bft) 97,87 %
25.12.2016 14:12 7,1 C 82 % 1025,6 hPa 0,0 l/m 20,1 km/h (4 Bft) SW 226 0 min 0,000 mm 0,0 UV-I 26 W/m 4,2 C -0,5 C 30,6 km/h (5 Bft) 100,00 %
25.12.2016 14:14 7,1 C 82 % 1025,6 hPa 0,0 l/m 18,2 km/h (3 Bft) W-SW 244 0 min 0,000 mm 0,0 UV-I 25 W/m 4,2 C 0,2 C 29,0 km/h (5 Bft) 100,00 %
25.12.2016 14:16 7,1 C 82 % 1025,5 hPa 0,0 l/m 14,4 km/h (3 Bft) W-SW 243 0 min 0,000 mm 0,0 UV-I 26 W/m 4,2 C 1,9 C 20,9 km/h (4 Bft) 94,00 %
25.12.2016 14:18 7,1 C 82 % 1025,4 hPa 0,0 l/m 18,1 km/h (3 Bft) W-SW 254 0 min 0,000 mm 0,0 UV-I 26 W/m 4,2 C 0,3 C 25,7 km/h (4 Bft) 100,00 %
25.12.2016 14:20 7,1 C 82 % 1025,5 hPa 0,0 l/m 16,6 km/h (3 Bft) W-SW 240 0 min 0,000 mm 0,0 UV-I 24 W/m 4,2 C 0,9 C 25,7 km/h (4 Bft) 98,00 %
25.12.2016 14:22 7,1 C 82 % 1025,5 hPa 0,0 l/m 14,2 km/h (3 Bft) W-SW 258 0 min 0,000 mm 0,0 UV-I 22 W/m 4,2 C 2,0 C 20,9 km/h (4 Bft) 100,00 %
25.12.2016 14:24 7,1 C 82 % 1025,4 hPa 0,0 l/m 17,3 km/h (3 Bft) W 265 0 min 0,000 mm 0,0 UV-I 22 W/m 4,2 C 0,6 C 24,1 km/h (4 Bft) 97,87 %
25.12.2016 14:26 7,1 C 82 % 1025,4 hPa 0,0 l/m 18,0 km/h (3 Bft) W-SW 243 0 min 0,000 mm 0,0 UV-I 20 W/m 4,2 C 0,3 C 27,4 km/h (4 Bft) 100,00 %
25.12.2016 14:28 7,1 C 82 % 1025,4 hPa 0,0 l/m 12,6 km/h (3 Bft) W-SW 246 0 min 0,000 mm 0,0 UV-I 19 W/m 4,2 C 2,8 C 19,3 km/h (3 Bft) 100,00 %
25.12.2016 14:30 7,1 C 82 % 1025,4 hPa 0,0 l/m 15,6 km/h (3 Bft) W 261 0 min 0,000 mm 0,0 UV-I 18 W/m 4,2 C 1,3 C 27,4 km/h (4 Bft) 97,87 %
25.12.2016 14:32 7,1 C 83 % 1025,4 hPa 0,0 l/m 13,1 km/h (3 Bft) W 273 0 min 0,000 mm 0,0 UV-I 16 W/m 4,4 C 2,6 C 19,3 km/h (3 Bft) 97,87 %
25.12.2016 14:34 7,1 C 83 % 1025,5 hPa 0,0 l/m 11,2 km/h (2 Bft) W 259 0 min 0,000 mm 0,0 UV-I 16 W/m 4,4 C 3,6 C 16,1 km/h (3 Bft) 100,00 %
25.12.2016 14:36 7,0 C 83 % 1025,4 hPa 0,0 l/m 16,5 km/h (3 Bft) W-SW 248 0 min 0,000 mm 0,0 UV-I 16 W/m 4,3 C 0,8 C 24,1 km/h (4 Bft) 97,87 %
25.12.2016 14:38 7,0 C 83 % 1025,5 hPa 0,0 l/m 12,4 km/h (3 Bft) W 259 0 min 0,000 mm 0,0 UV-I 16 W/m 4,3 C 2,8 C 17,7 km/h (3 Bft) 100,00 %
25.12.2016 14:40 7,0 C 83 % 1025,4 hPa 0,0 l/m 16,1 km/h (3 Bft) W-SW 251 0 min 0,000 mm 0,0 UV-I 16 W/m 4,3 C 1,0 C 25,7 km/h (4 Bft) 97,87 %
25.12.2016 14:42 7,0 C 83 % 1025,5 hPa 0,0 l/m 15,6 km/h (3 Bft) SW 222 0 min 0,000 mm 0,0 UV-I 14 W/m 4,3 C 1,2 C 22,5 km/h (4 Bft) 97,87 %
25.12.2016 14:44 7,0 C 83 % 1025,5 hPa 0,0 l/m 13,2 km/h (3 Bft) SW 232 0 min 0,000 mm 0,0 UV-I 12 W/m 4,3 C 2,4 C 22,5 km/h (4 Bft) 100,00 %
25.12.2016 14:46 7,0 C 83 % 1025,5 hPa 0,0 l/m 12,6 km/h (3 Bft) SW 231 0 min 0,000 mm 0,0 UV-I 12 W/m 4,3 C 2,7 C 19,3 km/h (3 Bft) 97,87 %
25.12.2016 14:48 7,0 C 83 % 1025,5 hPa 0,0 l/m 13,3 km/h (3 Bft) SW 233 0 min 0,000 mm 0,0 UV-I 13 W/m 4,3 C 2,3 C 19,3 km/h (3 Bft) 100,00 %
25.12.2016 14:50 7,0 C 83 % 1025,5 hPa 0,0 l/m 16,2 km/h (3 Bft) W-SW 241 0 min 0,000 mm 0,0 UV-I 14 W/m 4,3 C 0,9 C 24,1 km/h (4 Bft) 100,00 %
25.12.2016 14:52 7,0 C 83 % 1025,4 hPa 0,0 l/m 14,2 km/h (3 Bft) SW 216 0 min 0,000 mm 0,0 UV-I 14 W/m 4,3 C 1,9 C 19,3 km/h (3 Bft) 98,00 %
25.12.2016 14:54 7,0 C 83 % 1025,5 hPa 0,0 l/m 13,8 km/h (3 Bft) SW 223 0 min 0,000 mm 0,0 UV-I 16 W/m 4,3 C 2,1 C 22,5 km/h (4 Bft) 100,00 %
25.12.2016 14:56 7,0 C 83 % 1025,5 hPa 0,0 l/m 12,9 km/h (3 Bft) S-SW 209 0 min 0,000 mm 0,0 UV-I 16 W/m 4,3 C 2,6 C 19,3 km/h (3 Bft) 97,87 %
25.12.2016 14:58 7,0 C 83 % 1025,4 hPa 0,0 l/m 14,4 km/h (3 Bft) SW 235 0 min 0,000 mm 0,0 UV-I 14 W/m 4,3 C 1,8 C 22,5 km/h (4 Bft) 97,87 %
25.12.2016 15:00 7,0 C 83 % 1025,4 hPa 0,0 l/m 12,1 km/h (2 Bft) SW 223 0 min 0,000 mm 0,0 UV-I 16 W/m 4,3 C 3,0 C 16,1 km/h (3 Bft) 98,00 %
25.12.2016 15:02 7,0 C 83 % 1025,4 hPa 0,0 l/m 12,0 km/h (2 Bft) W-SW 239 0 min 0,025 mm 0,0 UV-I 14 W/m 4,3 C 3,1 C 20,9 km/h (4 Bft) 97,92 %
25.12.2016 15:04 7,0 C 83 % 1025,4 hPa 0,0 l/m 12,9 km/h (3 Bft) SW 232 0 min 0,000 mm 0,0 UV-I 14 W/m 4,3 C 2,6 C 17,7 km/h (3 Bft) 100,00 %
25.12.2016 15:06 7,0 C 82 % 1025,4 hPa 0,0 l/m 15,0 km/h (3 Bft) W-SW 242 0 min 0,000 mm 0,0 UV-I 16 W/m 4,1 C 1,5 C 20,9 km/h (4 Bft) 100,00 %
25.12.2016 15:08 7,1 C 82 % 1025,4 hPa 0,0 l/m 12,1 km/h (2 Bft) W-SW 244 0 min 0,000 mm 0,0 UV-I 16 W/m 4,2 C 3,1 C 17,7 km/h (3 Bft) 100,00 %
25.12.2016 15:10 7,1 C 81 % 1025,4 hPa 0,0 l/m 12,9 km/h (3 Bft) W 271 0 min 0,000 mm 0,0 UV-I 15 W/m 4,1 C 2,7 C 20,9 km/h (4 Bft) 97,37 %
25.12.2016 15:12 7,1 C 82 % 1025,5 hPa 0,0 l/m 12,8 km/h (3 Bft) W-SW 252 0 min 0,000 mm 0,0 UV-I 16 W/m 4,2 C 2,7 C 19,3 km/h (3 Bft) 97,87 %
25.12.2016 15:14 7,2 C 81 % 1025,5 hPa 0,0 l/m 15,9 km/h (3 Bft) W-SW 244 0 min 0,000 mm 0,0 UV-I 14 W/m 4,2 C 1,3 C 20,9 km/h (4 Bft) 98,00 %
25.12.2016 15:16 7,2 C 81 % 1025,4 hPa 0,0 l/m 13,6 km/h (3 Bft) W-SW 252 0 min 0,000 mm 0,0 UV-I 14 W/m 4,2 C 2,4 C 17,7 km/h (3 Bft) 97,87 %
25.12.2016 15:18 7,2 C 80 % 1025,5 hPa 0,0 l/m 15,2 km/h (3 Bft) SW 223 0 min 0,000 mm 0,0 UV-I 14 W/m 4,0 C 1,6 C 22,5 km/h (4 Bft) 97,87 %
25.12.2016 15:20 7,2 C 81 % 1025,4 hPa 0,0 l/m 11,0 km/h (2 Bft) W 261 0 min 0,000 mm 0,0 UV-I 14 W/m 4,2 C 3,9 C 17,7 km/h (3 Bft) 97,87 %
25.12.2016 15:22 7,2 C 81 % 1025,5 hPa 0,0 l/m 11,6 km/h (2 Bft) W-SW 256 0 min 0,000 mm 0,0 UV-I 14 W/m 4,2 C 3,5 C 16,1 km/h (3 Bft) 98,00 %
25.12.2016 15:24 7,2 C 80 % 1025,5 hPa 0,0 l/m 15,6 km/h (3 Bft) W-SW 246 0 min 0,000 mm 0,0 UV-I 14 W/m 4,0 C 1,5 C 20,9 km/h (4 Bft) 97,37 %
25.12.2016 15:26 7,2 C 80 % 1025,5 hPa 0,0 l/m 12,8 km/h (3 Bft) W-SW 256 0 min 0,000 mm 0,0 UV-I 14 W/m 4,0 C 2,8 C 16,1 km/h (3 Bft) 94,00 %
25.12.2016 15:28 7,2 C 80 % 1025,5 hPa 0,0 l/m 13,6 km/h (3 Bft) SW 217 0 min 0,000 mm 0,0 UV-I 15 W/m 4,0 C 2,4 C 19,3 km/h (3 Bft) 95,74 %
25.12.2016 15:30 7,2 C 80 % 1025,4 hPa 0,0 l/m 12,7 km/h (3 Bft) W 260 0 min 0,000 mm 0,0 UV-I 16 W/m 4,0 C 2,9 C 19,3 km/h (3 Bft) 97,87 %
25.12.2016 15:32 7,3 C 80 % 1025,5 hPa 0,0 l/m 13,5 km/h (3 Bft) W-SW 246 0 min 0,000 mm 0,0 UV-I 16 W/m 4,1 C 2,6 C 17,7 km/h (3 Bft) 97,87 %
25.12.2016 15:34 7,3 C 80 % 1025,4 hPa 0,0 l/m 11,6 km/h (2 Bft) SW 233 0 min 0,000 mm 0,0 UV-I 14 W/m 4,1 C 3,6 C 14,5 km/h (3 Bft) 97,87 %
25.12.2016 15:36 7,3 C 80 % 1025,4 hPa 0,0 l/m 13,9 km/h (3 Bft) W-SW 252 0 min 0,000 mm 0,0 UV-I 13 W/m 4,1 C 2,4 C 22,5 km/h (4 Bft) 93,62 %
25.12.2016 15:38 7,3 C 80 % 1025,4 hPa 0,0 l/m 14,7 km/h (3 Bft) S-SW 204 0 min 0,000 mm 0,0 UV-I 12 W/m 4,1 C 2,0 C 20,9 km/h (4 Bft) 95,74 %
25.12.2016 15:40 7,3 C 79 % 1025,4 hPa 0,0 l/m 17,7 km/h (3 Bft) W-SW 249 0 min 0,000 mm 0,0 UV-I 12 W/m 3,9 C 0,7 C 32,2 km/h (5 Bft) 95,83 %
25.12.2016 15:42 7,3 C 79 % 1025,4 hPa 0,0 l/m 14,3 km/h (3 Bft) W-SW 244 0 min 0,000 mm 0,0 UV-I 11 W/m 3,9 C 2,2 C 20,9 km/h (4 Bft) 95,74 %
25.12.2016 15:44 7,3 C 79 % 1025,4 hPa 0,0 l/m 12,1 km/h (2 Bft) W-SW 242 0 min 0,000 mm 0,0 UV-I 11 W/m 3,9 C 3,3 C 16,1 km/h (3 Bft) 95,74 %
25.12.2016 15:46 7,3 C 79 % 1025,4 hPa 0,0 l/m 15,4 km/h (3 Bft) W-SW 250 0 min 0,000 mm 0,0 UV-I 11 W/m 3,9 C 1,7 C 19,3 km/h (3 Bft) 100,00 %
25.12.2016 15:48 7,4 C 79 % 1025,4 hPa 0,0 l/m 14,3 km/h (3 Bft) W-SW 252 0 min 0,000 mm 0,0 UV-I 11 W/m 4,0 C 2,3 C 20,9 km/h (4 Bft) 100,00 %
25.12.2016 15:50 7,4 C 78 % 1025,4 hPa 0,0 l/m 17,9 km/h (3 Bft) W-SW 249 0 min 0,000 mm 0,0 UV-I 9 W/m 3,8 C 0,7 C 27,4 km/h (4 Bft) 97,96 %
25.12.2016 15:52 7,4 C 78 % 1025,4 hPa 0,0 l/m 13,1 km/h (3 Bft) W 269 0 min 0,000 mm 0,0 UV-I 9 W/m 3,8 C 2,9 C 19,3 km/h (3 Bft) 95,74 %
25.12.2016 15:54 7,4 C 78 % 1025,4 hPa 0,0 l/m 18,8 km/h (3 Bft) W-SW 244 0 min 0,000 mm 0,0 UV-I 8 W/m 3,8 C 0,4 C 24,1 km/h (4 Bft) 97,87 %
25.12.2016 15:56 7,4 C 78 % 1025,4 hPa 0,0 l/m 17,5 km/h (3 Bft) W 266 0 min 0,000 mm 0,0 UV-I 7 W/m 3,8 C 0,9 C 24,1 km/h (4 Bft) 100,00 %
25.12.2016 15:58 7,4 C 78 % 1025,3 hPa 0,0 l/m 19,1 km/h (3 Bft) W 275 0 min 0,000 mm 0,0 UV-I 7 W/m 3,8 C 0,3 C 27,4 km/h (4 Bft) 100,00 %
25.12.2016 16:00 7,5 C 78 % 1025,3 hPa 0,0 l/m 17,0 km/h (3 Bft) W-SW 252 0 min 0,025 mm 0,0 UV-I 7 W/m 3,9 C 1,2 C 24,1 km/h (4 Bft) 97,87 %
25.12.2016 16:02 7,5 C 78 % 1025,4 hPa 0,0 l/m 14,1 km/h (3 Bft) W 269 0 min 0,000 mm 0,0 UV-I 6 W/m 3,9 C 2,5 C 19,3 km/h (3 Bft) 100,00 %
25.12.2016 16:04 7,5 C 78 % 1025,4 hPa 0,0 l/m 16,1 km/h (3 Bft) W 272 0 min 0,000 mm 0,0 UV-I 5 W/m 3,9 C 1,6 C 22,5 km/h (4 Bft) 100,00 %
25.12.2016 16:06 7,5 C 78 % 1025,4 hPa 0,0 l/m 15,7 km/h (3 Bft) W-SW 246 0 min 0,000 mm 0,0 UV-I 5 W/m 3,9 C 1,8 C 24,1 km/h (4 Bft) 100,00 %
25.12.2016 16:08 7,5 C 77 % 1025,5 hPa 0,0 l/m 15,3 km/h (3 Bft) W 276 0 min 0,000 mm 0,0 UV-I 5 W/m 3,7 C 2,0 C 20,9 km/h (4 Bft) 97,87 %
25.12.2016 16:10 7,5 C 77 % 1025,5 hPa 0,0 l/m 11,7 km/h (2 Bft) W-SW 254 0 min 0,000 mm 0,0 UV-I 3 W/m 3,7 C 3,8 C 16,1 km/h (3 Bft) 100,00 %
25.12.2016 16:12 7,5 C 77 % 1025,5 hPa 0,0 l/m 12,3 km/h (3 Bft) SW 219 0 min 0,000 mm 0,0 UV-I 0 W/m 3,7 C 3,5 C 19,3 km/h (3 Bft) 100,00 %
25.12.2016 16:14 7,5 C 77 % 1025,5 hPa 0,0 l/m 11,6 km/h (2 Bft) W-SW 244 0 min 0,000 mm 0,0 UV-I 0 W/m 3,7 C 3,9 C 20,9 km/h (4 Bft) 100,00 %
25.12.2016 16:16 7,5 C 78 % 1025,6 hPa 0,0 l/m 7,8 km/h (2 Bft) W-SW 254 0 min 0,000 mm 0,0 UV-I 0 W/m 3,9 C 6,4 C 11,3 km/h (2 Bft) 100,00 %
25.12.2016 16:18 7,4 C 78 % 1025,6 hPa 0,0 l/m 9,9 km/h (2 Bft) W-SW 257 0 min 0,000 mm 0,0 UV-I 0 W/m 3,8 C 4,8 C 16,1 km/h (3 Bft) 100,00 %
25.12.2016 16:20 7,4 C 78 % 1025,6 hPa 0,0 l/m 9,0 km/h (2 Bft) W-SW 252 0 min 0,000 mm 0,0 UV-I 0 W/m 3,8 C 5,4 C 17,7 km/h (3 Bft) 100,00 %
25.12.2016 16:22 7,4 C 78 % 1025,6 hPa 0,0 l/m 6,2 km/h (2 Bft) SW 232 0 min 0,000 mm 0,0 UV-I 0 W/m 3,8 C 7,4 C 9,7 km/h (2 Bft) 100,00 %
25.12.2016 16:24 7,4 C 78 % 1025,5 hPa 0,0 l/m 6,7 km/h (2 Bft) W-SW 247 0 min 0,000 mm 0,0 UV-I 0 W/m 3,8 C 7,2 C 9,7 km/h (2 Bft) 98,00 %
25.12.2016 16:26 7,3 C 78 % 1025,6 hPa 0,0 l/m 6,1 km/h (2 Bft) W-SW 244 0 min 0,000 mm 0,0 UV-I 0 W/m 3,7 C 7,3 C 11,3 km/h (2 Bft) 98,00 %
25.12.2016 16:28 7,3 C 78 % 1025,6 hPa 0,0 l/m 7,6 km/h (2 Bft) W 262 0 min 0,000 mm 0,0 UV-I 0 W/m 3,7 C 6,3 C 11,3 km/h (2 Bft) 97,87 %
25.12.2016 16:30 7,3 C 78 % 1025,6 hPa 0,0 l/m 7,1 km/h (2 Bft) W 281 0 min 0,000 mm 0,0 UV-I 0 W/m 3,7 C 6,7 C 11,3 km/h (2 Bft) 100,00 %
25.12.2016 16:32 7,3 C 78 % 1025,7 hPa 0,0 l/m 6,8 km/h (2 Bft) W-NW 282 0 min 0,000 mm 0,0 UV-I 0 W/m 3,7 C 7,0 C 11,3 km/h (2 Bft) 100,00 %
25.12.2016 16:34 7,3 C 78 % 1025,8 hPa 0,0 l/m 6,7 km/h (2 Bft) W-SW 250 0 min 0,000 mm 0,0 UV-I 0 W/m 3,7 C 7,1 C 11,3 km/h (2 Bft) 100,00 %
25.12.2016 16:36 7,3 C 78 % 1025,8 hPa 0,0 l/m 4,9 km/h (1 Bft) W 273 0 min 0,000 mm 0,0 UV-I 0 W/m 3,7 C 7,3 C 9,7 km/h (2 Bft) 100,00 %
25.12.2016 16:38 7,3 C 78 % 1025,8 hPa 0,0 l/m 4,3 km/h (1 Bft) NW 317 0 min 0,000 mm 0,0 UV-I 0 W/m 3,7 C 7,3 C 6,4 km/h (2 Bft) 97,87 %
25.12.2016 16:40 7,3 C 78 % 1025,8 hPa 0,0 l/m 6,6 km/h (2 Bft) W-SW 238 0 min 0,000 mm 0,0 UV-I 0 W/m 3,7 C 7,2 C 12,9 km/h (3 Bft) 100,00 %
25.12.2016 16:42 7,3 C 78 % 1025,8 hPa 0,0 l/m 9,6 km/h (2 Bft) W-SW 249 0 min 0,000 mm 0,0 UV-I 0 W/m 3,7 C 4,9 C 16,1 km/h (3 Bft) 100,00 %
25.12.2016 16:44 7,3 C 78 % 1025,9 hPa 0,0 l/m 4,3 km/h (1 Bft) W 268 0 min 0,000 mm 0,0 UV-I 0 W/m 3,7 C 7,3 C 9,7 km/h (2 Bft) 97,56 %
25.12.2016 16:46 7,3 C 78 % 1025,9 hPa 0,0 l/m 4,6 km/h (1 Bft) W 260 0 min 0,000 mm 0,0 UV-I 0 W/m 3,7 C 7,3 C 9,7 km/h (2 Bft) 100,00 %
25.12.2016 16:48 7,2 C 79 % 1025,9 hPa 0,0 l/m 2,9 km/h (1 Bft) W 263 0 min 0,000 mm 0,0 UV-I 0 W/m 3,8 C 7,2 C 6,4 km/h (2 Bft) 100,00 %
25.12.2016 16:50 7,2 C 78 % 1025,9 hPa 0,0 l/m 6,7 km/h (2 Bft) W 259 0 min 0,000 mm 0,0 UV-I 0 W/m 3,6 C 7,0 C 11,3 km/h (2 Bft) 97,87 %
25.12.2016 16:52 7,2 C 78 % 1025,9 hPa 0,0 l/m 2,7 km/h (1 Bft) W 259 0 min 0,000 mm 0,0 UV-I 0 W/m 3,6 C 7,2 C 4,8 km/h (1 Bft) 100,00 %
25.12.2016 16:54 7,3 C 78 % 1025,9 hPa 0,0 l/m 4,4 km/h (1 Bft) W 267 0 min 0,000 mm 0,0 UV-I 0 W/m 3,7 C 7,3 C 8,0 km/h (2 Bft) 100,00 %
25.12.2016 16:56 7,3 C 78 % 1025,8 hPa 0,0 l/m 3,8 km/h (1 Bft) W-SW 248 0 min 0,000 mm 0,0 UV-I 0 W/m 3,7 C 7,3 C 6,4 km/h (2 Bft) 95,74 %
25.12.2016 16:58 7,3 C 78 % 1025,8 hPa 0,0 l/m 4,3 km/h (1 Bft) W-SW 250 0 min 0,000 mm 0,0 UV-I 0 W/m 3,7 C 7,3 C 6,4 km/h (2 Bft) 100,00 %
25.12.2016 17:00 7,3 C 78 % 1025,8 hPa 0,0 l/m 4,5 km/h (1 Bft) SW 235 0 min 0,000 mm 0,0 UV-I 0 W/m 3,7 C 7,3 C 6,4 km/h (2 Bft) 100,00 %
25.12.2016 17:02 7,2 C 79 % 1025,8 hPa 0,0 l/m 4,6 km/h (1 Bft) W-SW 242 0 min 0,026 mm 0,0 UV-I 0 W/m 3,8 C 7,2 C 9,7 km/h (2 Bft) 97,87 %
25.12.2016 17:04 7,2 C 79 % 1025,8 hPa 0,0 l/m 3,2 km/h (1 Bft) W-SW 242 0 min 0,000 mm 0,0 UV-I 0 W/m 3,8 C 7,2 C 6,4 km/h (2 Bft) 100,00 %
25.12.2016 17:06 7,2 C 79 % 1025,9 hPa 0,0 l/m 3,8 km/h (1 Bft) W-SW 250 0 min 0,000 mm 0,0 UV-I 0 W/m 3,8 C 7,2 C 6,4 km/h (2 Bft) 100,00 %
25.12.2016 17:08 7,2 C 79 % 1025,9 hPa 0,0 l/m 5,6 km/h (1 Bft) W-SW 244 0 min 0,000 mm 0,0 UV-I 0 W/m 3,8 C 7,2 C 8,0 km/h (2 Bft) 100,00 %
25.12.2016 17:10 7,2 C 79 % 1025,9 hPa 0,0 l/m 4,9 km/h (1 Bft) W-SW 242 0 min 0,000 mm 0,0 UV-I 0 W/m 3,8 C 7,2 C 6,4 km/h (2 Bft) 100,00 %
25.12.2016 17:12 7,2 C 79 % 1025,9 hPa 0,0 l/m 4,6 km/h (1 Bft) W-SW 246 0 min 0,000 mm 0,0 UV-I 0 W/m 3,8 C 7,2 C 6,4 km/h (2 Bft) 98,15 %
25.12.2016 17:14 7,2 C 79 % 1025,9 hPa 0,0 l/m 3,8 km/h (1 Bft) W-SW 246 0 min 0,000 mm 0,0 UV-I 0 W/m 3,8 C 7,2 C 6,4 km/h (2 Bft) 100,00 %
25.12.2016 17:16 7,2 C 79 % 1025,9 hPa 0,0 l/m 10,0 km/h (2 Bft) W 266 0 min 0,000 mm 0,0 UV-I 0 W/m 3,8 C 4,5 C 16,1 km/h (3 Bft) 97,87 %
25.12.2016 17:18 7,2 C 79 % 1026,0 hPa 0,0 l/m 7,6 km/h (2 Bft) W 277 0 min 0,000 mm 0,0 UV-I 0 W/m 3,8 C 6,2 C 11,3 km/h (2 Bft) 97,87 %
25.12.2016 17:20 7,2 C 79 % 1026,0 hPa 0,0 l/m 6,7 km/h (2 Bft) W-SW 257 0 min 0,000 mm 0,0 UV-I 0 W/m 3,8 C 7,0 C 11,3 km/h (2 Bft) 97,87 %
25.12.2016 17:22 7,2 C 79 % 1026,0 hPa 0,0 l/m 4,6 km/h (1 Bft) W-SW 245 0 min 0,000 mm 0,0 UV-I 0 W/m 3,8 C 7,2 C 9,7 km/h (2 Bft) 93,62 %
25.12.2016 17:24 7,2 C 79 % 1025,9 hPa 0,0 l/m 5,2 km/h (1 Bft) W-SW 252 0 min 0,000 mm 0,0 UV-I 0 W/m 3,8 C 7,2 C 8,0 km/h (2 Bft) 97,87 %
25.12.2016 17:26 7,2 C 79 % 1026,0 hPa 0,0 l/m 8,4 km/h (2 Bft) W-SW 242 0 min 0,000 mm 0,0 UV-I 0 W/m 3,8 C 5,6 C 12,9 km/h (3 Bft) 94,00 %
25.12.2016 17:28 7,2 C 79 % 1026,0 hPa 0,0 l/m 7,5 km/h (2 Bft) W-SW 251 0 min 0,000 mm 0,0 UV-I 0 W/m 3,8 C 6,3 C 11,3 km/h (2 Bft) 95,74 %
25.12.2016 17:30 7,2 C 79 % 1026,1 hPa 0,0 l/m 7,6 km/h (2 Bft) W-SW 254 0 min 0,000 mm 0,0 UV-I 0 W/m 3,8 C 6,2 C 12,9 km/h (3 Bft) 97,14 %
25.12.2016 17:32 7,2 C 79 % 1026,1 hPa 0,0 l/m 5,2 km/h (1 Bft) W-SW 250 0 min 0,000 mm 0,0 UV-I 0 W/m 3,8 C 7,2 C 8,0 km/h (2 Bft) 98,11 %
25.12.2016 17:34 7,2 C 79 % 1026,1 hPa 0,0 l/m 6,9 km/h (2 Bft) W-SW 241 0 min 0,000 mm 0,0 UV-I 0 W/m 3,8 C 6,8 C 11,3 km/h (2 Bft) 93,62 %
25.12.2016 17:36 7,3 C 79 % 1026,1 hPa 0,0 l/m 6,3 km/h (2 Bft) SW 221 0 min 0,000 mm 0,0 UV-I 0 W/m 3,9 C 7,3 C 8,0 km/h (2 Bft) 97,87 %
25.12.2016 17:38 7,3 C 79 % 1026,1 hPa 0,0 l/m 7,9 km/h (2 Bft) W-SW 244 0 min 0,000 mm 0,0 UV-I 0 W/m 3,9 C 6,1 C 11,3 km/h (2 Bft) 97,87 %
25.12.2016 17:40 7,3 C 79 % 1026,2 hPa 0,0 l/m 6,9 km/h (2 Bft) W-SW 241 0 min 0,000 mm 0,0 UV-I 0 W/m 3,9 C 6,9 C 9,7 km/h (2 Bft) 94,87 %
25.12.2016 17:42 7,3 C 79 % 1026,1 hPa 0,0 l/m 7,1 km/h (2 Bft) SW 233 0 min 0,000 mm 0,0 UV-I 0 W/m 3,9 C 6,7 C 11,3 km/h (2 Bft) 98,00 %
25.12.2016 17:44 7,3 C 79 % 1026,0 hPa 0,0 l/m 7,9 km/h (2 Bft) W-SW 243 0 min 0,000 mm 0,0 UV-I 0 W/m 3,9 C 6,1 C 12,9 km/h (3 Bft) 97,87 %
25.12.2016 17:46 7,3 C 79 % 1026,0 hPa 0,0 l/m 9,5 km/h (2 Bft) W-SW 238 0 min 0,000 mm 0,0 UV-I 0 W/m 3,9 C 4,9 C 16,1 km/h (3 Bft) 95,74 %
25.12.2016 17:48 7,3 C 79 % 1026,0 hPa 0,0 l/m 8,5 km/h (2 Bft) SW 232 0 min 0,000 mm 0,0 UV-I 0 W/m 3,9 C 5,6 C 12,9 km/h (3 Bft) 95,74 %
25.12.2016 17:50 7,3 C 79 % 1026,0 hPa 0,0 l/m 10,4 km/h (2 Bft) S-SW 202 0 min 0,000 mm 0,0 UV-I 0 W/m 3,9 C 4,4 C 16,1 km/h (3 Bft) 95,74 %
25.12.2016 17:52 7,4 C 79 % 1026,0 hPa 0,0 l/m 9,7 km/h (2 Bft) SW 223 0 min 0,000 mm 0,0 UV-I 0 W/m 4,0 C 4,9 C 16,1 km/h (3 Bft) 95,74 %
25.12.2016 17:54 7,4 C 78 % 1026,1 hPa 0,0 l/m 10,8 km/h (2 Bft) W 260 0 min 0,000 mm 0,0 UV-I 0 W/m 3,8 C 4,2 C 17,7 km/h (3 Bft) 97,87 %
25.12.2016 17:56 7,5 C 78 % 1026,1 hPa 0,0 l/m 10,1 km/h (2 Bft) W-SW 243 0 min 0,000 mm 0,0 UV-I 0 W/m 3,9 C 4,8 C 16,1 km/h (3 Bft) 100,00 %
25.12.2016 17:58 7,6 C 78 % 1026,2 hPa 0,0 l/m 12,1 km/h (2 Bft) SW 217 0 min 0,000 mm 0,0 UV-I 0 W/m 4,0 C 3,7 C 19,3 km/h (3 Bft) 100,00 %
25.12.2016 18:00 7,6 C 78 % 1026,1 hPa 0,0 l/m 12,2 km/h (2 Bft) W 262 0 min 0,025 mm 0,0 UV-I 0 W/m 4,0 C 3,6 C 17,7 km/h (3 Bft) 100,00 %
25.12.2016 18:02 7,7 C 78 % 1026,2 hPa 0,0 l/m 9,7 km/h (2 Bft) W 274 0 min 0,000 mm 0,0 UV-I 0 W/m 4,1 C 5,2 C 14,5 km/h (3 Bft) 100,00 %
25.12.2016 18:04 7,7 C 78 % 1026,2 hPa 0,0 l/m 12,8 km/h (3 Bft) W-SW 254 0 min 0,000 mm 0,0 UV-I 0 W/m 4,1 C 3,4 C 17,7 km/h (3 Bft) 100,00 %
25.12.2016 18:06 7,8 C 77 % 1026,2 hPa 0,0 l/m 13,5 km/h (3 Bft) SW 234 0 min 0,000 mm 0,0 UV-I 0 W/m 4,0 C 3,2 C 20,9 km/h (4 Bft) 100,00 %
25.12.2016 18:08 7,8 C 77 % 1026,2 hPa 0,0 l/m 11,7 km/h (2 Bft) W-SW 252 0 min 0,000 mm 0,0 UV-I 0 W/m 4,0 C 4,1 C 16,1 km/h (3 Bft) 98,00 %
25.12.2016 18:10 7,9 C 77 % 1026,1 hPa 0,0 l/m 15,6 km/h (3 Bft) W-SW 250 0 min 0,000 mm 0,0 UV-I 0 W/m 4,1 C 2,3 C 24,1 km/h (4 Bft) 97,87 %
25.12.2016 18:12 7,9 C 77 % 1026,2 hPa 0,0 l/m 15,2 km/h (3 Bft) W-SW 253 0 min 0,000 mm 0,0 UV-I 0 W/m 4,1 C 2,5 C 24,1 km/h (4 Bft) 100,00 %
25.12.2016 18:14 8,0 C 77 % 1026,2 hPa 0,0 l/m 14,1 km/h (3 Bft) W-SW 244 0 min 0,000 mm 0,0 UV-I 0 W/m 4,2 C 3,1 C 22,5 km/h (4 Bft) 100,00 %
25.12.2016 18:16 8,1 C 77 % 1026,2 hPa 0,0 l/m 14,9 km/h (3 Bft) W-SW 254 0 min 0,000 mm 0,0 UV-I 0 W/m 4,3 C 2,9 C 20,9 km/h (4 Bft) 100,00 %
25.12.2016 18:18 8,2 C 77 % 1026,3 hPa 0,0 l/m 14,7 km/h (3 Bft) W 261 0 min 0,000 mm 0,0 UV-I 0 W/m 4,4 C 3,1 C 20,9 km/h (4 Bft) 97,87 %
25.12.2016 18:20 8,2 C 76 % 1026,3 hPa 0,0 l/m 13,7 km/h (3 Bft) W-SW 238 0 min 0,000 mm 0,0 UV-I 0 W/m 4,2 C 3,6 C 24,1 km/h (4 Bft) 100,00 %
25.12.2016 18:22 8,3 C 76 % 1026,4 hPa 0,0 l/m 18,0 km/h (3 Bft) W-SW 254 0 min 0,000 mm 0,0 UV-I 0 W/m 4,3 C 1,8 C 27,4 km/h (4 Bft) 96,23 %
25.12.2016 18:24 8,3 C 76 % 1026,3 hPa 0,0 l/m 12,8 km/h (3 Bft) W 260 0 min 0,000 mm 0,0 UV-I 0 W/m 4,3 C 4,1 C 17,7 km/h (3 Bft) 98,00 %
25.12.2016 18:26 8,3 C 76 % 1026,3 hPa 0,0 l/m 14,5 km/h (3 Bft) W 269 0 min 0,000 mm 0,0 UV-I 0 W/m 4,3 C 3,3 C 20,9 km/h (4 Bft) 100,00 %
25.12.2016 18:28 8,4 C 75 % 1026,4 hPa 0,0 l/m 15,0 km/h (3 Bft) W-SW 248 0 min 0,000 mm 0,0 UV-I 0 W/m 4,2 C 3,2 C 27,4 km/h (4 Bft) 97,87 %
25.12.2016 18:30 8,4 C 75 % 1026,4 hPa 0,0 l/m 17,8 km/h (3 Bft) SW 235 0 min 0,000 mm 0,0 UV-I 0 W/m 4,2 C 2,0 C 25,7 km/h (4 Bft) 97,87 %
25.12.2016 18:32 8,5 C 75 % 1026,5 hPa 0,0 l/m 16,5 km/h (3 Bft) SW 215 0 min 0,000 mm 0,0 UV-I 0 W/m 4,3 C 2,7 C 25,7 km/h (4 Bft) 95,74 %
25.12.2016 18:34 8,5 C 75 % 1026,5 hPa 0,0 l/m 16,4 km/h (3 Bft) W 273 0 min 0,000 mm 0,0 UV-I 0 W/m 4,3 C 2,7 C 29,0 km/h (5 Bft) 100,00 %
25.12.2016 18:36 8,6 C 75 % 1026,6 hPa 0,0 l/m 11,5 km/h (2 Bft) W 263 0 min 0,000 mm 0,0 UV-I 0 W/m 4,4 C 5,2 C 19,3 km/h (3 Bft) 95,74 %
25.12.2016 18:38 8,6 C 75 % 1026,5 hPa 0,0 l/m 9,8 km/h (2 Bft) W-SW 256 0 min 0,000 mm 0,0 UV-I 0 W/m 4,4 C 6,2 C 19,3 km/h (3 Bft) 100,00 %
25.12.2016 18:40 8,6 C 75 % 1026,6 hPa 0,0 l/m 13,5 km/h (3 Bft) W-SW 240 0 min 0,000 mm 0,0 UV-I 0 W/m 4,4 C 4,1 C 17,7 km/h (3 Bft) 97,87 %
25.12.2016 18:42 8,6 C 76 % 1026,7 hPa 0,0 l/m 12,2 km/h (2 Bft) W 261 0 min 0,000 mm 0,0 UV-I 0 W/m 4,6 C 4,8 C 19,3 km/h (3 Bft) 100,00 %
25.12.2016 18:44 8,7 C 76 % 1026,6 hPa 0,0 l/m 15,7 km/h (3 Bft) W-SW 251 0 min 0,000 mm 0,0 UV-I 0 W/m 4,7 C 3,3 C 27,4 km/h (4 Bft) 95,00 %
25.12.2016 18:46 8,7 C 76 % 1026,7 hPa 0,0 l/m 14,4 km/h (3 Bft) SW 228 0 min 0,000 mm 0,0 UV-I 0 W/m 4,7 C 3,8 C 22,5 km/h (4 Bft) 100,00 %
25.12.2016 18:48 8,7 C 76 % 1026,7 hPa 0,0 l/m 9,9 km/h (2 Bft) W 269 0 min 0,000 mm 0,0 UV-I 0 W/m 4,7 C 6,2 C 17,7 km/h (3 Bft) 100,00 %
25.12.2016 18:50 8,7 C 76 % 1026,7 hPa 0,0 l/m 16,9 km/h (3 Bft) N-NW 336 0 min 0,000 mm 0,0 UV-I 0 W/m 4,7 C 2,8 C 27,4 km/h (4 Bft) 100,00 %
25.12.2016 18:52 8,8 C 76 % 1026,7 hPa 0,0 l/m 15,5 km/h (3 Bft) W-SW 255 0 min 0,000 mm 0,0 UV-I 0 W/m 4,8 C 3,5 C 20,9 km/h (4 Bft) 97,87 %
25.12.2016 18:54 8,8 C 76 % 1026,8 hPa 0,0 l/m 13,2 km/h (3 Bft) W 281 0 min 0,000 mm 0,0 UV-I 0 W/m 4,8 C 4,5 C 22,5 km/h (4 Bft) 98,00 %
25.12.2016 18:56 8,8 C 76 % 1026,8 hPa 0,0 l/m 13,7 km/h (3 Bft) W 259 0 min 0,000 mm 0,0 UV-I 0 W/m 4,8 C 4,3 C 22,5 km/h (4 Bft) 100,00 %
25.12.2016 18:58 8,8 C 76 % 1026,7 hPa 0,0 l/m 12,9 km/h (3 Bft) W-NW 298 0 min 0,000 mm 0,0 UV-I 0 W/m 4,8 C 4,7 C 24,1 km/h (4 Bft) 95,74 %
25.12.2016 19:00 8,8 C 76 % 1026,7 hPa 0,0 l/m 12,5 km/h (3 Bft) W 259 0 min 0,026 mm 0,0 UV-I 0 W/m 4,8 C 4,9 C 20,9 km/h (4 Bft) 100,00 %
25.12.2016 19:02 8,9 C 76 % 1026,7 hPa 0,0 l/m 16,2 km/h (3 Bft) W-SW 249 0 min 0,000 mm 0,0 UV-I 0 W/m 4,9 C 3,3 C 27,4 km/h (4 Bft) 100,00 %
25.12.2016 19:04 8,9 C 76 % 1026,8 hPa 0,0 l/m 11,9 km/h (2 Bft) W-SW 257 0 min 0,000 mm 0,0 UV-I 0 W/m 4,9 C 5,3 C 17,7 km/h (3 Bft) 97,87 %
25.12.2016 19:06 8,9 C 76 % 1026,8 hPa 0,0 l/m 9,9 km/h (2 Bft) W 262 0 min 0,000 mm 0,0 UV-I 0 W/m 4,9 C 6,4 C 14,5 km/h (3 Bft) 100,00 %
25.12.2016 19:08 8,8 C 76 % 1026,8 hPa 0,0 l/m 17,2 km/h (3 Bft) W 263 0 min 0,000 mm 0,0 UV-I 0 W/m 4,8 C 2,8 C 29,0 km/h (5 Bft) 98,00 %
25.12.2016 19:10 8,8 C 76 % 1026,8 hPa 0,0 l/m 16,8 km/h (3 Bft) W 267 0 min 0,000 mm 0,0 UV-I 0 W/m 4,8 C 2,9 C 27,4 km/h (4 Bft) 97,87 %
25.12.2016 19:12 8,9 C 76 % 1026,9 hPa 0,0 l/m 18,2 km/h (3 Bft) W 266 0 min 0,000 mm 0,0 UV-I 0 W/m 4,9 C 2,5 C 29,0 km/h (5 Bft) 100,00 %
25.12.2016 19:14 8,9 C 76 % 1026,8 hPa 0,0 l/m 14,9 km/h (3 Bft) W 270 0 min 0,000 mm 0,0 UV-I 0 W/m 4,9 C 3,8 C 27,4 km/h (4 Bft) 100,00 %
25.12.2016 19:16 8,9 C 76 % 1026,7 hPa 0,0 l/m 19,2 km/h (3 Bft) W-SW 248 0 min 0,000 mm 0,0 UV-I 0 W/m 4,9 C 2,1 C 32,2 km/h (5 Bft) 100,00 %
25.12.2016 19:18 8,9 C 76 % 1026,8 hPa 0,0 l/m 16,3 km/h (3 Bft) W-SW 238 0 min 0,000 mm 0,0 UV-I 0 W/m 4,9 C 3,2 C 29,0 km/h (5 Bft) 97,87 %
25.12.2016 19:20 8,9 C 76 % 1026,8 hPa 0,0 l/m 16,3 km/h (3 Bft) W 264 0 min 0,000 mm 0,0 UV-I 0 W/m 4,9 C 3,2 C 25,7 km/h (4 Bft) 100,00 %
25.12.2016 19:22 8,9 C 76 % 1026,7 hPa 0,0 l/m 16,3 km/h (3 Bft) W-SW 239 0 min 0,000 mm 0,0 UV-I 0 W/m 4,9 C 3,2 C 25,7 km/h (4 Bft) 95,74 %
25.12.2016 19:24 9,0 C 76 % 1026,7 hPa 0,0 l/m 17,3 km/h (3 Bft) W-SW 255 0 min 0,000 mm 0,0 UV-I 0 W/m 5,0 C 3,0 C 25,7 km/h (4 Bft) 98,00 %
25.12.2016 19:26 8,9 C 76 % 1026,7 hPa 0,0 l/m 17,5 km/h (3 Bft) W-SW 254 0 min 0,000 mm 0,0 UV-I 0 W/m 4,9 C 2,8 C 22,5 km/h (4 Bft) 97,87 %
25.12.2016 19:28 8,9 C 76 % 1026,7 hPa 0,0 l/m 15,4 km/h (3 Bft) W-SW 250 0 min 0,000 mm 0,0 UV-I 0 W/m 4,9 C 3,6 C 24,1 km/h (4 Bft) 95,74 %
25.12.2016 19:30 8,9 C 76 % 1026,7 hPa 0,0 l/m 13,5 km/h (3 Bft) W 265 0 min 0,000 mm 0,0 UV-I 0 W/m 4,9 C 4,5 C 19,3 km/h (3 Bft) 98,00 %
25.12.2016 19:32 8,9 C 76 % 1026,7 hPa 0,0 l/m 17,5 km/h (3 Bft) W 259 0 min 0,000 mm 0,0 UV-I 0 W/m 4,9 C 2,8 C 27,4 km/h (4 Bft) 97,87 %
25.12.2016 19:34 8,9 C 77 % 1026,7 hPa 0,0 l/m 15,5 km/h (3 Bft) W 269 0 min 0,000 mm 0,0 UV-I 0 W/m 5,1 C 3,6 C 22,5 km/h (4 Bft) 95,74 %
25.12.2016 19:36 8,9 C 76 % 1026,6 hPa 0,0 l/m 15,7 km/h (3 Bft) W 274 0 min 0,000 mm 0,0 UV-I 0 W/m 4,9 C 3,5 C 22,5 km/h (4 Bft) 98,00 %
25.12.2016 19:38 8,9 C 77 % 1026,7 hPa 0,0 l/m 11,6 km/h (2 Bft) W 260 0 min 0,000 mm 0,0 UV-I 0 W/m 5,1 C 5,5 C 19,3 km/h (3 Bft) 97,87 %
25.12.2016 19:40 8,9 C 77 % 1026,6 hPa 0,0 l/m 14,2 km/h (3 Bft) W-SW 253 0 min 0,000 mm 0,0 UV-I 0 W/m 5,1 C 4,2 C 17,7 km/h (3 Bft) 91,49 %
25.12.2016 19:42 8,9 C 77 % 1026,6 hPa 0,0 l/m 13,5 km/h (3 Bft) W 261 0 min 0,000 mm 0,0 UV-I 0 W/m 5,1 C 4,5 C 22,5 km/h (4 Bft) 95,83 %
25.12.2016 19:44 8,9 C 77 % 1026,5 hPa 0,0 l/m 15,7 km/h (3 Bft) W 265 0 min 0,000 mm 0,0 UV-I 0 W/m 5,1 C 3,5 C 22,5 km/h (4 Bft) 100,00 %
25.12.2016 19:46 8,9 C 77 % 1026,5 hPa 0,0 l/m 13,4 km/h (3 Bft) W-SW 247 0 min 0,000 mm 0,0 UV-I 0 W/m 5,1 C 4,5 C 20,9 km/h (4 Bft) 95,74 %
25.12.2016 19:48 8,9 C 77 % 1026,6 hPa 0,0 l/m 11,8 km/h (2 Bft) W-SW 257 0 min 0,000 mm 0,0 UV-I 0 W/m 5,1 C 5,4 C 16,1 km/h (3 Bft) 97,87 %
25.12.2016 19:50 8,9 C 78 % 1026,5 hPa 0,0 l/m 17,7 km/h (3 Bft) W 280 0 min 0,000 mm 0,0 UV-I 0 W/m 5,3 C 2,7 C 29,0 km/h (5 Bft) 97,87 %
25.12.2016 19:52 8,9 C 78 % 1026,6 hPa 0,0 l/m 18,6 km/h (3 Bft) W 269 0 min 0,000 mm 0,0 UV-I 0 W/m 5,3 C 2,4 C 29,0 km/h (5 Bft) 98,11 %
25.12.2016 19:54 8,9 C 78 % 1026,5 hPa 0,0 l/m 14,5 km/h (3 Bft) W-SW 246 0 min 0,000 mm 0,0 UV-I 0 W/m 5,3 C 4,0 C 20,9 km/h (4 Bft) 95,74 %
25.12.2016 19:56 8,9 C 78 % 1026,6 hPa 0,0 l/m 12,3 km/h (3 Bft) W-SW 253 0 min 0,000 mm 0,0 UV-I 0 W/m 5,3 C 5,1 C 19,3 km/h (3 Bft) 97,37 %
25.12.2016 19:58 8,9 C 78 % 1026,6 hPa 0,0 l/m 15,8 km/h (3 Bft) W 259 0 min 0,000 mm 0,0 UV-I 0 W/m 5,3 C 3,5 C 25,7 km/h (4 Bft) 97,87 %
25.12.2016 20:00 8,9 C 78 % 1026,7 hPa 0,0 l/m 12,9 km/h (3 Bft) W 268 0 min 0,000 mm 0,0 UV-I 0 W/m 5,3 C 4,8 C 20,9 km/h (4 Bft) 98,00 %
25.12.2016 20:02 8,9 C 79 % 1026,7 hPa 0,0 l/m 14,7 km/h (3 Bft) W-SW 250 0 min 0,050 mm 0,0 UV-I 0 W/m 5,5 C 3,9 C 24,1 km/h (4 Bft) 97,87 %
25.12.2016 20:04 8,9 C 79 % 1026,6 hPa 0,0 l/m 12,8 km/h (3 Bft) W 276 0 min 0,000 mm 0,0 UV-I 0 W/m 5,5 C 4,8 C 17,7 km/h (3 Bft) 100,00 %
25.12.2016 20:06 8,9 C 79 % 1026,6 hPa 0,0 l/m 13,1 km/h (3 Bft) W 267 0 min 0,000 mm 0,0 UV-I 0 W/m 5,5 C 4,7 C 17,7 km/h (3 Bft) 100,00 %
25.12.2016 20:08 8,9 C 79 % 1026,6 hPa 0,0 l/m 14,9 km/h (3 Bft) W-SW 250 0 min 0,000 mm 0,0 UV-I 0 W/m 5,5 C 3,8 C 27,4 km/h (4 Bft) 100,00 %
25.12.2016 20:10 8,9 C 79 % 1026,6 hPa 0,0 l/m 13,3 km/h (3 Bft) W-NW 282 0 min 0,000 mm 0,0 UV-I 0 W/m 5,5 C 4,6 C 17,7 km/h (3 Bft) 97,87 %
25.12.2016 20:12 8,9 C 79 % 1026,5 hPa 0,0 l/m 18,1 km/h (3 Bft) W 273 0 min 0,000 mm 0,0 UV-I 0 W/m 5,5 C 2,5 C 30,6 km/h (5 Bft) 100,00 %
25.12.2016 20:14 8,9 C 79 % 1026,6 hPa 0,0 l/m 18,4 km/h (3 Bft) W 262 0 min 0,000 mm 0,0 UV-I 0 W/m 5,5 C 2,4 C 29,0 km/h (5 Bft) 100,00 %
25.12.2016 20:16 8,9 C 79 % 1026,6 hPa 0,0 l/m 16,0 km/h (3 Bft) W-NW 286 0 min 0,000 mm 0,0 UV-I 0 W/m 5,5 C 3,4 C 24,1 km/h (4 Bft) 100,00 %
25.12.2016 20:18 8,9 C 79 % 1026,5 hPa 0,0 l/m 13,1 km/h (3 Bft) W-SW 256 0 min 0,000 mm 0,0 UV-I 0 W/m 5,5 C 4,7 C 20,9 km/h (4 Bft) 100,00 %
25.12.2016 20:20 8,9 C 79 % 1026,5 hPa 0,0 l/m 18,8 km/h (3 Bft) W-SW 243 0 min 0,000 mm 0,0 UV-I 0 W/m 5,5 C 2,3 C 30,6 km/h (5 Bft) 97,87 %
25.12.2016 20:22 8,9 C 80 % 1026,5 hPa 0,0 l/m 16,8 km/h (3 Bft) W 267 0 min 0,000 mm 0,0 UV-I 0 W/m 5,6 C 3,0 C 27,4 km/h (4 Bft) 98,11 %
25.12.2016 20:24 8,9 C 80 % 1026,5 hPa 0,0 l/m 14,3 km/h (3 Bft) W-SW 248 0 min 0,000 mm 0,0 UV-I 0 W/m 5,6 C 4,1 C 24,1 km/h (4 Bft) 100,00 %
25.12.2016 20:26 8,9 C 80 % 1026,5 hPa 0,0 l/m 18,0 km/h (3 Bft) W 275 0 min 0,000 mm 0,0 UV-I 0 W/m 5,6 C 2,6 C 24,1 km/h (4 Bft) 100,00 %
25.12.2016 20:28 8,9 C 80 % 1026,6 hPa 0,0 l/m 14,1 km/h (3 Bft) W 265 0 min 0,000 mm 0,0 UV-I 0 W/m 5,6 C 4,2 C 25,7 km/h (4 Bft) 100,00 %
25.12.2016 20:30 8,9 C 80 % 1026,6 hPa 0,0 l/m 17,4 km/h (3 Bft) W-SW 238 0 min 0,000 mm 0,0 UV-I 0 W/m 5,6 C 2,8 C 24,1 km/h (4 Bft) 97,87 %
25.12.2016 20:32 8,9 C 80 % 1026,6 hPa 0,0 l/m 14,8 km/h (3 Bft) W 269 0 min 0,000 mm 0,0 UV-I 0 W/m 5,6 C 3,9 C 25,7 km/h (4 Bft) 97,37 %
25.12.2016 20:34 8,9 C 80 % 1026,6 hPa 0,0 l/m 14,6 km/h (3 Bft) SW 228 0 min 0,000 mm 0,0 UV-I 0 W/m 5,6 C 4,0 C 22,5 km/h (4 Bft) 98,00 %
25.12.2016 20:36 8,9 C 81 % 1026,7 hPa 0,0 l/m 18,1 km/h (3 Bft) W 265 0 min 0,000 mm 0,0 UV-I 0 W/m 5,8 C 2,5 C 25,7 km/h (4 Bft) 97,87 %
25.12.2016 20:38 8,9 C 81 % 1026,6 hPa 0,0 l/m 19,3 km/h (3 Bft) W 263 0 min 0,000 mm 0,0 UV-I 0 W/m 5,8 C 2,1 C 25,7 km/h (4 Bft) 97,87 %
25.12.2016 20:40 8,9 C 81 % 1026,7 hPa 0,0 l/m 13,4 km/h (3 Bft) W-SW 257 0 min 0,000 mm 0,0 UV-I 0 W/m 5,8 C 4,5 C 19,3 km/h (3 Bft) 97,87 %
25.12.2016 20:42 8,9 C 81 % 1026,6 hPa 0,0 l/m 12,2 km/h (2 Bft) W-SW 251 0 min 0,000 mm 0,0 UV-I 0 W/m 5,8 C 5,1 C 19,3 km/h (3 Bft) 100,00 %
25.12.2016 20:44 8,9 C 81 % 1026,6 hPa 0,0 l/m 19,3 km/h (3 Bft) W 265 0 min 0,000 mm 0,0 UV-I 0 W/m 5,8 C 2,1 C 32,2 km/h (5 Bft) 100,00 %
25.12.2016 20:46 8,9 C 81 % 1026,6 hPa 0,0 l/m 15,0 km/h (3 Bft) W 267 0 min 0,000 mm 0,0 UV-I 0 W/m 5,8 C 3,8 C 22,5 km/h (4 Bft) 100,00 %
25.12.2016 20:48 8,9 C 81 % 1026,5 hPa 0,0 l/m 15,2 km/h (3 Bft) W 271 0 min 0,000 mm 0,0 UV-I 0 W/m 5,8 C 3,7 C 24,1 km/h (4 Bft) 100,00 %
25.12.2016 20:50 8,9 C 81 % 1026,6 hPa 0,0 l/m 12,7 km/h (3 Bft) W 263 0 min 0,000 mm 0,0 UV-I 0 W/m 5,8 C 4,9 C 20,9 km/h (4 Bft) 97,87 %
25.12.2016 20:52 8,9 C 81 % 1026,7 hPa 0,0 l/m 13,9 km/h (3 Bft) W-SW 252 0 min 0,000 mm 0,0 UV-I 0 W/m 5,8 C 4,3 C 19,3 km/h (3 Bft) 100,00 %
25.12.2016 20:54 8,9 C 81 % 1026,7 hPa 0,0 l/m 15,3 km/h (3 Bft) W 263 0 min 0,000 mm 0,0 UV-I 0 W/m 5,8 C 3,7 C 27,4 km/h (4 Bft) 100,00 %
25.12.2016 20:56 8,9 C 81 % 1026,8 hPa 0,0 l/m 14,9 km/h (3 Bft) W-SW 252 0 min 0,000 mm 0,0 UV-I 0 W/m 5,8 C 3,8 C 22,5 km/h (4 Bft) 100,00 %
25.12.2016 20:58 8,9 C 81 % 1026,7 hPa 0,0 l/m 12,4 km/h (3 Bft) SW 232 0 min 0,000 mm 0,0 UV-I 0 W/m 5,8 C 5,0 C 17,7 km/h (3 Bft) 97,87 %
25.12.2016 21:00 8,8 C 81 % 1026,8 hPa 0,0 l/m 15,6 km/h (3 Bft) W-SW 246 0 min 0,026 mm 0,0 UV-I 0 W/m 5,7 C 3,4 C 24,1 km/h (4 Bft) 100,00 %
25.12.2016 21:02 8,8 C 81 % 1026,8 hPa 0,0 l/m 12,6 km/h (3 Bft) W 259 0 min 0,000 mm 0,0 UV-I 0 W/m 5,7 C 4,8 C 22,5 km/h (4 Bft) 98,00 %
25.12.2016 21:04 8,8 C 82 % 1026,9 hPa 0,0 l/m 12,1 km/h (2 Bft) S-SW 209 0 min 0,000 mm 0,0 UV-I 0 W/m 5,9 C 5,1 C 14,5 km/h (3 Bft) 100,00 %
25.12.2016 21:06 8,8 C 82 % 1026,9 hPa 0,0 l/m 11,5 km/h (2 Bft) W-SW 258 0 min 0,000 mm 0,0 UV-I 0 W/m 5,9 C 5,4 C 17,7 km/h (3 Bft) 100,00 %
25.12.2016 21:08 8,8 C 82 % 1026,9 hPa 0,0 l/m 13,6 km/h (3 Bft) W 265 0 min 0,000 mm 0,0 UV-I 0 W/m 5,9 C 4,3 C 20,9 km/h (4 Bft) 100,00 %
25.12.2016 21:10 8,8 C 82 % 1026,9 hPa 0,0 l/m 13,1 km/h (3 Bft) W 259 0 min 0,000 mm 0,0 UV-I 0 W/m 5,9 C 4,6 C 19,3 km/h (3 Bft) 100,00 %
25.12.2016 21:12 8,8 C 82 % 1026,9 hPa 0,0 l/m 9,8 km/h (2 Bft) W-SW 247 0 min 0,000 mm 0,0 UV-I 0 W/m 5,9 C 6,4 C 14,5 km/h (3 Bft) 97,14 %
25.12.2016 21:14 8,8 C 82 % 1026,9 hPa 0,0 l/m 10,0 km/h (2 Bft) W-SW 252 0 min 0,000 mm 0,0 UV-I 0 W/m 5,9 C 6,3 C 14,5 km/h (3 Bft) 100,00 %
25.12.2016 21:16 8,8 C 82 % 1026,9 hPa 0,0 l/m 12,8 km/h (3 Bft) W-SW 252 0 min 0,000 mm 0,0 UV-I 0 W/m 5,9 C 4,7 C 17,7 km/h (3 Bft) 98,00 %
25.12.2016 21:18 8,7 C 82 % 1026,9 hPa 0,0 l/m 12,9 km/h (3 Bft) S-SW 212 0 min 0,000 mm 0,0 UV-I 0 W/m 5,8 C 4,6 C 20,9 km/h (4 Bft) 100,00 %
25.12.2016 21:20 8,7 C 82 % 1026,9 hPa 0,0 l/m 8,9 km/h (2 Bft) SW 234 0 min 0,000 mm 0,0 UV-I 0 W/m 5,8 C 6,9 C 17,7 km/h (3 Bft) 100,00 %
25.12.2016 21:22 8,8 C 82 % 1026,9 hPa 0,0 l/m 16,7 km/h (3 Bft) W-SW 255 0 min 0,000 mm 0,0 UV-I 0 W/m 5,9 C 3,0 C 24,1 km/h (4 Bft) 100,00 %
25.12.2016 21:24 8,8 C 82 % 1026,9 hPa 0,0 l/m 12,2 km/h (2 Bft) W 274 0 min 0,000 mm 0,0 UV-I 0 W/m 5,9 C 5,0 C 20,9 km/h (4 Bft) 97,87 %
25.12.2016 21:26 8,8 C 82 % 1026,9 hPa 0,0 l/m 11,0 km/h (2 Bft) SW 232 0 min 0,000 mm 0,0 UV-I 0 W/m 5,9 C 5,7 C 25,7 km/h (4 Bft) 100,00 %
25.12.2016 21:28 8,8 C 82 % 1026,9 hPa 0,0 l/m 16,2 km/h (3 Bft) W 264 0 min 0,000 mm 0,0 UV-I 0 W/m 5,9 C 3,2 C 22,5 km/h (4 Bft) 100,00 %
25.12.2016 21:30 8,8 C 82 % 1026,8 hPa 0,0 l/m 14,7 km/h (3 Bft) W 263 0 min 0,000 mm 0,0 UV-I 0 W/m 5,9 C 3,8 C 25,7 km/h (4 Bft) 100,00 %
25.12.2016 21:32 8,8 C 82 % 1026,8 hPa 0,0 l/m 10,7 km/h (2 Bft) SW 236 0 min 0,000 mm 0,0 UV-I 0 W/m 5,9 C 5,9 C 16,1 km/h (3 Bft) 100,00 %
25.12.2016 21:34 8,8 C 82 % 1026,8 hPa 0,0 l/m 9,5 km/h (2 Bft) W-SW 246 0 min 0,000 mm 0,0 UV-I 0 W/m 5,9 C 6,6 C 12,9 km/h (3 Bft) 97,44 %
25.12.2016 21:36 8,8 C 82 % 1026,8 hPa 0,0 l/m 15,0 km/h (3 Bft) W 273 0 min 0,000 mm 0,0 UV-I 0 W/m 5,9 C 3,7 C 24,1 km/h (4 Bft) 96,15 %
25.12.2016 21:38 8,8 C 83 % 1026,8 hPa 0,0 l/m 13,3 km/h (3 Bft) W 270 0 min 0,000 mm 0,0 UV-I 0 W/m 6,1 C 4,5 C 20,9 km/h (4 Bft) 97,92 %
25.12.2016 21:40 8,8 C 83 % 1026,8 hPa 0,0 l/m 15,3 km/h (3 Bft) W-SW 240 0 min 0,000 mm 0,0 UV-I 0 W/m 6,1 C 3,5 C 20,9 km/h (4 Bft) 97,87 %
25.12.2016 21:42 8,8 C 83 % 1026,8 hPa 0,0 l/m 12,9 km/h (3 Bft) W-SW 240 0 min 0,000 mm 0,0 UV-I 0 W/m 6,1 C 4,7 C 17,7 km/h (3 Bft) 95,74 %
25.12.2016 21:44 8,8 C 83 % 1026,8 hPa 0,0 l/m 16,8 km/h (3 Bft) W-SW 255 0 min 0,000 mm 0,0 UV-I 0 W/m 6,1 C 2,9 C 22,5 km/h (4 Bft) 93,62 %
25.12.2016 21:46 8,8 C 83 % 1026,8 hPa 0,0 l/m 14,9 km/h (3 Bft) W 263 0 min 0,000 mm 0,0 UV-I 0 W/m 6,1 C 3,7 C 22,5 km/h (4 Bft) 97,14 %
25.12.2016 21:48 8,8 C 83 % 1026,9 hPa 0,0 l/m 15,1 km/h (3 Bft) W 269 0 min 0,000 mm 0,0 UV-I 0 W/m 6,1 C 3,6 C 24,1 km/h (4 Bft) 96,00 %
25.12.2016 21:50 8,8 C 83 % 1026,9 hPa 0,0 l/m 14,4 km/h (3 Bft) W-SW 258 0 min 0,000 mm 0,0 UV-I 0 W/m 6,1 C 4,0 C 24,1 km/h (4 Bft) 98,00 %
25.12.2016 21:52 8,8 C 83 % 1027,0 hPa 0,0 l/m 13,1 km/h (3 Bft) W 264 0 min 0,000 mm 0,0 UV-I 0 W/m 6,1 C 4,6 C 19,3 km/h (3 Bft) 97,87 %
25.12.2016 21:54 8,8 C 83 % 1027,0 hPa 0,0 l/m 13,0 km/h (3 Bft) W-SW 244 0 min 0,000 mm 0,0 UV-I 0 W/m 6,1 C 4,6 C 22,5 km/h (4 Bft) 97,87 %
25.12.2016 21:56 8,8 C 84 % 1027,1 hPa 0,0 l/m 12,2 km/h (2 Bft) W 265 0 min 0,000 mm 0,0 UV-I 0 W/m 6,2 C 5,0 C 17,7 km/h (3 Bft) 97,87 %
25.12.2016 21:58 8,8 C 84 % 1027,1 hPa 0,0 l/m 13,7 km/h (3 Bft) W-SW 254 0 min 0,000 mm 0,0 UV-I 0 W/m 6,2 C 4,3 C 17,7 km/h (3 Bft) 96,00 %
25.12.2016 22:00 8,8 C 84 % 1027,2 hPa 0,0 l/m 10,5 km/h (2 Bft) W 272 0 min 0,025 mm 0,0 UV-I 0 W/m 6,2 C 6,0 C 16,1 km/h (3 Bft) 97,87 %
25.12.2016 22:02 8,8 C 84 % 1027,2 hPa 0,0 l/m 12,4 km/h (3 Bft) W-SW 246 0 min 0,000 mm 0,0 UV-I 0 W/m 6,2 C 4,9 C 20,9 km/h (4 Bft) 95,74 %
25.12.2016 22:04 8,8 C 84 % 1027,2 hPa 0,0 l/m 10,9 km/h (2 Bft) W-SW 241 0 min 0,000 mm 0,0 UV-I 0 W/m 6,2 C 5,7 C 22,5 km/h (4 Bft) 97,56 %
25.12.2016 22:06 8,8 C 84 % 1027,3 hPa 0,0 l/m 14,9 km/h (3 Bft) W-SW 251 0 min 0,000 mm 0,0 UV-I 0 W/m 6,2 C 3,7 C 27,4 km/h (4 Bft) 97,87 %
25.12.2016 22:08 8,8 C 85 % 1027,3 hPa 0,0 l/m 13,5 km/h (3 Bft) W-SW 248 0 min 0,000 mm 0,0 UV-I 0 W/m 6,4 C 4,4 C 20,9 km/h (4 Bft) 100,00 %
25.12.2016 22:10 8,8 C 85 % 1027,2 hPa 0,0 l/m 13,5 km/h (3 Bft) W 266 0 min 0,000 mm 0,0 UV-I 0 W/m 6,4 C 4,4 C 17,7 km/h (3 Bft) 97,87 %
25.12.2016 22:12 8,7 C 85 % 1027,2 hPa 0,0 l/m 18,6 km/h (3 Bft) W 271 0 min 0,000 mm 0,0 UV-I 0 W/m 6,3 C 2,1 C 25,7 km/h (4 Bft) 98,00 %
25.12.2016 22:14 8,7 C 85 % 1027,3 hPa 0,0 l/m 17,4 km/h (3 Bft) W-SW 253 0 min 0,000 mm 0,0 UV-I 0 W/m 6,3 C 2,6 C 25,7 km/h (4 Bft) 100,00 %
25.12.2016 22:16 8,7 C 86 % 1027,3 hPa 0,0 l/m 12,1 km/h (2 Bft) W-SW 257 0 min 0,000 mm 0,0 UV-I 0 W/m 6,5 C 5,0 C 17,7 km/h (3 Bft) 97,92 %
25.12.2016 22:18 8,6 C 86 % 1027,3 hPa 0,0 l/m 8,8 km/h (2 Bft) W-SW 255 0 min 0,000 mm 0,0 UV-I 0 W/m 6,4 C 6,8 C 14,5 km/h (3 Bft) 97,87 %
25.12.2016 22:20 8,6 C 86 % 1027,2 hPa 0,0 l/m 10,6 km/h (2 Bft) W-SW 240 0 min 0,000 mm 0,0 UV-I 0 W/m 6,4 C 5,7 C 16,1 km/h (3 Bft) 97,87 %
25.12.2016 22:22 8,5 C 86 % 1027,3 hPa 0,0 l/m 10,9 km/h (2 Bft) W-SW 247 0 min 0,000 mm 0,0 UV-I 0 W/m 6,3 C 5,4 C 17,7 km/h (3 Bft) 97,87 %
25.12.2016 22:24 8,4 C 87 % 1027,2 hPa 0,0 l/m 14,8 km/h (3 Bft) W 262 0 min 0,000 mm 0,0 UV-I 0 W/m 6,4 C 3,3 C 17,7 km/h (3 Bft) 97,87 %
25.12.2016 22:26 8,4 C 87 % 1027,3 hPa 0,0 l/m 13,0 km/h (3 Bft) W-SW 250 0 min 0,000 mm 0,0 UV-I 0 W/m 6,4 C 4,1 C 20,9 km/h (4 Bft) 100,00 %
25.12.2016 22:28 8,4 C 87 % 1027,2 hPa 0,0 l/m 11,9 km/h (2 Bft) W-SW 248 0 min 0,000 mm 0,0 UV-I 0 W/m 6,4 C 4,7 C 16,1 km/h (3 Bft) 97,87 %
25.12.2016 22:30 8,3 C 88 % 1027,2 hPa 0,0 l/m 6,5 km/h (2 Bft) W 261 0 min 0,000 mm 0,0 UV-I 0 W/m 6,4 C 8,2 C 12,9 km/h (3 Bft) 100,00 %
25.12.2016 22:32 8,3 C 88 % 1027,2 hPa 0,0 l/m 8,8 km/h (2 Bft) W 269 0 min 0,000 mm 0,0 UV-I 0 W/m 6,4 C 6,5 C 12,9 km/h (3 Bft) 98,11 %
25.12.2016 22:34 8,3 C 89 % 1027,2 hPa 0,0 l/m 8,4 km/h (2 Bft) W 259 0 min 0,000 mm 0,0 UV-I 0 W/m 6,6 C 6,8 C 12,9 km/h (3 Bft) 100,00 %
25.12.2016 22:36 8,2 C 89 % 1027,3 hPa 0,0 l/m 11,4 km/h (2 Bft) W-SW 253 0 min 0,000 mm 0,0 UV-I 0 W/m 6,5 C 4,8 C 16,1 km/h (3 Bft) 97,87 %
25.12.2016 22:38 8,2 C 90 % 1027,3 hPa 0,0 l/m 7,2 km/h (2 Bft) W-SW 250 0 min 0,000 mm 0,0 UV-I 0 W/m 6,7 C 7,6 C 11,3 km/h (2 Bft) 100,00 %
25.12.2016 22:40 8,1 C 90 % 1027,3 hPa 0,0 l/m 6,0 km/h (2 Bft) W-SW 248 0 min 0,000 mm 0,0 UV-I 0 W/m 6,6 C 8,1 C 9,7 km/h (2 Bft) 100,00 %
25.12.2016 22:42 8,0 C 91 % 1027,3 hPa 0,0 l/m 5,2 km/h (1 Bft) W 281 0 min 0,000 mm 0,0 UV-I 0 W/m 6,6 C 8,0 C 11,3 km/h (2 Bft) 100,00 %
25.12.2016 22:44 7,9 C 91 % 1027,4 hPa 0,0 l/m 7,3 km/h (2 Bft) W-SW 254 0 min 0,000 mm 0,0 UV-I 0 W/m 6,5 C 7,2 C 12,9 km/h (3 Bft) 97,87 %
25.12.2016 22:46 7,9 C 91 % 1027,4 hPa 0,0 l/m 4,6 km/h (1 Bft) W 271 0 min 0,000 mm 0,0 UV-I 0 W/m 6,5 C 7,9 C 9,7 km/h (2 Bft) 97,87 %
25.12.2016 22:48 7,8 C 92 % 1027,4 hPa 0,0 l/m 5,6 km/h (1 Bft) W-SW 250 0 min 0,000 mm 0,0 UV-I 0 W/m 6,6 C 7,8 C 11,3 km/h (2 Bft) 100,00 %
25.12.2016 22:50 7,8 C 92 % 1027,4 hPa 0,0 l/m 5,2 km/h (1 Bft) W 278 0 min 0,000 mm 0,0 UV-I 0 W/m 6,6 C 7,8 C 11,3 km/h (2 Bft) 100,00 %
25.12.2016 22:52 7,8 C 92 % 1027,4 hPa 0,0 l/m 5,3 km/h (1 Bft) W 279 0 min 0,000 mm 0,0 UV-I 0 W/m 6,6 C 7,8 C 9,7 km/h (2 Bft) 95,83 %
25.12.2016 22:54 7,8 C 92 % 1027,3 hPa 0,0 l/m 5,8 km/h (2 Bft) W-SW 257 0 min 0,000 mm 0,0 UV-I 0 W/m 6,6 C 7,8 C 9,7 km/h (2 Bft) 100,00 %
25.12.2016 22:56 7,7 C 92 % 1027,4 hPa 0,0 l/m 5,8 km/h (2 Bft) W-SW 254 0 min 0,000 mm 0,0 UV-I 0 W/m 6,5 C 7,7 C 12,9 km/h (3 Bft) 100,00 %
25.12.2016 22:58 7,7 C 92 % 1027,4 hPa 0,0 l/m 8,7 km/h (2 Bft) W 275 0 min 0,000 mm 0,0 UV-I 0 W/m 6,5 C 5,9 C 14,5 km/h (3 Bft) 100,00 %
25.12.2016 23:00 7,7 C 93 % 1027,5 hPa 0,0 l/m 6,9 km/h (2 Bft) W-NW 284 0 min 0,000 mm 0,0 UV-I 0 W/m 6,6 C 7,3 C 12,9 km/h (3 Bft) 100,00 %
25.12.2016 23:02 7,7 C 93 % 1027,4 hPa 0,0 l/m 5,1 km/h (1 Bft) W 277 0 min 0,026 mm 0,0 UV-I 0 W/m 6,6 C 7,7 C 9,7 km/h (2 Bft) 100,00 %
25.12.2016 23:04 7,7 C 93 % 1027,4 hPa 0,0 l/m 4,7 km/h (1 Bft) W-SW 248 0 min 0,000 mm 0,0 UV-I 0 W/m 6,6 C 7,7 C 6,4 km/h (2 Bft) 100,00 %
25.12.2016 23:06 7,6 C 93 % 1027,3 hPa 0,0 l/m 6,0 km/h (2 Bft) W-SW 248 0 min 0,000 mm 0,0 UV-I 0 W/m 6,5 C 7,6 C 11,3 km/h (2 Bft) 100,00 %
25.12.2016 23:08 7,6 C 93 % 1027,3 hPa 0,0 l/m 8,1 km/h (2 Bft) W-SW 256 0 min 0,000 mm 0,0 UV-I 0 W/m 6,5 C 6,3 C 14,5 km/h (3 Bft) 97,87 %
25.12.2016 23:10 7,6 C 93 % 1027,2 hPa 0,0 l/m 10,2 km/h (2 Bft) W 259 0 min 0,000 mm 0,0 UV-I 0 W/m 6,5 C 4,8 C 14,5 km/h (3 Bft) 97,96 %
25.12.2016 23:12 7,6 C 93 % 1027,2 hPa 0,0 l/m 10,0 km/h (2 Bft) W 261 0 min 0,000 mm 0,0 UV-I 0 W/m 6,5 C 4,9 C 14,5 km/h (3 Bft) 98,00 %
25.12.2016 23:14 7,6 C 93 % 1027,2 hPa 0,0 l/m 13,4 km/h (3 Bft) W 267 0 min 0,000 mm 0,0 UV-I 0 W/m 6,5 C 3,0 C 17,7 km/h (3 Bft) 100,00 %
25.12.2016 23:16 7,6 C 93 % 1027,1 hPa 0,0 l/m 13,0 km/h (3 Bft) W-SW 254 0 min 0,000 mm 0,0 UV-I 0 W/m 6,5 C 3,2 C 20,9 km/h (4 Bft) 100,00 %
25.12.2016 23:18 7,6 C 93 % 1027,1 hPa 0,0 l/m 14,3 km/h (3 Bft) W-SW 255 0 min 0,000 mm 0,0 UV-I 0 W/m 6,5 C 2,6 C 20,9 km/h (4 Bft) 100,00 %
25.12.2016 23:20 7,6 C 93 % 1027,1 hPa 0,0 l/m 13,4 km/h (3 Bft) W-SW 243 0 min 0,000 mm 0,0 UV-I 0 W/m 6,5 C 3,0 C 17,7 km/h (3 Bft) 95,74 %
25.12.2016 23:22 7,5 C 93 % 1027,1 hPa 0,0 l/m 9,8 km/h (2 Bft) W 261 0 min 0,000 mm 0,0 UV-I 0 W/m 6,4 C 5,0 C 14,5 km/h (3 Bft) 100,00 %
25.12.2016 23:24 7,5 C 93 % 1027,0 hPa 0,0 l/m 12,9 km/h (3 Bft) W-SW 244 0 min 0,000 mm 0,0 UV-I 0 W/m 6,4 C 3,1 C 16,1 km/h (3 Bft) 100,00 %
25.12.2016 23:26 7,4 C 93 % 1027,0 hPa 0,0 l/m 9,3 km/h (2 Bft) W-SW 244 0 min 0,000 mm 0,0 UV-I 0 W/m 6,3 C 5,2 C 16,1 km/h (3 Bft) 100,00 %
25.12.2016 23:28 7,4 C 93 % 1027,0 hPa 0,0 l/m 6,3 km/h (2 Bft) W-SW 254 0 min 0,000 mm 0,0 UV-I 0 W/m 6,3 C 7,4 C 9,7 km/h (2 Bft) 100,00 %
25.12.2016 23:30 7,4 C 93 % 1027,0 hPa 0,0 l/m 8,3 km/h (2 Bft) W-SW 241 0 min 0,000 mm 0,0 UV-I 0 W/m 6,3 C 5,9 C 16,1 km/h (3 Bft) 100,00 %
25.12.2016 23:32 7,4 C 93 % 1027,0 hPa 0,0 l/m 10,2 km/h (2 Bft) W-SW 248 0 min 0,000 mm 0,0 UV-I 0 W/m 6,3 C 4,6 C 16,1 km/h (3 Bft) 100,00 %
25.12.2016 23:34 7,4 C 94 % 1027,1 hPa 0,0 l/m 7,1 km/h (2 Bft) W 269 0 min 0,000 mm 0,0 UV-I 0 W/m 6,5 C 6,8 C 11,3 km/h (2 Bft) 97,87 %
25.12.2016 23:36 7,4 C 94 % 1027,1 hPa 0,0 l/m 10,0 km/h (2 Bft) W-SW 255 0 min 0,000 mm 0,0 UV-I 0 W/m 6,5 C 4,7 C 16,1 km/h (3 Bft) 100,00 %
25.12.2016 23:38 7,4 C 94 % 1027,1 hPa 0,0 l/m 9,3 km/h (2 Bft) W 259 0 min 0,000 mm 0,0 UV-I 0 W/m 6,5 C 5,2 C 16,1 km/h (3 Bft) 95,74 %
25.12.2016 23:40 7,4 C 94 % 1027,1 hPa 0,0 l/m 9,9 km/h (2 Bft) W-SW 254 0 min 0,000 mm 0,0 UV-I 0 W/m 6,5 C 4,8 C 14,5 km/h (3 Bft) 95,74 %
25.12.2016 23:42 7,4 C 94 % 1027,1 hPa 0,0 l/m 13,1 km/h (3 Bft) W-SW 252 0 min 0,000 mm 0,0 UV-I 0 W/m 6,5 C 2,9 C 19,3 km/h (3 Bft) 98,00 %
25.12.2016 23:44 7,4 C 94 % 1027,1 hPa 0,0 l/m 13,6 km/h (3 Bft) W 262 0 min 0,000 mm 0,0 UV-I 0 W/m 6,5 C 2,7 C 19,3 km/h (3 Bft) 97,87 %
25.12.2016 23:46 7,4 C 94 % 1027,0 hPa 0,0 l/m 9,2 km/h (2 Bft) W 273 0 min 0,000 mm 0,0 UV-I 0 W/m 6,5 C 5,3 C 16,1 km/h (3 Bft) 96,00 %
25.12.2016 23:48 7,4 C 94 % 1027,0 hPa 0,0 l/m 9,1 km/h (2 Bft) W-SW 252 0 min 0,000 mm 0,0 UV-I 0 W/m 6,5 C 5,3 C 12,9 km/h (3 Bft) 97,87 %
25.12.2016 23:50 7,4 C 94 % 1027,0 hPa 0,0 l/m 11,4 km/h (2 Bft) W-SW 240 0 min 0,000 mm 0,0 UV-I 0 W/m 6,5 C 3,9 C 14,5 km/h (3 Bft) 97,87 %
25.12.2016 23:52 7,4 C 94 % 1027,0 hPa 0,0 l/m 14,6 km/h (3 Bft) SW 232 0 min 0,000 mm 0,0 UV-I 0 W/m 6,5 C 2,2 C 24,1 km/h (4 Bft) 92,11 %
25.12.2016 23:54 7,4 C 94 % 1027,0 hPa 0,0 l/m 12,7 km/h (3 Bft) SW 218 0 min 0,000 mm 0,0 UV-I 0 W/m 6,5 C 3,1 C 22,5 km/h (4 Bft) 98,00 %
25.12.2016 23:56 7,5 C 94 % 1027,0 hPa 0,0 l/m 13,1 km/h (3 Bft) SW 225 0 min 0,000 mm 0,0 UV-I 0 W/m 6,6 C 3,0 C 22,5 km/h (4 Bft) 93,62 %
25.12.2016 23:58 7,5 C 94 % 1027,1 hPa 0,0 l/m 12,7 km/h (3 Bft) W-SW 248 0 min 0,000 mm 0,0 UV-I 0 W/m 6,6 C 3,3 C 20,9 km/h (4 Bft) 97,87 %
_ Min-Zeit 06:24 18:28 15:58 - 16:52 - - - - - - 04:32 07:16 16:52 04:24
Minimum _ 4,6 C 75 % 1025,3 hPa - 2,7 km/h (1 Bft) - - - - - - 2,8 C -6,3 C 4,8 km/h (1 Bft) 91,49 %
_ Max-Zeit 19:24 23:34 00:18 03:14 04:44 - - 00:00 03:00 00:00 13:20 22:38 22:30 04:42 00:42
Maximum _ 9,0 C 94 % 1028,9 hPa 0,2 l/m 34,7 km/h
W (5 Bft)
- - 0 min 0,051 mm 0,0 UV-I 78 W/m 6,7 C 8,2 C 56,3 km/h
W (7 Bft)
100,00 %
Durchschnitt _ 6,8 C 83 % 1027,1 hPa #1,6 l/m 17,0 km/h (3 Bft) W-SW - #0 min. #0,737 mm 0,0 UV-I 30 W/m 4,1 C 0,6 C 26,1 km/h (4 Bft) 98,33 %